[[{"header":{"parameterUnit":"m.s-1","parameterCategory":1,"la1":31.0,"la2":29.5877,"lo1":-88.7671,"lo2":-86.6584,"dy":0.0162,"dx":0.0185,"nx":115,"ny":88,"refTime":"2024-06-08T06:00:00:Z","depth":0,"parameterNumber":2,"parameterNumberName":"U-component_of_WINDS"},"data":[0.0,0.0,0.0,0.0,0.0,0.0,0.0,0.0,0.0,0.0,0.0,0.0,0.0,0.0,0.0,0.0,0.0,0.0,0.0,0.0,0.0,0.0,0.0,0.0,0.0,0.0,0.0,0.0,0.0,0.0,0.0,0.0,0.0,0.0,0.0,0.0,0.0,0.0,0.0,0.0,0.0,0.0,0.0,0.0,0.0,0.0,0.0,0.0,0.0,0.0,0.0,0.0,0.0,0.0,0.0,0.0,0.0,0.0,0.0,0.0,0.0,0.0,0.0,0.0,0.0,0.0,0.0,0.0,0.0,0.0,0.0,0.0,0.0,0.0,0.0,0.0,0.0,0.0,0.0,0.0,0.0,0.0,0.0,0.0,0.0,0.0,0.0,0.0,0.0,0.0,0.0,0.0,0.0,0.0,0.0,0.0,0.0,0.0,0.0,0.0,0.0,0.0,0.0,0.0,0.0,0.0,0.0,0.0,0.0,0.0,0.0,0.0,0.0,0.0,0.0,0.0,0.0,0.0,0.0,0.0,0.0,0.0,0.0,0.0,0.0,0.0,0.0,0.0,0.0,0.0,0.0,0.0,0.0,0.0,0.0,0.0,0.0,0.0,0.0,0.0,0.0,0.0,0.0,0.0,0.0,0.0,0.0,0.0,0.0,0.0,0.0,0.0,0.0,0.0,0.0,0.0,0.0,0.0,0.0,0.0,0.0,0.0,0.0,0.0,0.0,0.0,0.0,0.0,0.0,0.0,0.0,0.0,0.0,0.0,0.0,0.0,0.0,0.0,0.0,0.0,0.0,0.0,0.0,0.0,0.0,0.0,0.0,0.0,0.0,0.0,0.0,0.0,0.0,0.0,0.0,0.0,0.0,0.0,0.0,0.0,0.0,0.0,0.0,0.0,0.0,0.0,0.0,0.0,0.0,0.0,0.0,0.0,0.0,0.0,0.0,0.0,0.0,0.0,0.0,0.0,0.0,0.0,0.0,0.0,0.0,0.0,0.0,0.0,0.0,0.0,0.0,0.0,0.0,0.0,0.0,0.0,0.0,0.0,0.0,0.0,0.0,0.0,0.0,0.0,0.0,0.0,0.0,0.0,0.0,0.0,0.0,0.0,0.0,0.0,0.0,0.0,0.0,0.0,0.0,0.0,0.0,0.0,0.0,0.0,0.0,0.0,0.0,0.0,0.0,0.0,0.0,0.0,0.0,0.0,0.0,0.0,0.0,0.0,0.0,0.0,0.0,0.0,0.0,0.0,0.0,0.0,0.0,0.0,0.0,0.0,0.0,0.0,0.0,0.0,0.0,0.0,0.0,0.0,0.0,0.0,0.0,0.0,0.0,0.0,0.0,0.0,0.0,0.0,0.0,0.0,0.0,0.0,0.0,0.0,0.0,0.0,0.0,0.0,0.0,0.0,0.0,0.0,0.0,0.0,0.0,0.0,0.0,0.0,0.0,0.0,0.0,0.0,0.0,0.0,0.0,0.0,0.0,0.0,0.0,0.0,0.0,0.0,0.0,0.0,0.0,0.0,0.0,0.0,0.0,0.0,0.0,0.0,0.0,0.0,0.0,0.0,0.0,0.0,0.0,0.0,0.0,0.0,0.0,0.0,0.0,0.0,0.0,0.0,0.0,0.0,0.0,0.0,0.0,0.0,0.0,0.0,0.0,0.0,0.0,0.0,0.0,0.0,0.0,0.0,0.0,0.0,0.0,0.0,0.0,0.0,0.0,0.0,0.0,0.0,0.0,0.0,0.0,0.0,0.0,0.0,0.0,0.0,0.0,0.0,0.0,0.0,0.0,0.0,0.0,0.0,0.0,0.0,0.0,0.0,0.0,0.0,0.0,0.0,0.0,0.0,0.0,0.0,0.0,0.0,0.0,0.0,0.0,0.0,0.0,0.0,0.0,0.0,0.0,0.0,0.0,0.0,0.0,0.0,0.0,0.0,0.0,0.0,0.0,0.0,0.0,0.0,0.0,0.0,0.0,0.0,0.0,0.0,0.0,0.0,0.0,0.0,0.0,0.0,0.0,0.0,0.0,0.0,0.0,0.0,0.0,0.0,0.0,0.0,0.0,0.0,0.0,0.0,0.0,0.0,0.0,0.0,0.0,0.0,0.0,0.0,0.0,0.0,0.0,0.0,0.0,0.0,0.0,0.0,0.0,0.0,0.0,0.0,0.0,0.0,0.0,0.0,0.0,0.0,0.0,0.0,0.0,0.0,0.0,0.0,0.0,0.0,0.0,0.0,0.0,0.0,0.0,0.0,0.0,0.0,0.0,0.0,0.0,0.0,0.0,0.0,0.0,0.0,0.0,0.0,0.0,0.0,0.0,0.0,0.0,0.0,0.0,0.0,0.0,0.0,0.0,0.0,0.0,0.0,0.0,0.0,0.0,0.0,0.0,0.0,0.0,0.0,0.0,0.0,0.0,0.0,0.0,0.0,0.0,0.0,0.0,0.0,0.0,0.0,0.0,0.0,0.0,0.0,0.0,0.0,0.0,0.0,0.0,0.0,0.0,0.0,0.0,0.0,0.0,0.0,0.0,0.0,0.0,0.0,0.0,0.0,0.0,0.0,0.0,0.0,0.0,0.0,0.0,0.0,0.0,0.0,0.0,0.0,0.0,0.0,0.0,0.0,0.0,0.0,0.0,0.0,0.0,0.0,0.0,0.0,0.0,0.0,0.0,0.0,0.0,0.0,0.0,0.0,0.0,0.0,0.0,0.0,0.0,0.0,0.0,0.0,0.0,0.0,0.0,0.0,0.0,0.0,0.0,0.0,0.0,0.0,0.0,0.0,0.0,0.0,0.0,0.0,0.0,0.0,0.0,0.0,0.0,0.0,0.0,0.0,0.0,0.0,0.0,0.0,0.0,0.0,0.0,0.0,0.0,0.0,0.0,0.0,0.0,0.0,0.0,0.0,0.0,0.0,0.0,0.0,0.0,0.0,0.0,0.0,0.0,0.0,0.0,0.0,0.0,0.0,0.0,0.0,0.0,0.0,0.0,0.0,0.0,0.0,0.0,0.0,0.0,0.0,0.0,0.0,0.0,0.0,0.0,0.0,0.0,0.0,0.0,0.0,0.0,0.0,0.0,0.0,0.0,0.0,0.0,0.0,0.0,0.0,0.0,0.0,0.0,0.0,0.0,0.0,0.0,0.0,0.0,0.0,0.0,0.0,0.0,0.0,0.0,0.0,0.0,0.0,0.0,0.0,0.0,0.0,0.0,0.0,0.0,0.0,0.0,0.0,0.0,0.0,0.0,0.0,0.0,0.0,0.0,0.0,0.0,0.0,0.0,0.0,0.0,0.0,0.0,0.0,0.0,0.0,0.0,0.0,0.0,0.0,0.0,0.0,0.0,0.0,0.0,0.0,0.0,0.0,0.0,0.0,0.0,0.0,0.0,0.0,0.0,0.0,0.0,0.0,0.0,0.0,0.0,0.0,0.0,0.0,0.0,0.0,0.0,0.0,0.0,0.0,0.0,0.0,0.0,0.0,0.0,0.0,0.0,0.0,0.0,0.0,0.0,0.0,0.0,0.0,0.0,0.0,0.0,0.0,0.0,0.0,0.0,0.0,0.0,0.0,0.0,0.0,0.0,0.0,0.0,0.0,0.0,0.0,0.0,0.0,0.0,0.0,0.0,0.0,0.0,0.0,0.0,0.0,0.0,0.0,0.0,0.0,0.0,0.0,0.0,0.0,0.0,0.0,0.0,0.0,0.0,0.0,0.0,0.0,0.0,0.0,0.0,0.0,0.0,0.0,0.0,0.0,0.0,0.0,0.0,0.0,0.0,0.0,0.0,0.0,0.0,0.0,0.0,0.0,0.0,0.0,0.0,0.0,0.0,0.0,0.0,0.0,0.0,0.0,0.0,0.0,0.0,0.0,0.0,0.0,0.0,0.0,0.0,0.0,0.0,0.0,0.0,0.0,0.0,0.0,0.0,0.0,0.0,0.0,0.0,0.0,0.0,0.0,0.0,0.0,0.0,0.0,0.0,0.0,0.0,0.0,0.0,0.0,0.0,0.0,0.0,0.0,0.0,0.0,0.0,0.0,0.0,0.0,0.0,0.0,0.0,0.0,0.0,0.0,0.0,0.0,0.0,0.0,0.0,0.0,0.0,0.0,0.0,0.0,0.0,0.0,0.0,0.0,0.0,0.0,0.0,0.0,0.0,0.0,0.0,0.0,0.0,0.0,0.0,0.0,0.0,0.0,0.0,0.0,0.0,0.0,0.0,0.0,0.0,0.0,0.0,0.0,0.0,0.0,0.0,0.0,-0.7914,0.0,0.0,0.0,0.0,0.0,0.0,0.0,0.0,0.0,0.0,0.0,0.0,0.0,0.0,0.0,0.0,0.0,0.0,0.0,0.0,0.0,0.0,0.0,0.0,0.0,0.0,0.0,0.0,0.0,0.0,0.0,0.0,0.0,0.0,0.0,0.0,0.0,0.0,0.0,0.0,0.0,0.0,0.0,0.0,0.0,0.0,0.0,0.0,0.0,0.0,0.0,0.0,0.0,0.0,0.0,0.0,0.0,0.0,0.0,0.0,0.0,0.0,0.0,0.0,0.0,0.0,0.0,0.0,0.0,0.0,0.0,0.0,0.0,0.0,0.0,0.0,0.0,0.0,0.0,0.0,0.0,0.0,0.0,0.0,0.0,0.0,0.0,0.0,0.0,0.0,0.0,0.0,0.0,0.0,0.0,0.0,0.0,0.0,0.0,0.0,0.0,0.0,0.0,0.0,0.0,0.0,0.0,0.0,0.0,0.0,-0.7332,-0.759,-0.7783,-0.7856,-0.7739,0.0,0.0,0.0,0.0,0.0,0.0,0.0,0.0,0.0,0.0,0.0,0.0,0.0,0.0,0.0,0.0,0.0,0.0,0.0,0.0,0.0,0.0,0.0,0.0,0.0,0.0,0.0,0.0,0.0,0.0,0.0,0.0,0.0,0.0,0.0,0.0,0.0,0.0,0.0,0.0,0.0,0.0,0.0,0.0,0.0,0.0,0.0,0.0,0.0,0.0,0.0,0.0,0.0,0.0,0.0,0.0,0.0,0.0,0.0,0.0,0.0,0.0,0.0,0.0,0.0,0.0,0.0,0.0,0.0,0.0,0.0,0.0,0.0,0.0,0.0,0.0,0.0,0.0,0.0,0.0,0.0,0.0,0.0,0.0,0.0,0.0,0.0,0.0,0.0,0.0,0.0,0.0,0.0,0.0,0.0,0.0,0.0,0.0,0.0,0.0,0.0,0.0,0.0,0.0,0.0,0.0,0.0,0.0,0.0,0.0,0.0,0.0,-0.8227,-0.8288,-0.8148,0.0,0.0,0.0,0.0,0.0,0.0,0.0,0.0,0.0,0.0,0.0,0.0,0.0,0.0,0.0,0.0,0.0,0.0,0.0,0.0,0.0,0.0,0.0,0.0,0.0,0.0,0.0,0.0,0.0,0.0,0.0,0.0,0.0,0.0,0.0,0.0,0.0,0.0,0.0,0.0,0.0,0.0,0.0,0.0,0.0,0.0,0.0,0.0,0.0,0.0,0.0,0.0,0.0,0.0,0.0,0.0,0.0,0.0,0.0,0.0,0.0,0.0,0.0,0.0,0.0,0.0,0.0,0.0,0.0,0.0,0.0,0.0,0.0,0.0,0.0,0.0,0.0,0.0,0.0,0.0,0.0,0.0,0.0,0.0,0.0,0.0,0.0,0.0,0.0,0.0,0.0,0.0,0.0,0.0,0.0,0.0,0.0,0.0,0.0,0.0,0.0,0.0,0.0,0.0,0.0,0.0,0.0,0.0,0.0,0.0,-0.7868,-0.9286,-0.9558,0.0,-0.9722,0.0,0.0,0.0,0.0,0.0,0.0,0.0,0.0,0.0,0.0,0.0,0.0,0.0,0.0,0.0,0.0,0.0,0.0,0.0,0.0,0.0,0.0,0.0,0.0,0.0,0.0,0.0,0.0,0.0,0.0,0.0,0.0,0.0,0.0,0.0,0.0,0.0,0.0,0.0,0.0,0.0,0.0,0.0,0.0,0.0,0.0,0.0,0.0,0.0,0.0,0.0,0.0,0.0,0.0,0.0,0.0,0.0,0.0,0.0,0.0,0.0,0.0,0.0,0.0,0.0,0.0,0.0,0.0,0.0,0.0,0.0,0.0,0.0,0.0,0.0,0.0,0.0,0.0,0.0,0.0,0.0,0.0,0.0,0.0,0.0,0.0,0.0,0.0,0.0,0.0,0.0,0.0,0.0,0.0,0.0,0.0,0.0,0.0,0.0,0.0,0.0,0.0,0.0,0.0,0.0,0.0,0.0,0.0,0.0,0.0,0.0,-0.947,-0.9592,-0.9555,0.0,0.0,0.0,0.0,0.0,0.0,0.0,0.0,0.0,0.0,0.0,0.0,0.0,0.0,0.0,0.0,0.0,0.0,0.0,0.0,0.0,0.0,0.0,0.0,0.0,0.0,0.0,0.0,0.0,0.0,0.0,0.0,0.0,0.0,0.0,0.0,0.0,0.0,0.0,0.0,0.0,0.0,0.0,0.0,0.0,0.0,0.0,0.0,0.0,0.0,0.0,0.0,0.0,0.0,0.0,0.0,0.0,0.0,0.0,0.0,0.0,0.0,0.0,0.0,0.0,0.0,0.0,0.0,0.0,0.0,0.0,0.0,0.0,0.0,0.0,0.0,0.0,0.0,0.0,0.0,0.0,0.0,0.0,0.0,0.0,0.0,0.0,0.0,0.0,0.0,0.0,0.0,0.0,0.0,0.0,0.0,0.0,0.0,0.0,0.0,0.0,0.0,0.0,0.0,0.0,0.0,0.0,0.0,0.0,0.0,-0.9089,0.0,-1.0015,-0.9985,-0.9682,-0.9,0.0,0.0,0.0,0.0,0.0,0.0,0.0,0.0,0.0,0.0,0.0,0.0,0.0,0.0,0.0,0.0,0.0,0.0,0.0,0.0,0.0,0.0,0.0,0.0,0.0,0.0,0.0,0.0,0.0,0.0,0.0,0.0,0.0,0.0,0.0,0.0,0.0,0.0,0.0,0.0,0.0,0.0,0.0,0.0,0.0,0.0,0.0,0.0,0.0,0.0,0.0,0.0,0.0,0.0,0.0,0.0,0.0,0.0,0.0,0.0,0.0,0.0,0.0,0.0,0.0,0.0,0.0,0.0,0.0,0.0,0.0,0.0,0.0,0.0,0.0,0.0,0.0,0.0,0.0,0.0,0.0,0.0,0.0,0.0,0.0,0.0,0.0,0.0,0.0,0.0,0.0,0.0,0.0,0.0,0.0,0.0,0.0,0.0,0.0,0.0,0.0,0.0,0.0,0.0,0.0,0.0,0.0,0.0,0.0,-1.0002,-1.0102,-1.1359,-1.1216,-1.0505,0.0,0.0,0.0,0.0,0.0,0.0,0.0,0.0,0.0,0.0,0.0,0.0,0.0,0.0,0.0,0.0,0.0,0.0,0.0,0.0,0.0,0.0,0.0,0.0,0.0,0.0,0.0,0.0,0.0,0.0,0.0,0.0,0.0,0.0,0.0,0.0,0.0,0.0,0.0,0.0,0.0,0.0,0.0,0.0,0.0,0.0,0.0,0.0,0.0,0.0,0.0,0.0,0.0,0.0,0.0,0.0,0.0,0.0,0.0,0.0,0.0,0.0,0.0,0.0,0.0,0.0,0.0,0.0,0.0,0.0,0.0,0.0,0.0,0.0,0.0,0.0,0.0,0.0,0.0,0.0,0.0,0.0,0.0,0.0,0.0,0.0,0.0,0.0,0.0,0.0,0.0,0.0,0.0,0.0,0.0,0.0,0.0,0.0,0.0,0.0,0.0,0.0,0.0,0.0,0.0,0.0,0.0,0.0,0.0,-0.8846,-0.9435,-1.067,0.0,-1.098,-1.0109,0.0,0.0,0.0,0.0,0.0,0.0,0.0,0.0,0.0,0.0,0.0,0.0,0.0,0.0,0.0,0.0,0.0,0.0,0.0,0.0,0.0,0.0,0.0,0.0,0.0,0.0,0.0,0.0,0.0,0.0,0.0,0.0,0.0,0.0,0.0,0.0,0.0,0.0,0.0,0.0,0.0,0.0,0.0,0.0,0.0,0.0,0.0,0.0,0.0,0.0,0.0,0.0,0.0,0.0,0.0,0.0,0.0,0.0,0.0,0.0,0.0,0.0,0.0,0.0,0.0,0.0,0.0,0.0,0.0,0.0,0.0,0.0,0.0,0.0,0.0,0.0,0.0,0.0,0.0,0.0,0.0,0.0,0.0,0.0,0.0,0.0,0.0,0.0,0.0,0.0,0.0,0.0,0.0,0.0,0.0,0.0,0.0,0.0,0.0,0.0,0.0,0.0,0.0,0.0,0.0,0.0,0.0,0.0,0.0,-0.8972,0.0,-1.1637,0.0,-1.0907,-0.9786,0.0,0.0,0.0,0.0,0.0,0.0,0.0,0.0,0.0,0.0,0.0,0.0,0.0,0.0,0.0,0.0,0.0,0.0,0.0,0.0,0.0,0.0,0.0,0.0,0.0,0.0,0.0,0.0,0.0,0.0,0.0,0.0,0.0,0.0,0.0,0.0,0.0,0.0,0.0,0.0,0.0,0.0,0.0,0.0,0.0,0.0,0.0,0.0,0.0,0.0,0.0,0.0,0.0,0.0,0.0,0.0,0.0,0.0,0.0,0.0,0.0,0.0,0.0,0.0,0.0,0.0,0.0,0.0,0.0,0.0,0.0,0.0,0.0,0.0,0.0,0.0,0.0,0.0,0.0,0.0,0.0,0.0,0.0,0.0,0.0,0.0,0.0,0.0,0.0,0.0,0.0,0.0,0.0,0.0,0.0,0.0,0.0,0.0,0.0,0.0,0.0,0.0,0.0,0.0,0.0,0.0,0.0,0.0,0.0,-1.1619,-1.2948,-1.2965,-1.1615,-1.1075,-0.9665,0.0,0.0,0.0,0.0,0.0,0.0,0.0,0.0,0.0,0.0,0.0,0.0,0.0,0.0,0.0,0.0,0.0,0.0,0.0,0.0,0.0,0.0,0.0,0.0,0.0,0.0,0.0,0.0,0.0,0.0,0.0,0.0,0.0,0.0,0.0,0.0,0.0,0.0,0.0,0.0,0.0,0.0,0.0,0.0,0.0,0.0,0.0,0.0,0.0,0.0,0.0,0.0,0.0,0.0,0.0,0.0,0.0,0.0,0.0,0.0,0.0,0.0,0.0,0.0,0.0,0.0,0.0,0.0,0.0,0.0,0.0,0.0,0.0,0.0,0.0,0.0,0.0,0.0,0.0,0.0,0.0,0.0,0.0,0.0,0.0,0.0,0.0,0.0,0.0,0.0,0.0,0.0,0.0,0.0,0.0,0.0,0.0,0.0,0.0,0.0,0.0,0.0,0.0,0.0,0.0,0.0,0.0,0.0,0.0,-1.021,-1.1379,-1.2585,-1.3619,-1.113,-0.9989,0.0,0.0,0.0,0.0,0.0,0.0,0.0,0.0,0.0,0.0,0.0,0.0,0.0,0.0,0.0,0.0,0.0,0.0,0.0,0.0,0.0,0.0,0.0,0.0,0.0,0.0,0.0,0.0,0.0,0.0,0.0,0.0,0.0,0.0,0.0,0.0,0.0,0.0,0.0,0.0,0.0,0.0,0.0,0.0,0.0,0.0,0.0,0.0,0.0,0.0,0.0,0.0,0.0,0.0,0.0,0.0,0.0,0.0,0.0,0.0,0.0,0.0,0.0,0.0,0.0,0.0,0.0,0.0,0.0,0.0,0.0,0.0,0.0,0.0,0.0,0.0,0.0,0.0,0.0,0.0,0.0,0.0,0.0,0.0,0.0,0.0,0.0,0.0,0.0,0.0,0.0,0.0,0.0,0.0,0.0,0.0,0.0,0.0,0.0,0.0,0.0,0.0,0.0,0.0,0.0,0.0,0.0,0.0,0.0,-1.1162,-1.2356,-1.3586,-1.4767,-1.2072,-1.0737,-1.0994,0.0,0.0,0.0,0.0,0.0,0.0,0.0,0.0,0.0,0.0,0.0,0.0,0.0,0.0,0.0,0.0,0.0,0.0,0.0,0.0,0.0,0.0,0.0,0.0,0.0,0.0,0.0,0.0,0.0,0.0,0.0,0.0,0.0,0.0,0.0,0.0,0.0,0.0,0.0,0.0,0.0,0.0,0.0,0.0,0.0,0.0,0.0,0.0,0.0,0.0,0.0,0.0,0.0,0.0,0.0,0.0,0.0,0.0,0.0,0.0,0.0,0.0,0.0,0.0,0.0,0.0,0.0,0.0,0.0,0.0,0.0,0.0,0.0,0.0,0.0,0.0,0.0,0.0,0.0,0.0,0.0,0.0,0.0,0.0,0.0,0.0,0.0,0.0,0.0,0.0,0.0,0.0,0.0,0.0,0.0,0.0,0.0,0.0,0.0,0.0,0.0,0.0,0.0,0.0,0.0,0.0,0.0,0.0,-1.3838,-1.537,-1.5795,-1.5081,-1.3706,-1.1865,0.0,0.0,0.0,0.0,0.0,0.0,0.0,0.0,0.0,0.0,0.0,0.0,0.0,0.0,0.0,0.0,0.0,0.0,0.0,0.0,0.0,0.0,0.0,0.0,0.0,0.0,0.0,0.0,0.0,0.0,0.0,0.0,0.0,0.0,0.0,0.0,0.0,0.0,0.0,0.0,0.0,0.0,0.0,0.0,0.0,0.0,0.0,0.0,0.0,0.0,0.0,0.0,0.0,0.0,0.0,0.0,0.0,0.0,0.0,0.0,0.0,0.0,0.0,0.0,0.0,0.0,0.0,0.0,0.0,0.0,0.0,0.0,0.0,0.0,0.0,0.0,0.0,0.0,0.0,0.0,0.0,0.0,0.0,0.0,0.0,0.0,0.0,0.0,0.0,0.0,0.0,0.0,0.0,0.0,0.0,0.0,0.0,0.0,0.0,0.0,0.0,0.0,0.0,0.0,0.0,0.0,0.0,0.0,0.0,-1.4485,-1.6157,-1.719,-1.7593,-1.466,-1.2737,0.0,0.0,0.0,0.0,0.0,0.0,0.0,0.0,0.0,0.0,0.0,0.0,0.0,0.0,0.0,0.0,0.0,0.0,0.0,0.0,0.0,0.0,0.0,0.0,0.0,0.0,0.0,0.0,0.0,0.0,0.0,0.0,0.0,0.0,0.0,0.0,0.0,0.0,0.0,0.0,0.0,0.0,0.0,0.0,0.0,0.0,0.0,0.0,0.0,0.0,0.0,0.0,0.0,0.0,0.0,0.0,0.0,0.0,0.0,0.0,0.0,0.0,0.0,0.0,0.0,0.0,0.0,0.0,0.0,0.0,0.0,0.0,0.0,0.0,0.0,0.0,0.0,0.0,0.0,0.0,0.0,0.0,0.0,0.0,0.0,0.0,0.0,0.0,0.0,0.0,0.0,0.0,0.0,0.0,0.0,0.0,0.0,0.0,0.0,0.0,0.0,0.0,0.0,0.0,0.0,0.0,0.0,0.0,-1.3098,-1.5795,-1.7233,-1.8345,-1.9121,-1.6337,-1.4256,0.0,0.0,0.0,0.0,0.0,0.0,0.0,0.0,0.0,0.0,0.0,0.0,0.0,0.0,0.0,0.0,0.0,0.0,0.0,0.0,0.0,0.0,0.0,0.0,0.0,0.0,0.0,0.0,0.0,0.0,0.0,0.0,0.0,0.0,0.0,0.0,0.0,0.0,0.0,0.0,0.0,0.0,0.0,0.0,0.0,0.0,0.0,0.0,0.0,0.0,0.0,0.0,0.0,0.0,0.0,0.0,0.0,0.0,0.0,0.0,0.0,0.0,0.0,0.0,0.0,0.0,0.0,0.0,0.0,0.0,0.0,0.0,0.0,0.0,0.0,0.0,0.0,0.0,0.0,0.0,0.0,0.0,0.0,0.0,0.0,0.0,0.0,0.0,0.0,0.0,0.0,0.0,0.0,0.0,0.0,0.0,0.0,0.0,0.0,0.0,0.0,0.0,0.0,0.0,0.0,0.0,0.0,0.0,-1.4511,-1.7154,-1.8271,-1.908,-1.9609,-1.8145,-1.5993,0.0,0.0,0.0,0.0,0.0,0.0,0.0,0.0,0.0,0.0,0.0,0.0,0.0,0.0,0.0,0.0,0.0,0.0,0.0,0.0,0.0,0.0,0.0,0.0,0.0,0.0,0.0,0.0,0.0,0.0,0.0,0.0,0.0,0.0,0.0,0.0,0.0,0.0,0.0,0.0,0.0,0.0,0.0,0.0,0.0,0.0,0.0,0.0,0.0,0.0,0.0,0.0,0.0,0.0,0.0,0.0,0.0,0.0,0.0,0.0,0.0,0.0,0.0,0.0,0.0,0.0,0.0,0.0,0.0,0.0,0.0,0.0,0.0,0.0,0.0,0.0,0.0,0.0,0.0,0.0,0.0,0.0,0.0,0.0,0.0,0.0,0.0,0.0,0.0,0.0,0.0,0.0,0.0,0.0,0.0,0.0,0.0,0.0,0.0,0.0,0.0,0.0,0.0,0.0,0.0,0.0,0.0,0.0,-1.4335,-1.6591,-1.773,-1.8727,-1.9675,-1.8145,-1.6195,0.0,0.0,0.0,0.0,0.0,0.0,0.0,0.0,0.0,0.0,0.0,0.0,0.0,0.0,0.0,0.0,0.0,0.0,0.0,0.0,0.0,0.0,0.0,0.0,0.0,0.0,0.0,0.0,0.0,0.0,0.0,0.0,0.0,0.0,0.0,0.0,0.0,0.0,0.0,0.0,0.0,0.0,0.0,0.0,0.0,0.0,0.0,0.0,-0.2398,0.0,0.0,0.0,0.0,0.0,0.0,0.0,0.0,0.0,0.0,0.0,0.0,0.0,0.0,0.0,0.0,0.0,0.0,0.0,0.0,0.0,0.0,0.0,0.0,0.0,0.0,0.0,0.0,0.0,0.0,0.0,0.0,0.0,0.0,0.0,0.0,0.0,0.0,0.0,0.0,0.0,0.0,0.0,0.0,0.0,0.0,0.0,0.0,0.0,0.0,0.0,0.0,0.0,0.0,0.0,0.0,0.0,0.0,0.0,-1.4784,-1.7172,-1.7813,-1.8612,-1.9624,-1.8876,-1.7173,0.0,0.0,0.0,0.0,0.0,0.0,0.0,0.0,0.0,0.0,0.0,0.0,0.0,0.0,0.0,0.0,0.0,0.0,0.0,0.0,0.0,0.0,0.0,0.0,0.0,0.0,0.0,0.0,0.0,0.0,0.0,0.0,0.0,0.0,0.0,0.0,0.0,0.0,0.0,0.0,0.0,0.0,0.0,0.0,0.0,0.0,0.0,0.0,0.0,0.0,0.0,0.0,0.0,0.0,0.0,0.0,0.0,0.0,0.0,0.0,0.0,0.0,0.0,0.0,0.0,0.0,0.0,0.0,0.0,0.0,0.0,0.0,0.0,0.0,0.0,0.0,0.0,0.0,0.0,0.0,0.0,0.0,0.0,0.0,0.0,0.0,0.0,0.0,0.0,0.0,0.0,0.0,0.0,0.0,0.0,0.0,0.0,0.0,0.0,0.0,0.0,0.0,0.0,0.0,0.0,0.0,0.0,-1.3254,-1.5306,-1.7956,-1.8092,-1.8612,-1.9654,-1.9705,-1.816,-1.4944,0.0,0.0,0.0,0.0,0.0,0.0,0.0,0.0,0.0,0.0,0.0,0.0,0.0,0.0,0.0,0.0,0.0,0.0,0.0,0.0,0.0,0.0,0.0,0.0,0.0,0.0,0.0,0.0,0.0,0.0,0.0,0.0,0.0,0.0,0.0,0.0,0.0,0.0,-0.3261,-0.358,0.0,0.0,0.0,0.0,0.0,0.0,0.0,0.0,-0.2277,0.0,0.0,0.0,0.0,0.0,0.0,0.0,0.0,0.0,0.0,0.0,0.0,0.0,0.0,0.0,0.0,0.0,0.0,0.0,0.0,0.0,0.0,0.0,0.0,0.0,0.0,0.0,0.0,0.0,0.0,0.0,0.0,0.0,0.0,0.0,0.0,0.0,0.0,0.0,0.0,0.0,0.0,0.0,0.0,0.0,0.0,0.0,0.0,0.0,0.0,0.0,0.0,0.0,0.0,0.0,0.0,-1.2885,-1.3198,-1.4902,-1.7984,-1.8092,-1.8612,-1.9654,-1.9705,-1.816,-1.4972,0.0,0.0,0.0,0.0,0.0,0.0,0.0,0.0,0.0,0.0,0.0,0.0,0.0,0.0,0.0,0.0,0.0,0.0,0.0,0.0,0.0,0.0,0.0,0.0,0.0,0.0,0.0,0.0,0.0,0.0,0.0,0.0,0.0,0.0,0.0,0.0,0.0,0.0,0.0,-0.4207,-0.4285,0.0,0.0,0.0,0.0,0.0,0.0,0.0,0.0,-0.2832,0.0,0.0,0.0,0.0,0.0,0.0,0.0,0.0,0.0,0.0,0.0,0.0,0.0,0.0,0.0,0.0,0.0,0.0,0.0,0.0,0.0,0.0,0.0,0.0,0.0,0.0,0.0,0.0,0.0,0.0,0.0,0.0,0.0,0.0,0.0,0.0,0.0,0.0,0.0,0.0,0.0,0.0,0.0,0.0,0.0,0.0,0.0,0.0,0.0,0.0,0.0,0.0,0.0,0.0,0.0,-1.2719,-1.4111,-1.6023,-1.8426,-1.8496,-1.8893,-1.9624,-1.9031,-1.75,0.0,0.0,0.0,0.0,0.0,0.0,0.0,0.0,0.0,0.0,0.0,0.0,0.0,0.0,0.0,0.0,0.0,0.0,0.0,0.0,0.0,0.0,0.0,0.0,0.0,0.0,0.0,0.0,0.0,0.0,0.0,0.0,0.0,0.0,0.0,0.0,0.0,0.0,0.0,0.0,-0.4405,-0.4554,-0.4408,0.0,0.0,0.0,0.0,0.0,0.0,-0.2979,-0.3073,0.0,0.0,0.0,0.0,0.0,0.0,0.0,0.0,0.0,0.0,0.0,0.0,0.0,0.0,0.0,0.0,0.0,0.0,0.0,0.0,0.0,0.0,0.0,0.0,0.0,0.0,0.0,0.0,0.0,0.0,0.0,0.0,0.0,0.0,0.0,0.0,0.0,0.0,0.0,0.0,0.0,0.0,0.0,0.0,0.0,0.0,0.0,0.0,0.0,0.0,0.0,0.0,0.0,0.0,0.0,-1.2586,-1.4705,-1.6822,-1.8769,-1.8893,-1.9169,-1.966,-1.8538,-1.7077,0.0,0.0,0.0,0.0,0.0,0.0,0.0,0.0,0.0,0.0,0.0,0.0,0.0,0.0,0.0,0.0,0.0,0.0,0.0,0.0,0.0,0.0,0.0,0.0,0.0,0.0,0.0,0.0,0.0,0.0,0.0,0.0,0.0,0.0,0.0,0.0,0.0,0.0,0.0,0.0,0.0,-0.5068,-0.4961,-0.4393,0.0,0.0,0.0,0.0,-0.3475,-0.3595,0.0,0.0,0.0,0.0,0.0,0.0,0.0,0.0,0.0,0.0,0.0,0.0,0.0,0.0,0.0,0.0,0.0,0.0,0.0,0.0,0.0,0.0,0.0,0.0,0.0,0.0,0.0,0.0,0.0,0.0,0.0,0.0,0.0,0.0,0.0,0.0,0.0,0.0,0.0,0.0,0.0,0.0,0.0,0.0,0.0,0.0,0.0,0.0,0.0,0.0,0.0,0.0,0.0,0.0,0.0,0.0,-1.2994,-1.3883,-1.5779,-1.8711,-1.8893,-1.9132,-1.9675,-1.8972,-1.7555,0.0,0.0,0.0,0.0,0.0,0.0,0.0,0.0,0.0,0.0,0.0,0.0,0.0,0.0,0.0,0.0,0.0,0.0,0.0,0.0,0.0,0.0,0.0,0.0,0.0,0.0,0.0,0.0,0.0,0.0,0.0,0.0,0.0,0.0,0.0,0.0,0.0,0.0,0.0,0.0,0.0,-0.6323,-0.5222,-0.5397,-0.5499,0.0,0.0,0.0,-0.523,-0.5141,0.0,0.0,0.0,0.0,0.0,0.0,0.0,0.0,0.0,0.0,0.0,0.0,0.0,0.0,0.0,0.0,0.0,0.0,0.0,0.0,0.0,0.0,0.0,0.0,0.0,0.0,0.0,0.0,0.0,0.0,0.0,0.0,0.0,0.0,0.0,0.0,0.0,0.0,0.0,0.0,0.0,0.0,0.0,0.0,0.0,0.0,0.0,0.0,0.0,0.0,0.0,0.0,0.0,0.0,0.0,-1.1665,-1.3635,-1.5645,-1.7528,-1.9259,-1.9369,-1.9493,-1.9675,-1.8328,-1.677,0.0,0.0,0.0,0.0,0.0,0.0,0.0,0.0,0.0,0.0,0.0,0.0,0.0,0.0,0.0,0.0,0.0,0.0,0.0,0.0,0.0,0.0,0.0,0.0,0.0,0.0,0.0,0.0,0.0,0.0,0.0,0.0,0.0,0.0,0.0,0.0,0.0,0.0,0.0,0.0,0.0,0.0,-0.6471,-0.642,0.0,0.0,0.0,-0.6302,-0.5962,0.0,0.0,0.0,0.0,0.0,0.0,0.0,0.0,0.0,0.0,0.0,0.0,0.0,0.0,0.0,0.0,0.0,0.0,0.0,0.0,0.0,0.0,0.0,0.0,0.0,0.0,0.0,0.0,0.0,0.0,0.0,0.0,0.0,0.0,0.0,0.0,0.0,0.0,0.0,0.0,0.0,0.0,0.0,0.0,0.0,0.0,0.0,0.0,0.0,0.0,0.0,0.0,0.0,0.0,0.0,0.0,0.0,-1.4225,-1.706,-1.8947,-1.966,-1.9705,-1.9705,-1.966,-1.7891,0.0,0.0,0.0,0.0,0.0,0.0,0.0,0.0,0.0,0.0,0.0,0.0,0.0,0.0,0.0,0.0,0.0,0.0,0.0,0.0,0.0,0.0,0.0,0.0,0.0,0.0,0.0,-0.2946,0.0,0.0,0.0,0.0,0.0,0.0,0.0,0.0,0.0,0.0,0.0,0.0,0.0,0.0,-0.6967,-0.7453,-0.7257,-0.7173,0.0,0.0,-0.7101,-0.6807,-0.6725,-0.629,0.0,0.0,0.0,0.0,0.0,0.0,0.0,0.0,0.0,0.0,0.0,0.0,0.0,0.0,0.0,0.0,0.0,0.0,0.0,0.0,0.0,0.0,0.0,0.0,0.0,0.0,0.0,0.0,0.0,0.0,0.0,0.0,0.0,0.0,0.0,0.0,0.0,0.0,0.0,0.0,0.0,0.0,0.0,0.0,0.0,0.0,0.0,0.0,0.0,0.0,0.0,0.0,0.0,0.0,0.0,-1.4744,-1.6977,-1.8649,-1.966,-1.9705,-1.9705,-1.9675,-1.8358,-1.7041,0.0,0.0,0.0,0.0,0.0,0.0,0.0,0.0,0.0,0.0,0.0,0.0,0.0,0.0,0.0,0.0,0.0,0.0,0.0,0.0,0.0,0.0,0.0,0.0,0.0,0.0,0.0,0.0,0.0,0.0,0.0,0.0,0.0,0.0,0.0,0.0,0.0,0.0,0.0,0.0,0.0,-0.7466,-0.7506,-0.7663,-0.7955,0.0,0.0,-0.8267,-0.8237,-0.7902,-0.72,-0.5979,0.0,0.0,0.0,0.0,0.0,0.0,0.0,0.0,0.0,0.0,0.0,0.0,0.0,0.0,0.0,0.0,0.0,0.0,0.0,0.0,0.0,0.0,0.0,0.0,0.0,0.0,0.0,0.0,0.0,0.0,0.0,0.0,0.0,0.0,0.0,0.0,0.0,0.0,0.0,0.0,0.0,0.0,0.0,0.0,0.0,0.0,0.0,0.0,0.0,0.0,0.0,0.0,0.0,-1.3526,-1.4814,-1.7622,-1.9277,-1.9675,-1.9705,-1.9705,-1.969,-1.8807,-1.7341,0.0,0.0,0.0,0.0,0.0,0.0,0.0,0.0,0.0,0.0,0.0,0.0,0.0,0.0,0.0,0.0,0.0,0.0,0.0,0.0,0.0,0.0,0.0,0.0,0.0,0.0,0.0,0.0,-0.3913,-0.3909,-0.4006,0.0,0.0,0.0,0.0,0.0,0.0,0.0,0.0,0.0,0.0,-0.7647,-0.8017,-0.8283,0.0,0.0,-0.8637,-0.8644,-0.8637,-0.8164,-0.7515,-0.6586,-0.6241,0.0,0.0,0.0,0.0,0.0,0.0,0.0,0.0,0.0,0.0,0.0,0.0,0.0,0.0,0.0,0.0,0.0,0.0,0.0,0.0,0.0,0.0,0.0,0.0,0.0,0.0,0.0,0.0,0.0,0.0,0.0,0.0,0.0,0.0,0.0,0.0,0.0,0.0,0.0,0.0,0.0,0.0,0.0,0.0,0.0,0.0,0.0,0.0,0.0,0.0,0.0,0.0,-1.4047,-1.4923,-1.8091,-1.9705,-1.9705,-1.9705,-1.9705,-1.9675,-1.9046,-1.7655,0.0,0.0,0.0,0.0,0.0,0.0,0.0,0.0,0.0,0.0,0.0,0.0,0.0,0.0,0.0,0.0,0.0,0.0,0.0,0.0,0.0,0.0,0.0,0.0,0.0,0.0,0.0,0.0,-0.4419,-0.4372,-0.4208,0.0,0.0,0.0,0.0,0.0,0.0,0.0,0.0,0.0,0.0,-0.8247,-0.8769,-0.8982,-0.9159,-0.9361,-0.9211,-0.9113,-0.9113,-0.8558,-0.7911,-0.7247,0.0,0.0,0.0,0.0,0.0,0.0,0.0,0.0,0.0,0.0,0.0,0.0,0.0,0.0,0.0,0.0,0.0,0.0,0.0,0.0,0.0,0.0,0.0,0.0,0.0,0.0,0.0,0.0,0.0,0.0,-0.7959,0.0,0.0,0.0,0.0,0.0,0.0,0.0,0.0,0.0,0.0,0.0,0.0,0.0,0.0,0.0,0.0,0.0,0.0,0.0,0.0,0.0,0.0,0.0,-1.5299,-1.8208,-1.9705,-1.9705,-1.9705,-1.9705,-1.9675,-1.9061,-1.8074,-1.6652,0.0,0.0,0.0,0.0,0.0,0.0,0.0,0.0,0.0,0.0,0.0,0.0,0.0,0.0,0.0,0.0,0.0,0.0,0.0,0.0,0.0,0.0,0.0,0.0,0.0,0.0,-0.5059,-0.4618,-0.4216,0.0,0.0,0.0,0.0,0.0,0.0,0.0,0.0,0.0,0.0,-0.8565,-0.9475,-0.9746,-0.9755,-1.0012,-1.061,-1.0167,-0.9762,-0.9769,-0.9235,-0.8597,0.0,0.0,0.0,0.0,0.0,0.0,0.0,0.0,0.0,0.0,0.0,0.0,0.0,0.0,0.0,0.0,0.0,0.0,0.0,0.0,0.0,0.0,0.0,0.0,0.0,0.0,0.0,-1.2561,-1.1527,0.0,0.0,0.0,0.0,0.0,0.0,0.0,0.0,0.0,0.0,0.0,-1.6817,-1.8343,0.0,0.0,0.0,0.0,0.0,0.0,0.0,0.0,0.0,0.0,0.0,0.0,-1.483,-1.6016,-1.8431,-1.9705,-1.9705,-1.9705,-1.9705,-1.969,-1.948,-1.8328,-1.6159,0.0,0.0,0.0,0.0,0.0,0.0,0.0,0.0,0.0,0.0,0.0,0.0,0.0,0.0,0.0,0.0,0.0,0.0,0.0,0.0,0.0,0.0,0.0,0.0,0.0,-0.5098,0.0,0.0,0.0,0.0,0.0,0.0,0.0,0.0,0.0,0.0,0.0,-0.7874,-0.8975,-0.9651,-1.0173,-1.0418,-1.0466,-1.0568,0.0,0.0,0.0,0.0,0.0,0.0,0.0,0.0,0.0,0.0,0.0,0.0,0.0,0.0,-0.8063,-0.6713,-0.625,-0.6102,-0.6259,0.0,0.0,0.0,0.0,0.0,0.0,0.0,0.0,0.0,0.0,0.0,0.0,0.0,0.0,-1.5111,0.0,-1.4045,0.0,0.0,0.0,0.0,0.0,0.0,0.0,0.0,-1.7999,-1.9106,-1.9151,-2.0453,-2.0378,0.0,-1.8638,-1.7101,0.0,0.0,0.0,0.0,0.0,0.0,0.0,0.0,-1.5595,-1.6834,-1.8723,-1.9705,-1.9705,-1.9705,-1.9705,-1.969,-1.9465,-1.8433,-1.6503,-1.5186,-1.3381,0.0,0.0,0.0,0.0,0.0,0.0,0.0,0.0,0.0,0.0,0.0,0.0,0.0,0.0,0.0,0.0,0.0,0.0,0.0,0.0,0.0,0.0,0.0,-0.5098,0.0,0.0,0.0,0.0,0.0,0.0,0.0,0.0,0.0,-0.708,-0.8049,-0.9173,-1.0174,-1.0646,-1.0994,-1.1379,0.0,0.0,0.0,0.0,0.0,0.0,0.0,-1.1006,-1.1006,-1.0806,-1.0645,-1.0567,-1.0805,-1.0923,-1.0663,0.0,0.0,-0.8037,-0.7291,-0.7029,-0.7174,-0.7251,-0.7268,-0.7455,-0.7575,-0.7596,0.0,0.0,0.0,0.0,0.0,0.0,0.0,0.0,-1.7309,-1.7339,0.0,-1.6548,0.0,0.0,0.0,0.0,0.0,0.0,0.0,0.0,-2.0827,-2.1769,-2.1739,-2.1784,-2.1769,-2.1724,-2.165,-2.0976,-1.9525,-1.5919,0.0,0.0,0.0,0.0,0.0,0.0,-1.6231,-1.7712,-1.9016,-1.9705,-1.9705,-1.9705,-1.9705,-1.9675,-1.9091,-1.8448,-1.7727,-1.6533,-1.5175,-1.3572,-1.1454,0.0,0.0,0.0,0.0,0.0,0.0,0.0,0.0,0.0,0.0,0.0,0.0,0.0,0.0,0.0,0.0,0.0,0.0,0.0,0.0,-0.5108,0.0,0.0,0.0,0.0,0.0,0.0,0.0,0.0,0.0,0.0,-0.7953,-0.9639,-1.1012,-1.1081,0.0,0.0,0.0,0.0,-1.2785,-1.3362,-1.3277,-1.3123,-1.3132,-1.2575,-1.218,-1.2133,0.0,0.0,-1.1805,-1.1998,-1.1944,-1.1243,-1.1412,-1.1223,-1.0081,-0.9112,-0.848,-0.8493,-0.8516,-0.847,-0.8491,-0.8707,-0.886,-2.2906,0.0,0.0,0.0,0.0,-2.0976,-2.162,-2.2596,-2.2416,-2.164,-2.0528,-2.0168,0.0,0.0,0.0,0.0,0.0,0.0,-2.0677,-2.0946,-2.2877,-2.3535,-2.3071,-2.3565,-2.3295,-2.2413,-2.2398,-2.1949,-2.1096,-1.9989,-1.767,-1.4288,0.0,0.0,0.0,0.0,-1.7501,-1.8418,-1.9256,-1.9705,-1.9705,-1.9705,-1.9705,-1.9705,-1.951,-1.9091,-1.8448,-1.8059,-1.6709,-1.4332,-1.2922,0.0,0.0,0.0,0.0,0.0,0.0,0.0,0.0,0.0,0.0,0.0,0.0,0.0,0.0,0.0,0.0,0.0,0.0,0.0,-0.5566,-0.5596,-0.5957,0.0,0.0,0.0,0.0,0.0,0.0,0.0,0.0,0.0,-1.08,-1.1291,-1.1999,0.0,0.0,-1.338,-1.3208,-1.3437,-1.3691,-1.3893,0.0,0.0,0.0,-1.3638,-1.353,-1.353,-1.3521,-1.3483,-1.3415,-1.3455,-1.3446,-1.3203,-1.2886,-1.2546,-1.2191,-1.1042,-1.0152,-1.0128,-1.012,-1.012,-1.0128,-1.0207,-1.0218,-2.6841,-2.5332,-2.3849,-2.3625,-2.4252,-2.4238,-2.4687,-2.539,-2.5136,-2.4492,-2.361,-2.3086,-2.2113,-2.0789,-2.0251,0.0,0.0,0.0,-2.2862,-2.2906,-2.4298,-2.4807,-2.4448,-2.4776,-2.4612,-2.3864,-2.3834,-2.349,-2.2847,-2.2577,-2.0782,-1.7625,0.0,0.0,-1.7161,-1.779,-1.8583,-1.945,-1.9615,-1.9705,-1.9705,-1.9705,-1.9705,-1.9705,-1.9705,-1.951,-1.9106,-1.8837,-1.7784,-1.5832,-1.4383,-1.2533,0.0,0.0,0.0,0.0,0.0,0.0,0.0,0.0,0.0,0.0,0.0,-0.5979,0.0,0.0,0.0,0.0,-0.591,-0.613,-0.6724,-0.6959,0.0,0.0,0.0,0.0,0.0,0.0,0.0,-1.1132,-1.2215,-1.2995,-1.3091,-1.3096,-1.3347,-1.3931,-1.4082,-1.4048,-1.4023,0.0,-1.4394,-1.4394,-1.4531,-1.4583,-1.4639,-1.4583,-1.4639,-1.4639,-1.4639,-1.4639,-1.4583,-1.4639,-1.4525,-1.4379,-1.4048,-1.3727,-1.3558,-1.2723,-1.1878,-1.1408,-1.1311,-1.1311,-1.1303,-1.132,-1.127,-2.9858,-2.9687,-2.7111,-2.6363,-2.6811,-2.6826,-2.6826,-2.6782,-2.6183,-2.6243,-2.6647,-2.542,-2.5136,-2.5525,-2.4328,0.0,-2.3789,-2.4433,-2.4731,-2.4761,-2.5465,-2.5734,-2.5689,-2.5689,-2.5659,-2.56,-2.56,-2.53,-2.4627,-2.4014,-2.3086,-2.1919,-2.0587,-2.0183,-2.0617,-1.9525,-1.9555,-2.0767,-2.0109,-1.9786,-1.9705,-1.9705,-1.9705,-1.9705,-1.9705,-1.966,-1.9636,-1.9016,-1.8373,-1.7608,-1.564,-1.3789,-1.217,0.0,0.0,0.0,0.0,0.0,0.0,0.0,0.0,0.0,0.0,0.0,0.0,0.0,0.0,0.0,-0.739,0.0,-0.8406,-0.8874,0.0,0.0,0.0,-1.0018,-1.0488,-1.1645,-1.2547,-1.2978,0.0,0.0,0.0,0.0,-1.4834,-1.4834,-1.4492,-1.4365,-1.4736,-1.4805,-1.4834,-1.4834,-1.5156,-1.54,-1.5322,-1.5332,-1.5332,-1.5332,-1.542,-1.5371,-1.5361,-1.5371,-1.5234,-1.4902,-1.4834,-1.4727,-1.4253,-1.415,-1.3841,-1.2624,-1.2334,-1.2291,-1.2265,-1.2312,-1.2201,-3.2125,-3.241,-3.0805,-2.9639,-2.8876,-2.8861,-2.8876,-2.8846,-2.8712,-2.8442,-2.8068,-2.7245,-2.6408,-2.5585,-2.527,-2.5136,-2.5166,-2.5824,-2.6123,-2.6168,-2.6797,-2.6856,-2.6378,-2.6363,-2.6093,-2.563,-2.56,-2.554,-2.5345,-2.4717,-2.4194,-2.3879,-2.2607,-2.1545,-2.0752,-2.0887,-2.1126,-2.147,-2.0812,-2.0213,-1.972,-1.9705,-1.9705,-1.9705,-1.9705,-1.945,-1.8972,-1.8792,-1.813,-1.6964,-1.5484,-1.4184,-1.3179,-1.0556,0.0,0.0,0.0,0.0,0.0,0.0,0.0,0.0,0.0,-0.9107,-0.7198,0.0,-0.9179,0.0,-0.9672,-0.997,-1.0057,-1.0133,0.0,0.0,-1.1573,-1.2181,-1.2712,-1.3524,-1.3979,-1.3831,-1.4307,-1.4668,-1.4766,-1.5068,-1.5264,-1.5264,-1.5166,-1.5029,-1.4844,-1.5068,-1.5264,-1.5264,-1.5342,-1.542,-1.542,-1.542,-1.542,-1.542,-1.542,-1.542,-1.542,-1.542,-1.5381,-1.5283,-1.5264,-1.5215,-1.5107,-1.5107,-1.4974,-1.4649,-1.4081,-1.3638,-1.3638,-1.3594,-1.3619,-3.4182,-3.4455,-3.3721,-3.302,-3.2307,-3.1374,-3.093,-3.0902,-3.0601,-3.0144,-2.9438,-2.8778,-2.8053,-2.7395,-2.738,-2.7395,-2.738,-2.7455,-2.7485,-2.7485,-2.7545,-2.7415,-2.7021,-2.7021,-2.6826,-2.6497,-2.6482,-2.6333,-2.6033,-2.5674,-2.5345,-2.5,-2.4044,-2.3191,-2.2473,-2.1949,-2.1844,-2.2128,-2.1186,-2.0528,-2.0154,-1.9839,-1.9705,-1.9705,-1.9705,-1.9525,-1.9151,-1.8867,-1.819,-1.7204,-1.6149,-1.5065,-1.3901,-1.1889,-1.0534,0.0,0.0,0.0,0.0,0.0,0.0,0.0,0.0,0.0,0.0,0.0,-1.0743,0.0,-1.1378,-1.1826,-1.2087,-1.2496,-1.2913,-1.3278,-1.392,-1.4457,-1.4753,-1.5322,-1.5588,-1.5437,-1.5758,-1.605,-1.605,-1.593,-1.5864,-1.5864,-1.5584,-1.5332,-1.5137,-1.5273,-1.542,-1.542,-1.542,-1.542,-1.542,-1.542,-1.542,-1.542,-1.542,-1.542,-1.542,-1.542,-1.542,-1.542,-1.542,-1.542,-1.542,-1.542,-1.542,-1.5352,-1.5049,-1.4746,-1.4707,-1.4642,-1.4668,-3.5876,-3.6023,-3.5873,-3.5894,-3.5921,-3.3957,-3.3072,-3.2814,-3.2034,-3.1316,-3.0546,-2.9977,-2.9654,-2.9594,-2.9594,-2.9594,-2.9549,-2.8981,-2.8727,-2.8682,-2.8023,-2.776,-2.7745,-2.767,-2.756,-2.756,-2.756,-2.7275,-2.6722,-2.6647,-2.6303,-2.5719,-2.5076,-2.4657,-2.4507,-2.2921,-2.2278,-2.2694,-2.153,-2.0887,-2.0707,-2.0124,-1.9779,-1.9705,-1.9705,-1.9681,-1.9555,-1.9016,-1.8403,-1.7712,-1.7113,-1.6083,-1.4587,-1.3502,-1.2526,0.0,-1.0651,0.0,0.0,0.0,0.0,0.0,0.0,0.0,0.0,-1.2469,-1.2442,-1.2381,-1.3007,-1.3654,-1.4246,-1.5153,-1.5731,-1.5646,-1.6234,-1.6592,-1.6514,-1.6933,-1.7164,-1.7059,-1.7375,-1.7578,-1.7501,-1.7078,-1.6747,-1.6618,-1.6355,-1.6105,-1.5742,-1.5547,-1.542,-1.542,-1.542,-1.542,-1.542,-1.542,-1.542,-1.542,-1.542,-1.542,-1.542,-1.542,-1.542,-1.542,-1.542,-1.542,-1.542,-1.542,-1.542,-1.541,-1.5371,-1.5352,-1.5352,-1.5332,-1.5283,-3.6358,-3.731,-3.6244,-3.6457,-3.7417,-3.6419,-3.5351,-3.4222,-3.2958,-3.1689,-3.0533,-3.0383,-3.0058,-2.9594,-2.9594,-2.9594,-2.9633,-2.946,-2.94,-2.9355,-2.8712,-2.8412,-2.8368,-2.788,-2.756,-2.756,-2.756,-2.7565,-2.738,-2.6841,-2.6527,-2.6393,-2.5749,-2.5151,-2.4597,0.0,0.0,0.0,-2.2443,-2.1784,-2.0767,-2.0587,-2.0243,-1.972,-1.9705,0.0,-1.8912,-1.8762,-1.8403,-1.7742,-1.7254,0.0,0.0,0.0,0.0,0.0,0.0,0.0,0.0,0.0,0.0,0.0,-1.317,-1.3355,-1.3144,-1.425,-1.4799,-1.445,-1.5653,-1.6352,-1.5978,-1.6527,-1.6783,-1.6325,-1.7151,-1.7557,-1.7001,-1.7792,-1.8135,-1.7553,-1.7577,-1.7644,-1.7733,-1.7879,-1.7849,-1.7291,-1.7954,-1.823,-1.7509,-1.6316,-1.5498,-1.542,-1.542,-1.542,-1.542,-1.542,-1.542,-1.542,-1.542,-1.542,-1.542,-1.542,-1.542,-1.542,-1.542,-1.542,-1.542,-1.542,-1.542,-1.542,-1.542,-1.542,-1.542,-1.542,-1.5381,-3.8257,0.0,-3.8212,-3.8353,0.0,-3.8187,-3.7486,-3.6701,-3.4888,-3.3346,-3.2028,-3.168,-3.1363,-3.1058,-3.0704,-3.0537,-3.0522,-3.0193,-3.0043,-2.9998,-2.9385,-2.9086,-2.9071,-2.8397,-2.8068,-2.8068,-2.7739,-2.756,-2.7545,-2.7295,-2.7066,-2.7051,-2.6422,-2.5764,-2.5121,-2.4403,-2.3804,-2.3131,-2.2873,-2.2353,-2.1695,-2.1051,-2.0543,-2.0198,0.0,0.0,0.0,0.0,0.0,0.0,0.0,0.0,0.0,0.0,0.0,-1.4672,-1.395,-1.3441,-1.3251,-1.3483,-1.386,-1.4412,-1.4965,-1.5028,-1.4488,-1.5467,-1.6107,-1.6174,-1.6942,-1.7397,-1.7309,-1.7811,-1.8044,-1.7771,-1.8444,-1.8761,-1.8514,-1.8875,-1.9097,-1.8804,-1.8952,-1.9107,-1.9107,-1.9291,-1.9264,-1.8881,-1.9014,-1.9026,-1.8116,-1.7088,-1.6252,-1.5566,-1.542,-1.542,-1.542,-1.542,-1.542,-1.542,-1.542,-1.542,-1.542,-1.542,-1.542,-1.542,-1.542,-1.542,-1.542,-1.542,-1.542,-1.542,-1.542,-1.542,-1.542,-1.542,-1.542,-3.9952,-4.0087,-4.0087,-4.0087,-4.002,-3.9428,-3.9106,-3.8854,0.0,0.0,0.0,-3.3228,-3.2912,-3.2734,-3.2007,-3.1697,-3.1652,-3.1012,-3.0687,-3.0657,-3.0028,-2.9744,-2.9714,-2.9086,-2.8786,-2.8742,-2.8068,-2.7754,-2.7739,-2.7634,-2.756,-2.758,-2.7021,-2.6378,-2.557,-2.4268,-2.3595,-2.358,-2.3101,-2.2787,-2.2679,-2.15,-2.0842,-2.0722,-2.0049,-1.9705,-1.969,-1.9166,-1.8882,-1.8867,-1.8358,-1.7966,-1.7763,-1.7533,-1.711,-1.652,-1.6245,-1.5856,-1.5376,-1.531,-1.5473,-1.5806,-1.6258,-1.6321,-1.5869,-1.6358,-1.6861,-1.735,-1.7551,-1.7877,-1.8317,-1.8844,-1.9171,-1.9171,-1.9547,-1.9798,-1.9798,-1.9798,-1.9784,-1.9974,-2.031,-2.0702,-2.0749,-2.0765,-2.0682,-2.0521,-2.0276,-1.9624,-1.867,-1.7772,-1.6886,-1.6197,-1.593,-1.5684,-1.5664,-1.5703,-1.5644,-1.5723,-1.5693,-1.5644,-1.5644,-1.5586,-1.5537,-1.5566,-1.5478,-1.542,-1.542,-1.542,-1.542,-1.542,-1.542,-1.542,-1.542,-1.542,-1.542,-3.9489,-4.0087,-4.0087,-4.0087,-4.0087,-3.9969,-3.9563,-3.8888,-3.7336,-3.5869,-3.4547,-3.4441,-3.4069,-3.3443,-3.2734,-3.2453,-3.2367,-3.169,-3.1332,0.0,-3.0687,-3.0372,-3.0342,-2.9729,-2.9445,-2.9385,-2.8771,-2.8457,-2.8397,-2.7859,-2.756,-2.761,-2.7535,-2.6811,-2.56,-2.4268,-2.3595,-2.3595,-2.3505,-2.3206,-2.2682,-2.1934,-2.1276,-2.0722,-2.0064,-1.9705,-1.969,-1.96,-1.9555,-1.9555,-1.945,-1.8995,-1.8118,-1.8347,-1.8074,-1.7255,-1.7416,-1.7418,-1.6968,-1.6939,-1.6798,-1.6426,-1.6471,-1.6484,-1.6434,-1.6923,-1.7287,-1.7413,-1.8216,-1.877,-1.8932,-1.9371,-1.966,-1.9673,-1.9761,-1.9798,-1.9798,-1.9798,-1.9987,-2.0451,-2.0602,-2.0891,-2.1343,-2.1731,-2.1707,-2.1272,-2.156,-2.2006,-2.0637,-1.8483,-1.7245,-1.74,-1.6969,-1.6605,-1.6631,-1.6533,-1.6589,-1.649,-1.6547,-1.6498,-1.6436,-1.6182,-1.5986,-1.5967,-1.5732,-1.5498,-1.5449,-1.542,-1.5439,-1.5439,-1.542,-1.542,-1.5468,-1.5468,-1.5468,-3.9782,-4.007,-4.0087,-4.0087,-4.0087,-4.0087,-3.9901,-3.9563,-3.8875,-3.7803,-3.6405,-3.5602,-3.483,-3.4138,-3.3017,-3.2342,-3.2007,-3.164,-3.1467,-3.1452,-3.1195,-3.1076,-3.1001,-3.0402,-3.0073,-3.0043,-2.943,-2.8951,-2.8592,-2.8263,-2.7934,-2.7625,-2.723,-2.6737,-2.6093,-2.4822,-2.4148,-2.4148,-2.3789,-2.346,-2.3176,-2.2562,-2.1919,-2.1261,-2.0602,-2.0064,-1.9705,-1.9705,-1.9705,-1.9705,-1.9705,-1.9453,-1.9028,-1.9155,-1.8927,-1.8238,-1.835,-1.8124,-1.734,-1.7034,-1.6752,-1.6534,-1.6823,-1.6986,-1.6986,-1.7225,-1.7626,-1.8204,-1.8769,-1.9108,-1.9409,-1.966,-1.9798,-1.9798,-1.9798,-1.9798,-1.9798,-1.9798,-2.0037,-2.0589,-2.0928,-2.133,-2.1857,-2.241,-2.263,-2.2212,-2.2445,-2.2323,-2.2164,-2.0302,-1.8785,-1.8725,-1.8351,-1.8169,-1.8129,-1.8108,-1.7934,-1.7513,-1.7388,-1.7211,-1.6845,-1.6523,-1.6445,-1.6416,-1.624,-1.6045,-1.589,-1.5762,-1.5674,-1.5439,-1.542,-1.5526,-1.5864,-1.5979,-1.5864,-4.0087,-4.0087,-4.0087,-4.0087,-4.0087,-4.0087,-4.0087,-4.0087,-4.007,-3.9445,-3.8284,-3.7009,-3.5898,-3.4844,-3.3578,-3.2516,-3.1814,-3.1739,-3.1625,-3.1539,-3.1697,-3.164,-3.1495,-3.0971,-3.0746,-3.0657,-3.0088,-2.9445,-2.8876,-2.8682,-2.8248,-2.7625,-2.6916,-2.6602,-2.6572,-2.5285,-2.4582,-2.4537,-2.3939,-2.3595,-2.358,-2.2981,-2.2484,-2.1919,-2.1126,-2.0468,-1.9944,-1.9765,-1.9705,-1.9705,-1.9705,-1.9705,-1.9705,-1.9705,-1.953,-1.9132,-1.908,-1.865,-1.776,-1.7319,-1.7016,-1.6939,-1.7435,-1.7784,-1.7785,-1.7752,-1.8091,-1.8833,-1.9071,-1.9384,-1.9698,-1.9798,-1.9798,-1.9798,-1.9798,-1.9798,-1.9811,-1.9924,-2.0278,-2.0832,-2.133,-2.187,-2.241,-2.2862,-2.3027,-2.2967,-2.2567,-2.2506,-2.2823,-2.1928,-2.0919,-2.0349,-1.9881,-1.9576,-1.958,-1.9553,-1.926,-1.8663,-1.8395,-1.8081,-1.75,-1.7175,-1.6992,-1.71,-1.7063,-1.703,-1.687,-1.6849,-1.6736,-1.6458,-1.6355,-1.6341,-1.6673,-1.6754,-1.6482,-4.0087,-4.0087,-4.0087,-4.0087,-4.0087,-4.0087,-4.0087,-4.0087,-4.0087,-4.0087,-3.9749,-3.9058,-3.7503,-3.5695,-3.4792,-3.3677,-3.2484,-3.2492,-3.2104,-3.164,-3.2176,-3.2176,-3.1582,-3.1392,-3.1377,-3.1273,-3.0731,-3.0103,-2.949,-2.8876,-2.8248,-2.7625,-2.6901,-2.6617,-2.6467,-2.5315,-2.4597,-2.4582,-2.3954,-2.3595,-2.3565,-2.3038,-2.2694,-2.2619,-2.138,-2.0692,-2.0572,-2.0019,-1.9705,-1.9705,-1.9705,-1.9705,-1.9705,-1.9705,-1.969,-1.9603,-1.9617,-1.9369,-1.8822,-1.8805,-1.8601,-1.817,-1.86,-1.8864,-1.8854,-1.8857,-1.8894,-1.9058,-1.9472,-1.9723,-1.9786,-1.9798,-1.9798,-1.9811,-1.9849,-1.9798,-1.9899,-2.0418,-2.0961,-2.1355,-2.187,-2.2435,-2.2887,-2.3075,-2.3125,-2.3125,-2.2944,-2.2884,-2.3017,-2.2884,-2.2604,-2.2335,-2.149,-2.0653,-2.0556,-2.0508,-2.0448,-2.0292,-1.9717,-1.9263,-1.8843,-1.8137,-1.7575,-1.8331,-1.8208,-1.8214,-1.8632,-1.8974,-1.87,-1.8046,-1.7917,-1.7989,-1.7668,-1.7468,-1.7191,-4.0087,-4.0087,-4.0087,-4.0087,-4.0087,-4.0087,-4.0087,-4.0087,-4.0087,-4.0087,-4.0054,-3.9749,-3.842,-3.627,-3.5197,-3.3939,-3.26,-3.2552,-3.2437,-3.2176,-3.2492,-3.2437,-3.212,-3.1682,-3.1467,-3.1467,-3.124,-3.0776,-3.0058,-2.9101,-2.8263,-2.767,-2.729,-2.7156,-2.7096,-2.6258,-2.56,-2.5149,-2.4537,-2.4014,-2.3625,-2.3355,-2.3041,-2.2709,-2.2143,-2.147,-2.0782,-2.0423,-2.0109,-1.9735,-1.9705,-1.9705,-1.9705,-1.9705,-1.9705,-1.972,-1.9804,-1.9715,-1.9522,-1.9598,-1.957,-1.9312,-1.9512,-1.964,-1.9603,-1.9533,-1.9484,-1.9522,-1.9685,-1.9798,-1.9798,-1.9798,-1.9798,-1.9849,-2.0177,-2.0404,-2.0326,-2.1053,-2.1648,-2.1964,-2.2171,-2.2523,-2.2987,-2.3125,-2.3125,-2.3125,-2.3125,-2.3125,-2.3125,-2.3125,-2.3125,-2.3005,-2.2494,-2.2175,-2.2051,-2.2051,-2.1865,-2.1428,-2.1101,-2.0782,-2.0041,-1.9771,-1.9469,-1.9768,-1.955,-1.9423,-1.9532,-1.9648,-1.9524,-1.9202,-1.9067,-1.8858,-1.7844,-1.7961,-1.8004,-4.0087,-4.0087,-4.0087,-4.0087,-4.0087,-4.0087,-4.0087,-4.0087,-4.0087,-4.0087,-4.0087,-4.0087,-3.9101,-3.7349,-3.6151,-3.4716,-3.3269,-3.3326,-3.3212,-3.298,-3.3039,-3.2986,-3.2586,-3.2064,-3.1796,-3.1754,-3.1582,-3.1165,-3.0432,-2.922,-2.8338,-2.7889,-2.7664,-2.756,-2.75,-2.6916,-2.6363,-2.5854,-2.5076,-2.4373,-2.3924,-2.3699,-2.337,-2.2966,-2.2798,-2.2203,-2.1306,-2.1081,-2.0677,-2.0019,-1.9959,-1.9884,-1.9705,-1.9869,-2.0049,-2.0243,-2.0333,-2.0385,-2.04,-2.0638,-2.0713,-2.0553,-2.0607,-2.0684,-2.0454,-2.0213,-2.008,-2.0029,-1.9901,-1.9798,-1.9798,-1.9798,-1.9861,-2.0024,-2.0426,-2.0611,-2.0891,-2.1579,-2.2046,-2.2259,-2.2447,-2.2673,-2.3025,-2.3125,-2.3125,-2.3125,-2.3125,-2.3125,-2.3125,-2.3125,-2.3125,-2.3125,-2.3078,-2.3065,-2.3125,-2.2944,-2.2763,-2.2445,-2.2002,-2.1553,-2.0974,-2.0846,-2.0835,-2.0635,-2.0812,-2.1083,-2.1158,-2.0956,-2.0598,-2.0252,-2.006,-1.9845,-1.9215,-1.9257,-1.9324,-4.0087,-4.0087,-4.0087,-4.0087,-4.0087,-4.0087,-4.0087,-4.0087,-4.0087,-4.0087,-4.0087,-4.0087,-3.9594,-3.876,-3.8064,-3.6645,-3.4851,-3.5161,-3.4704,-3.3681,-3.4186,-3.3786,-3.2641,-3.2532,-3.2532,-3.2477,-3.2007,-3.1279,-3.0503,-2.9304,-2.8592,-2.8502,-2.7889,-2.756,-2.7535,-2.6961,-2.6587,-2.6378,-2.536,-2.4582,-2.4492,-2.3939,-2.361,-2.3475,-2.2996,-2.2652,-2.2473,-2.1979,-2.1335,-2.0654,-2.0662,-2.0393,-1.9854,-2.0333,-2.0932,-2.1455,-2.1565,-2.161,-2.167,-2.2125,-2.2273,-2.1831,-2.2055,-2.2229,-2.1586,-2.1059,-2.0733,-2.0759,-2.0246,-1.9913,-1.9874,-1.9911,-2.0112,-2.0552,-2.0209,-2.0506,-2.1393,-2.1838,-2.2068,-2.2339,-2.2749,-2.2952,-2.3113,-2.3125,-2.3125,-2.3125,-2.3125,-2.3125,-2.3125,-2.3125,-2.3125,-2.3125,-2.3125,-2.3125,-2.3125,-2.3125,-2.3065,-2.2823,-2.2384,-2.1939,-2.1616,-2.1365,-2.1428,-2.1553,-2.1741,-2.2113,-2.2665,-2.2782,-2.2342,-2.1935,-2.1383,-2.1032,-2.0409,-2.1058,-2.0914,-4.0087,-4.0087,-4.0087,-4.0087,-4.0087,-4.0087,-4.0087,-4.0087,-4.0087,-4.0087,-4.0087,-4.0087,-3.9952,-3.9645,-3.9462,-3.7876,-3.5519,-3.5591,-3.5186,-3.4333,-3.4479,-3.4333,-3.3887,-3.3443,-3.3251,-3.3182,-3.2971,-3.2253,-3.1229,-3.0324,-2.9422,-2.8584,-2.797,-2.756,-2.758,-2.74,-2.7021,-2.6587,-2.6093,-2.5495,-2.4657,-2.4388,-2.4059,-2.3625,-2.34,-2.3071,-2.2697,-2.2484,-2.2024,-2.1365,-2.135,-2.1246,-2.1036,-2.1201,-2.144,-2.171,-2.2084,-2.2323,-2.2398,-2.2906,-2.3165,-2.295,-2.273,-2.2649,-2.23,-2.1771,-2.121,-2.0885,-2.0976,-2.0836,-2.0444,-2.0351,-2.0577,-2.1091,-2.1213,-2.1356,-2.1951,-2.2414,-2.2752,-2.2802,-2.3037,-2.3125,-2.3125,-2.3125,-2.3125,-2.3125,-2.3125,-2.3125,-2.3125,-2.3125,-2.3125,-2.3125,-2.3125,-2.3125,-2.3125,-2.3125,-2.3065,-2.3065,-2.2811,-2.2689,-2.2433,-2.2372,-2.2372,-2.231,-2.2506,-2.2567,-2.3053,-2.3027,-2.2887,-2.2535,-2.2058,-2.192,-2.1543,-2.1732,-2.1393,-4.0087,-4.0087,-4.0087,-4.0087,-4.0087,-4.0087,-4.0087,-4.0087,-4.0087,-4.0087,-4.0087,-4.0087,-4.0087,-4.0087,-4.0087,-3.8957,-3.6852,-3.6539,-3.6006,-3.5324,-3.5058,-3.48,-3.4528,-3.4153,-3.3937,-3.3937,-3.3937,-3.3326,-3.2233,-3.1303,-3.0344,-2.928,-2.8364,-2.781,-2.7625,-2.756,-2.732,-2.6946,-2.6707,-2.6048,-2.5015,-2.4686,-2.4298,-2.3714,-2.3595,-2.343,-2.2981,-2.2981,-2.2667,-2.2128,-2.2009,-2.2024,-2.2009,-2.2009,-2.2113,-2.2323,-2.2727,-2.3008,-2.3011,-2.337,-2.3595,-2.361,-2.3231,-2.2965,-2.2965,-2.2377,-2.1949,-2.1779,-2.1542,-2.1485,-2.1581,-2.1357,-2.1355,-2.1719,-2.1906,-2.2122,-2.2548,-2.2899,-2.3088,-2.31,-2.3113,-2.3125,-2.3125,-2.3125,-2.3125,-2.3125,-2.3125,-2.3125,-2.3125,-2.3125,-2.3125,-2.3125,-2.3125,-2.3125,-2.3125,-2.3125,-2.3125,-2.3065,-2.3065,-2.3065,-2.3125,-2.3125,-2.3125,-2.3125,-2.3125,-2.3125,-2.3125,-2.3125,-2.2924,-2.2623,-2.2585,-2.251,-2.2272,-2.2121,-2.182,-4.0087,-4.0087,-4.0087,-4.0087,-4.0087,-4.0087,-4.0087,-4.0087,-4.0087,-4.0087,-4.0087,-4.0087,-4.0087,-4.0087,-4.0087,-3.9614,-3.8806,-3.8082,-3.7388,-3.6679,-3.5954,-3.5325,-3.4787,-3.4673,-3.4592,-3.4592,-3.4592,-3.4235,-3.3473,-3.2238,-3.1242,-3.0464,-2.9242,-2.8363,-2.766,-2.7795,-2.771,-2.748,-2.7045,-2.6366,-2.5644,-2.5137,-2.4537,-2.3846,-2.3771,-2.3711,-2.3593,-2.3535,-2.3251,-2.2757,-2.2724,-2.2682,-2.2667,-2.2682,-2.2921,-2.334,-2.355,-2.3565,-2.355,-2.3565,-2.3595,-2.3595,-2.3551,-2.3508,-2.3421,-2.3082,-2.2951,-2.3131,-2.261,-2.2194,-2.2942,-2.2698,-2.2304,-2.2309,-2.2218,-2.2418,-2.2877,-2.3113,-2.3125,-2.3125,-2.3125,-2.3125,-2.3125,-2.3125,-2.3125,-2.3125,-2.3201,-2.3201,-2.3175,-2.3213,-2.3188,-2.3125,-2.3125,-2.3125,-2.3125,-2.3125,-2.3125,-2.3065,-2.3065,-2.3125,-2.3125,-2.3125,-2.3125,-2.3125,-2.3125,-2.3125,-2.3125,-2.3125,-2.3125,-2.2937,-2.3012,-2.2987,-2.2811,-2.2611,-2.2498,-4.0087,-4.0087,-4.0087,-4.0087,-4.0087,-4.0087,-4.0087,-4.0087,-4.0087,-4.0087,-4.0087,-4.0087,-4.0087,-4.0087,-4.0087,-3.9952,-3.9698,-3.8988,-3.8261,-3.7533,-3.6772,-3.6291,-3.6034,-3.5551,-3.5299,-3.5299,-3.5316,-3.4941,-3.4218,-3.3368,-3.2368,-3.123,-3.0323,-2.9547,-2.8858,-2.8795,-2.8685,-2.824,-2.8038,-2.7403,-2.6429,-2.6504,-2.6014,-2.4973,-2.4906,-2.4691,-2.4188,-2.3794,-2.3505,-2.3295,-2.331,-2.331,-2.331,-2.3325,-2.34,-2.3565,-2.3595,-2.3595,-2.3595,-2.3595,-2.3595,-2.3595,-2.3595,-2.3595,-2.367,-2.3852,-2.3846,-2.3902,-2.3971,-2.4218,-2.3564,-2.362,-2.3399,-2.2921,-2.2802,-2.2802,-2.3015,-2.3125,-2.3125,-2.3125,-2.3125,-2.3125,-2.3125,-2.3125,-2.3125,-2.3175,-2.3439,-2.3602,-2.3288,-2.3514,-2.3514,-2.3251,-2.3201,-2.3288,-2.3328,-2.3389,-2.3301,-2.3251,-2.3213,-2.3138,-2.3125,-2.3125,-2.3125,-2.3125,-2.3125,-2.3125,-2.3125,-2.3125,-2.3125,-2.3125,-2.3088,-2.3088,-2.3125,-2.3012,-2.2765,-4.0087,-4.0087,-4.0087,-4.0087,-4.0087,-4.0087,-4.0087,-4.0087,-4.0087,-4.0087,-4.0087,-4.0087,-4.0087,-4.0087,-4.0087,-4.0087,-4.002,-3.958,-3.9157,-3.8514,-3.728,-3.6806,-3.6688,-3.5994,-3.5639,-3.5639,-3.5639,-3.5407,-3.4955,-3.4255,-3.3367,-3.2331,-3.1329,-3.0513,-2.982,-2.9534,-2.918,-2.8873,-2.881,-2.8342,-2.7551,-2.7625,-2.7315,-2.6282,-2.5932,-2.5462,-2.4834,-2.4227,-2.3794,-2.3638,-2.3595,-2.3595,-2.3595,-2.358,-2.3595,-2.3595,-2.3595,-2.3595,-2.3595,-2.3595,-2.3595,-2.3595,-2.3595,-2.3744,-2.3969,-2.4403,-2.4489,-2.4919,-2.5112,-2.5242,-2.4764,-2.4581,-2.4381,-2.3662,-2.322,-2.3125,-2.3125,-2.3125,-2.3125,-2.3125,-2.3125,-2.3125,-2.3125,-2.3125,-2.3125,-2.3201,-2.3627,-2.3941,-2.3665,-2.3966,-2.3879,-2.3841,-2.3929,-2.3929,-2.3754,-2.3616,-2.3502,-2.3401,-2.3314,-2.3201,-2.3125,-2.3125,-2.3125,-2.3125,-2.3125,-2.3125,-2.3125,-2.3125,-2.3125,-2.3125,-2.3125,-2.3125,-2.3125,-2.3125,-2.3,-4.0087,-4.0087,-4.0087,-4.0087,-4.0087,-4.0087,-4.0087,-4.0087,-4.0087,-4.0087,-4.0087,-4.0087,-4.0087,-4.0087,-4.0087,-4.0087,-4.007,-4.0037,-3.9952,-3.9343,-3.8038,-3.6874,-3.6502,-3.591,-3.5639,-3.5639,-3.5639,-3.5577,-3.5436,-3.4891,-3.4269,-3.3508,-3.2243,-3.1249,-3.0664,-2.9923,-2.9569,-2.9496,-2.9451,-2.9099,-2.8435,-2.8533,-2.8206,-2.7524,-2.6953,-2.6333,-2.5633,-2.4813,-2.4116,-2.3681,-2.3595,-2.3595,-2.3595,-2.3595,-2.3595,-2.3595,-2.3595,-2.3595,-2.3595,-2.3595,-2.3595,-2.3595,-2.3625,-2.3879,-2.4418,-2.4657,-2.5179,-2.6117,-2.6,-2.5914,-2.6097,-2.5823,-2.5119,-2.4337,-2.3531,-2.3125,-2.3125,-2.3125,-2.3125,-2.3125,-2.3125,-2.3125,-2.3125,-2.3125,-2.3163,-2.3351,-2.3753,-2.4029,-2.4155,-2.4393,-2.4707,-2.4657,-2.4418,-2.4205,-2.3979,-2.3891,-2.3678,-2.3339,-2.3276,-2.3213,-2.3125,-2.3125,-2.3125,-2.3125,-2.3125,-2.3125,-2.3125,-2.3125,-2.3125,-2.3125,-2.3125,-2.3125,-2.3125,-2.3125,-2.3113,-4.0087,-4.0087,-4.0087,-4.0087,-4.0087,-4.0087,-4.0087,-4.0087,-4.0087,-4.0087,-4.0087,-4.0087,-4.0087,-4.0087,-4.0087,-4.0087,-4.0087,-4.0087,-4.0087,-3.9817,-3.8413,-3.6958,-3.6113,-3.5757,-3.5639,-3.5639,-3.5639,-3.5639,-3.5605,-3.5385,-3.4925,-3.4263,-3.3285,-3.2471,-3.1809,-3.1041,-3.051,-3.0123,-3.0081,-2.9783,-2.9327,-2.9567,-2.9426,-2.8813,-2.8534,-2.7833,-2.6652,-2.5194,-2.4142,-2.3638,-2.3595,-2.3595,-2.3595,-2.3595,-2.3595,-2.3595,-2.3595,-2.3595,-2.3595,-2.3595,-2.3595,-2.3595,-2.3595,-2.3909,-2.4522,-2.5076,-2.5719,-2.6512,-2.6763,-2.688,-2.6587,-2.6297,-2.5618,-2.4452,-2.3708,-2.3185,-2.3125,-2.3125,-2.3125,-2.3125,-2.3125,-2.3125,-2.3125,-2.3188,-2.3314,-2.3715,-2.4192,-2.4607,-2.4657,-2.4795,-2.5096,-2.4745,-2.4481,-2.428,-2.4104,-2.4042,-2.3803,-2.3339,-2.3201,-2.3175,-2.3125,-2.3125,-2.3125,-2.3125,-2.3125,-2.3125,-2.3125,-2.3125,-2.3125,-2.3125,-2.3125,-2.3125,-2.3125,-2.3125,-2.3125,-4.0087,-4.0087,-4.0087,-4.0087,-4.0087,-4.0087,-4.0087,-4.0087,-4.0087,-4.0087,-4.0087,-4.0087,-4.0087,-4.0087,-4.0087,-4.0087,-4.0087,-4.0087,-4.0087,-3.9834,-3.8565,-3.7094,-3.596,-3.5639,-3.5639,-3.5639,-3.5639,-3.5639,-3.5622,-3.5639,-3.5368,-3.4817,-3.3914,-3.3186,-3.2705,-3.1715,-3.1072,-3.074,-3.0658,-3.0477,-3.0208,-3.0477,-3.0459,-3.0032,-2.9782,-2.8899,-2.7215,-2.5408,-2.4241,-2.3964,-2.3709,-2.3595,-2.3595,-2.3595,-2.3595,-2.3595,-2.3595,-2.3595,-2.3595,-2.3595,-2.3595,-2.3595,-2.3595,-2.4118,-2.4852,-2.5435,-2.5929,-2.6916,-2.735,-2.7312,-2.7034,-2.6721,-2.6122,-2.5398,-2.4553,-2.3813,-2.3245,-2.3125,-2.3125,-2.3125,-2.3125,-2.3125,-2.315,-2.3265,-2.3627,-2.4029,-2.4669,-2.4971,-2.5184,-2.5322,-2.5423,-2.5222,-2.5096,-2.5021,-2.4732,-2.4569,-2.4142,-2.3653,-2.3163,-2.3078,-2.3125,-2.3125,-2.3125,-2.3125,-2.3125,-2.3125,-2.3125,-2.3125,-2.3125,-2.3125,-2.3125,-2.3125,-2.3125,-2.3125,-2.3125,-4.0087,-4.0087,-4.0087,-4.0087,-4.0087,-4.0087,-4.0087,-4.0087,-4.0087,-4.0087,-4.0087,-4.0087,-4.0087,-4.0087,-4.0087,-4.0087,-4.0087,-4.0087,-3.9868,-3.9411,-3.8396,-3.7094,-3.5757,-3.5639,-3.5639,-3.5639,-3.5639,-3.5639,-3.5639,-3.5639,-3.5639,-3.5182,-3.41,-3.3474,-3.3,-3.1935,-3.1258,-3.1134,-3.1095,-3.1055,-3.0975,-3.1055,-3.0988,-3.0909,-3.0263,-2.9365,-2.7713,-2.5971,-2.4838,-2.476,-2.3997,-2.3638,-2.3595,-2.3595,-2.3595,-2.3595,-2.3595,-2.3595,-2.3595,-2.3595,-2.3595,-2.361,-2.3684,-2.4223,-2.5255,-2.5704,-2.6288,-2.735,-2.7545,-2.7575,-2.7458,-2.6982,-2.6616,-2.6215,-2.5728,-2.4838,-2.3767,-2.3245,-2.3185,-2.3125,-2.3125,-2.3125,-2.3276,-2.3602,-2.4017,-2.4293,-2.4933,-2.5385,-2.5573,-2.5674,-2.5912,-2.6113,-2.6013,-2.5963,-2.5561,-2.5159,-2.4582,-2.4017,-2.3376,-2.3078,-2.3138,-2.3125,-2.3125,-2.3125,-2.3125,-2.3125,-2.3125,-2.3125,-2.3125,-2.3125,-2.3125,-2.3125,-2.3125,-2.3125,-2.3125,-4.0087,-4.0087,-4.0087,-4.0087,-4.0087,-4.0087,-4.0087,-4.0087,-4.0087,-4.0087,-4.0087,-4.0087,-4.0087,-4.0087,-4.0087,-4.0087,-4.0087,-4.002,-3.9512,-3.8362,-3.8142,-3.7026,-3.5893,-3.5639,-3.5639,-3.5639,-3.5639,-3.5639,-3.5639,-3.5639,-3.5639,-3.5419,-3.4218,-3.3389,-3.3186,-3.1985,-3.119,-3.119,-3.119,-3.119,-3.119,-3.119,-3.119,-3.1123,-3.048,-2.996,-2.9282,-2.7664,-2.6723,-2.6204,-2.4902,-2.3874,-2.3728,-2.3655,-2.364,-2.3595,-2.3595,-2.3595,-2.361,-2.3625,-2.361,-2.3699,-2.4163,-2.4747,-2.5495,-2.6093,-2.6692,-2.7395,-2.756,-2.756,-2.756,-2.7458,-2.7086,-2.6654,-2.639,-2.5892,-2.5063,-2.4394,-2.3826,-2.3365,-2.3185,-2.3125,-2.3163,-2.3703,-2.4155,-2.4594,-2.5159,-2.5737,-2.5925,-2.6013,-2.6189,-2.6496,-2.6264,-2.6063,-2.5699,-2.5247,-2.472,-2.4217,-2.3653,-2.3103,-2.309,-2.3125,-2.3125,-2.3125,-2.3125,-2.3125,-2.3125,-2.3125,-2.3125,-2.3125,-2.3125,-2.3125,-2.3125,-2.3125,-2.3125,-4.0087,-4.0087,-4.0087,-4.0087,-4.0087,-4.0087,-4.0087,-4.0087,-4.0087,-4.0087,-4.0087,-4.0087,-4.0087,-4.0087,-4.0087,-4.0087,-4.0087,-4.0054,-3.9292,-3.8227,-3.7855,-3.706,-3.5893,-3.5639,-3.5639,-3.5639,-3.5639,-3.5639,-3.5639,-3.5639,-3.5639,-3.5487,-3.415,-3.3457,-3.3186,-3.1968,-3.1258,-3.119,-3.119,-3.119,-3.119,-3.119,-3.119,-3.1055,-3.0509,-3.0133,-2.9976,-2.8622,-2.7899,-2.7406,-2.6251,-2.4897,-2.4206,-2.4073,-2.3939,-2.3655,-2.3595,-2.3595,-2.361,-2.3894,-2.4103,-2.4073,-2.4702,-2.536,-2.5899,-2.6422,-2.6871,-2.738,-2.756,-2.756,-2.756,-2.756,-2.7306,-2.7152,-2.6982,-2.6721,-2.6014,-2.53,-2.4738,-2.4221,-2.393,-2.3767,-2.3855,-2.4124,-2.4305,-2.4757,-2.5611,-2.6163,-2.6189,-2.6264,-2.6345,-2.6433,-2.6282,-2.5988,-2.5674,-2.5247,-2.4745,-2.4305,-2.3866,-2.3427,-2.314,-2.3163,-2.3125,-2.3125,-2.3125,-2.3125,-2.3125,-2.3125,-2.3125,-2.3125,-2.3125,-2.3125,-2.3125,-2.3125,-2.3125,-4.0087,-4.0087,-4.0087,-4.0087,-4.0087,-4.0087,-4.0087,-4.0087,-4.0087,-4.0087,-4.0087,-4.0087,-4.0087,-4.0087,-4.0087,-4.0087,-4.0087,-4.0003,-3.9309,-3.8058,-3.7922,-3.7009,-3.5943,-3.5639,-3.5639,-3.5639,-3.5639,-3.5639,-3.5639,-3.5639,-3.5639,-3.5385,-3.432,-3.3609,-3.3136,-3.2138,-3.1343,-3.1241,-3.119,-3.119,-3.119,-3.119,-3.119,-3.1072,-3.0751,-3.0426,-3.0259,-2.9369,-2.8616,-2.864,-2.8072,-2.6855,-2.5661,-2.4867,-2.4596,-2.4008,-2.3921,-2.3759,-2.3759,-2.4148,-2.4567,-2.4612,-2.536,-2.5944,-2.6422,-2.6722,-2.7081,-2.735,-2.756,-2.756,-2.756,-2.756,-2.756,-2.7509,-2.756,-2.7306,-2.6774,-2.6068,-2.5783,-2.5231,-2.4724,-2.4452,-2.4413,-2.4606,-2.4747,-2.5048,-2.5917,-2.6521,-2.6521,-2.6521,-2.6483,-2.6471,-2.637,-2.6319,-2.5975,-2.5548,-2.5021,-2.4669,-2.423,-2.3791,-2.3452,-2.3452,-2.3427,-2.3175,-2.3125,-2.3125,-2.3125,-2.3125,-2.3125,-2.3125,-2.3125,-2.3125,-2.3125,-2.3125,-2.3125,-4.0087,-4.0087,-4.0087,-4.0087,-4.0087,-4.0087,-4.0087,-4.0087,-4.0087,-4.0087,-4.0087,-4.0087,-4.0087,-4.0087,-4.0087,-4.0087,-4.0087,-3.9935,-3.9242,-3.8075,-3.7804,-3.6992,-3.5876,-3.5639,-3.5639,-3.5639,-3.5639,-3.5639,-3.5639,-3.5639,-3.5639,-3.5419,-3.4692,-3.4032,-3.3305,-3.2527,-3.1681,-3.1258,-3.119,-3.119,-3.119,-3.119,-3.119,-3.119,-3.097,-3.0943,-3.0874,-3.036,-2.9955,-2.991,-2.9383,-2.8638,-2.7755,-2.6811,-2.6016,-2.5272,-2.4771,-2.4401,-2.413,-2.4343,-2.4597,-2.4881,-2.5749,-2.6378,-2.6722,-2.7051,-2.735,-2.7455,-2.756,-2.756,-2.756,-2.756,-2.756,-2.756,-2.7575,-2.7524,-2.7357,-2.7086,-2.6587,-2.5892,-2.5384,-2.509,-2.5101,-2.5084,-2.5208,-2.5512,-2.6125,-2.6646,-2.6769,-2.6714,-2.6589,-2.6508,-2.6496,-2.6483,-2.6352,-2.59,-2.5448,-2.5222,-2.4795,-2.4268,-2.3991,-2.3904,-2.3766,-2.3326,-2.3138,-2.3125,-2.3125,-2.3125,-2.3125,-2.3125,-2.3125,-2.3125,-2.3125,-2.3125,-2.3125,-4.0087,-4.0087,-4.0087,-4.0087,-4.0087,-4.0087,-4.0087,-4.0087,-4.0087,-4.0087,-4.0087,-4.0087,-4.0087,-4.0087,-4.0087,-4.0087,-4.0003,-3.9614,-3.8903,-3.8024,-3.7466,-3.6772,-3.5707,-3.5639,-3.5639,-3.5639,-3.5639,-3.5639,-3.5639,-3.5639,-3.5639,-3.5453,-3.4861,-3.4117,-3.3389,-3.2645,-3.1918,-3.136,-3.119,-3.119,-3.119,-3.119,-3.119,-3.119,-3.119,-3.119,-3.1151,-3.0975,-3.0781,-3.0723,-3.0518,-3.0195,-2.9641,-2.8939,-2.7828,-2.6704,-2.5911,-2.5467,-2.5165,-2.5455,-2.5659,-2.5764,-2.6557,-2.7036,-2.7156,-2.7365,-2.756,-2.756,-2.756,-2.756,-2.756,-2.756,-2.756,-2.756,-2.756,-2.756,-2.756,-2.756,-2.7071,-2.6428,-2.6162,-2.5879,-2.5633,-2.566,-2.5728,-2.6005,-2.6453,-2.6777,-2.7098,-2.6973,-2.6918,-2.6589,-2.6521,-2.6521,-2.6521,-2.6201,-2.585,-2.5636,-2.536,-2.4833,-2.428,-2.4079,-2.3678,-2.3165,-2.3078,-2.3125,-2.3125,-2.3125,-2.3125,-2.3125,-2.3125,-2.3125,-2.3125,-2.3125,-2.3125,-4.0087,-4.0087,-4.0087,-4.0087,-4.0087,-4.0087,-4.0087,-4.0087,-4.0087,-4.0087,-4.0087,-4.0087,-4.0087,-4.0087,-4.0054,-4.0003,-3.9834,-3.9225,-3.8531,-3.7635,-3.7094,-3.6383,-3.5825,-3.5639,-3.5639,-3.5639,-3.5639,-3.5639,-3.5639,-3.5639,-3.5639,-3.5504,-3.4962,-3.4235,-3.3457,-3.2882,-3.207,-3.1427,-3.119,-3.119,-3.119,-3.119,-3.119,-3.119,-3.119,-3.119,-3.119,-3.1151,-3.1112,-3.1134,-3.1095,-3.1134,-3.1095,-3.074,-2.9691,-2.8214,-2.7214,-2.6678,-2.632,-2.6425,-2.6393,-2.6408,-2.7141,-2.747,-2.7545,-2.75,-2.756,-2.756,-2.756,-2.756,-2.756,-2.756,-2.756,-2.756,-2.756,-2.756,-2.756,-2.756,-2.756,-2.7188,-2.693,-2.6592,-2.6207,-2.6329,-2.6438,-2.6573,-2.697,-2.7544,-2.7774,-2.7524,-2.7297,-2.6714,-2.6521,-2.6521,-2.6521,-2.6521,-2.6176,-2.5975,-2.5749,-2.536,-2.4695,-2.4104,-2.3728,-2.3439,-2.3078,-2.3125,-2.3125,-2.3125,-2.3125,-2.3125,-2.3125,-2.3125,-2.3125,-2.3125,-2.3125,-4.0087,-4.0087,-4.0087,-4.0087,-4.0087,-4.0087,-4.0087,-4.0087,-4.0087,-4.0087,-4.0087,-4.0087,-4.0087,-4.0087,-4.0087,-3.9715,-3.9276,-3.892,-3.821,-3.7144,-3.6755,-3.6282,-3.5707,-3.5639,-3.5639,-3.5639,-3.5639,-3.5639,-3.5639,-3.5639,-3.5639,-3.5554,-3.5402,-3.4844,-3.3643,-3.3254,-3.2544,-3.1461,-3.1207,-3.119,-3.119,-3.119,-3.119,-3.119,-3.119,-3.119,-3.119,-3.119,-3.119,-3.119,-3.119,-3.119,-3.119,-3.1151,-3.0764,-2.9714,-2.8443,-2.6934,-2.6258,-2.6444,-2.6722,-2.6826,-2.723,-2.75,-2.756,-2.756,-2.756,-2.756,-2.756,-2.756,-2.756,-2.756,-2.756,-2.756,-2.756,-2.756,-2.756,-2.756,-2.756,-2.756,-2.7255,-2.693,-2.663,-2.6909,-2.7131,-2.7346,-2.7583,-2.8098,-2.8311,-2.7996,-2.767,-2.7108,-2.6521,-2.6521,-2.6521,-2.6521,-2.6458,-2.6307,-2.603,-2.5724,-2.5134,-2.4494,-2.4205,-2.3904,-2.3502,-2.315,-2.3125,-2.3125,-2.3125,-2.3125,-2.3125,-2.3125,-2.3125,-2.3125,-2.3125,-4.0087,-4.0087,-4.0087,-4.0087,-4.0087,-4.0087,-4.0087,-4.0087,-4.0087,-4.0087,-4.0087,-4.0087,-4.0087,-4.0087,-4.0087,-3.9665,-3.9022,-3.8565,-3.7838,-3.6806,-3.6349,-3.596,-3.5707,-3.5639,-3.5639,-3.5639,-3.5639,-3.5639,-3.5639,-3.5639,-3.5639,-3.5639,-3.5588,-3.5131,-3.3981,-3.3609,-3.2831,-3.1985,-3.1461,-3.1207,-3.119,-3.119,-3.119,-3.119,-3.119,-3.119,-3.119,-3.119,-3.119,-3.119,-3.119,-3.119,-3.119,-3.1112,-3.0781,-2.9772,-2.909,-2.8185,-2.7471,-2.7221,-2.7115,-2.7156,-2.7395,-2.7545,-2.756,-2.756,-2.756,-2.756,-2.756,-2.756,-2.756,-2.756,-2.756,-2.756,-2.756,-2.756,-2.756,-2.756,-2.756,-2.756,-2.756,-2.724,-2.6982,-2.6915,-2.7368,-2.7905,-2.8111,-2.8516,-2.8504,-2.8147,-2.7827,-2.743,-2.6905,-2.6521,-2.6521,-2.6521,-2.6589,-2.6413,-2.5967,-2.5728,-2.541,-2.4983,-2.4619,-2.4104,-2.354,-2.3288,-2.3188,-2.3125,-2.3125,-2.3125,-2.3125,-2.3125,-2.3125,-2.3125,-2.3125,-4.0087,-4.0087,-4.0087,-4.0087,-4.0087,-4.0087,-4.0087,-4.0087,-4.0087,-4.0087,-4.0087,-4.0087,-4.0087,-4.0003,-3.9834,-3.9326,-3.865,-3.7956,-3.7212,-3.6485,-3.596,-3.5707,-3.5639,-3.5639,-3.5639,-3.5639,-3.5639,-3.5639,-3.5639,-3.5639,-3.5639,-3.5639,-3.5639,-3.5165,-3.4539,-3.3964,-3.3271,-3.2222,-3.1529,-3.1224,-3.119,-3.119,-3.119,-3.119,-3.119,-3.119,-3.119,-3.119,-3.119,-3.119,-3.119,-3.119,-3.119,-3.1151,-3.074,-3.0021,-2.9576,-2.9114,-2.8372,-2.7838,-2.766,-2.756,-2.756,-2.756,-2.756,-2.756,-2.756,-2.756,-2.756,-2.756,-2.756,-2.756,-2.756,-2.756,-2.756,-2.756,-2.756,-2.756,-2.756,-2.756,-2.756,-2.756,-2.7306,-2.7034,-2.7468,-2.8337,-2.8769,-2.8955,-2.8905,-2.8677,-2.842,-2.8117,-2.7417,-2.7162,-2.7284,-2.7149,-2.7027,-2.6693,-2.6311,-2.6013,-2.5911,-2.5388,-2.4883,-2.4293,-2.3753,-2.3565,-2.3552,-2.3339,-2.3125,-2.3125,-2.3125,-2.3125,-2.3125,-2.3125,-2.3125,-4.0087,-4.0087,-4.0087,-4.0087,-4.0087,-4.0087,-4.0087,-4.0087,-4.0087,-4.0087,-4.0087,-4.0087,-4.0087,-3.9935,-3.9428,-3.8785,-3.799,-3.7195,-3.6535,-3.6011,-3.5639,-3.5639,-3.5639,-3.5639,-3.5639,-3.5639,-3.5639,-3.5639,-3.5639,-3.5639,-3.5639,-3.5639,-3.5639,-3.5148,-3.4726,-3.437,-3.3491,-3.2476,-3.1664,-3.1292,-3.1224,-3.119,-3.119,-3.119,-3.119,-3.119,-3.119,-3.119,-3.119,-3.119,-3.119,-3.119,-3.119,-3.119,-3.0781,-3.0293,-2.9951,-2.9451,-2.8638,-2.8042,-2.7725,-2.7625,-2.756,-2.756,-2.756,-2.756,-2.756,-2.756,-2.756,-2.756,-2.756,-2.756,-2.756,-2.756,-2.756,-2.756,-2.756,-2.756,-2.756,-2.756,-2.756,-2.756,-2.7709,-2.7484,-2.7417,-2.8189,-2.9152,-2.9407,-2.9886,-2.9803,-2.9434,-2.8989,-2.8168,-2.7986,-2.8556,-2.8363,-2.7802,-2.767,-2.7459,-2.7076,-2.6713,-2.6095,-2.5434,-2.5102,-2.4672,-2.4318,-2.3853,-2.3602,-2.3376,-2.3201,-2.3125,-2.3125,-2.3125,-2.3125,-2.3125,-4.0087,-4.0087,-4.0087,-4.0087,-4.0087,-4.0087,-4.0087,-4.0087,-4.0087,-4.0087,-4.0087,-4.0087,-4.0087,-3.9851,-3.9309,-3.8599,-3.7872,-3.7127,-3.6366,-3.5859,-3.5639,-3.5639,-3.5639,-3.5639,-3.5639,-3.5639,-3.5639,-3.5639,-3.5639,-3.5639,-3.5639,-3.5639,-3.5639,-3.5504,-3.5165,-3.4641,-3.3677,-3.2679,-3.2002,-3.1698,-3.1224,-3.119,-3.119,-3.119,-3.119,-3.119,-3.119,-3.119,-3.119,-3.119,-3.119,-3.119,-3.119,-3.119,-3.0918,-3.0393,-3.0123,-2.9451,-2.8779,-2.8286,-2.8008,-2.761,-2.756,-2.756,-2.756,-2.756,-2.756,-2.756,-2.756,-2.756,-2.756,-2.756,-2.756,-2.756,-2.756,-2.756,-2.756,-2.756,-2.756,-2.756,-2.756,-2.756,-2.7769,-2.7979,-2.7897,-2.8068,-2.9026,-2.9873,-3.0366,-3.0658,-3.0269,-2.9813,-2.9066,-2.8734,-2.9178,-2.8939,-2.8505,-2.8505,-2.8505,-2.8117,-2.7696,-2.6909,-2.6297,-2.5987,-2.5473,-2.4862,-2.4381,-2.3928,-2.3565,-2.3263,-2.315,-2.3125,-2.3125,-2.3125,-2.3125,-4.0087,-4.0087,-4.0087,-4.0087,-4.0087,-4.0087,-4.0087,-4.0087,-4.0087,-4.0087,-4.0054,-3.9901,-3.9766,-3.9512,-3.87,-3.8075,-3.7381,-3.6738,-3.6146,-3.5791,-3.5639,-3.5639,-3.5639,-3.5639,-3.5639,-3.5639,-3.5639,-3.5639,-3.5639,-3.5639,-3.5639,-3.5639,-3.5622,-3.5588,-3.5419,-3.4844,-3.3947,-3.3169,-3.2374,-3.2161,-3.1562,-3.1292,-3.119,-3.119,-3.119,-3.119,-3.119,-3.119,-3.119,-3.119,-3.119,-3.119,-3.119,-3.1151,-3.0958,-3.0559,-3.0166,-2.9629,-2.915,-2.8431,-2.8107,-2.766,-2.756,-2.756,-2.756,-2.756,-2.756,-2.756,-2.756,-2.756,-2.756,-2.756,-2.756,-2.756,-2.756,-2.756,-2.756,-2.756,-2.756,-2.756,-2.7575,-2.764,-2.7829,-2.8143,-2.8757,-2.8861,-2.9535,-3.0332,-3.0904,-3.1087,-3.0837,-3.045,-2.995,-2.9766,-2.9752,-2.9566,-2.9393,-2.938,-2.9317,-2.9066,-2.8598,-2.7899,-2.7282,-2.6909,-2.6337,-2.5461,-2.4937,-2.4619,-2.3938,-2.3238,-2.3175,-2.3125,-2.3125,-2.3125,-2.3125,-4.0087,-4.0087,-4.0087,-4.0087,-4.0087,-4.0087,-4.0087,-4.0087,-4.0087,-4.0037,-3.9901,-3.9377,-3.9039,-3.8734,-3.7719,-3.7161,-3.6857,-3.6163,-3.569,-3.5656,-3.5639,-3.5639,-3.5639,-3.5639,-3.5639,-3.5639,-3.5639,-3.5639,-3.5639,-3.5639,-3.5639,-3.5639,-3.5639,-3.5622,-3.5554,-3.4895,-3.4489,-3.4218,-3.2983,-3.2527,-3.2036,-3.1596,-3.1393,-3.119,-3.119,-3.119,-3.119,-3.119,-3.119,-3.119,-3.119,-3.119,-3.119,-3.119,-3.1134,-3.1055,-3.0958,-3.0642,-3.0149,-2.8575,-2.786,-2.761,-2.756,-2.756,-2.756,-2.756,-2.756,-2.756,-2.756,-2.756,-2.756,-2.756,-2.756,-2.756,-2.756,-2.756,-2.756,-2.756,-2.756,-2.756,-2.7625,-2.7685,-2.7874,-2.8323,-2.931,-2.9849,-3.0298,-3.0821,-3.1302,-3.1394,-3.1146,-3.1029,-3.0598,-3.0584,-3.0524,-3.0404,-3.0269,-3.0269,-3.0194,-3.0011,-2.9628,-2.9073,-2.8466,-2.7956,-2.7455,-2.691,-2.6109,-2.5392,-2.4525,-2.3634,-2.3201,-2.3125,-2.3125,-2.3125,-2.3125,-4.0087,-4.0087,-4.0087,-4.0087,-4.0087,-4.0087,-4.007,-4.0087,-4.0037,-3.9817,-3.9394,-3.9039,-3.8667,-3.8058,-3.7347,-3.6721,-3.6603,-3.6011,-3.5639,-3.5639,-3.5639,-3.5639,-3.5639,-3.5639,-3.5639,-3.5639,-3.5639,-3.5639,-3.5639,-3.5639,-3.5639,-3.5639,-3.5639,-3.5639,-3.5588,-3.5267,-3.5064,-3.4539,-3.388,-3.3339,-3.2408,-3.2002,-3.1664,-3.1241,-3.119,-3.119,-3.119,-3.119,-3.119,-3.119,-3.119,-3.119,-3.119,-3.119,-3.119,-3.1095,-3.0918,-3.0335,-2.9717,-2.8685,-2.8027,-2.781,-2.761,-2.761,-2.756,-2.756,-2.756,-2.756,-2.756,-2.756,-2.756,-2.756,-2.756,-2.756,-2.756,-2.756,-2.756,-2.756,-2.756,-2.756,-2.7625,-2.8269,-2.8622,-2.8936,-2.9774,-3.0357,-3.0746,-3.0971,-3.1362,-3.1452,-3.1394,-3.1409,-3.1234,-3.1292,-3.1292,-3.097,-3.0896,-3.0896,-3.097,-3.1029,-3.0644,-3.0072,-2.9737,-2.9171,-2.8816,-2.8422,-2.7406,-2.6356,-2.4987,-2.4131,-2.3679,-2.3223,-2.3125,-2.3125,-2.3125,-3.9326,-3.9326,-3.9326,-3.9326,-3.9411,-3.9868,-3.9952,-3.9749,-3.9681,-3.9292,-3.8684,-3.8362,-3.7973,-3.7381,-3.6772,-3.6383,-3.6315,-3.5893,-3.5639,-3.5639,-3.5639,-3.5639,-3.5639,-3.5639,-3.5639,-3.5639,-3.5639,-3.5639,-3.5639,-3.5639,-3.5639,-3.5639,-3.5639,-3.5639,-3.5605,-3.5504,-3.5385,-3.4912,-3.4489,-3.3812,-3.2966,-3.2357,-3.1884,-3.141,-3.119,-3.119,-3.119,-3.119,-3.119,-3.119,-3.119,-3.119,-3.119,-3.119,-3.119,-3.1055,-3.0878,-3.0351,-2.9805,-2.9225,-2.8575,-2.8042,-2.776,-2.7625,-2.756,-2.756,-2.756,-2.756,-2.756,-2.756,-2.756,-2.756,-2.756,-2.756,-2.756,-2.756,-2.756,-2.756,-2.756,-2.756,-2.7724,-2.8539,-2.931,-2.9804,-3.0298,-3.0746,-3.1165,-3.1315,-3.1435,-3.148,-3.1467,-3.1467,-3.1482,-3.1482,-3.1467,-3.1409,-3.1336,-3.1467,-3.1467,-3.1482,-3.1351,-3.0822,-3.0644,-3.045,-3.0139,-2.9565,-2.8489,-2.7354,-2.5949,-2.4805,-2.4077,-2.3671,-2.321,-2.3125,-2.3125,-3.7922,-3.7905,-3.7922,-3.799,-3.8176,-3.9343,-3.9529,-3.8971,-3.8954,-3.8565,-3.7855,-3.7195,-3.6907,-3.6654,-3.5977,-3.5723,-3.5757,-3.5639,-3.5639,-3.5639,-3.5639,-3.5639,-3.5639,-3.5639,-3.5639,-3.5639,-3.5639,-3.5639,-3.5639,-3.5639,-3.5639,-3.5639,-3.5639,-3.5639,-3.5639,-3.5605,-3.5554,-3.5301,-3.4759,-3.415,-3.3457,-3.2645,-3.2036,-3.1546,-3.1292,-3.1207,-3.119,-3.119,-3.119,-3.119,-3.119,-3.119,-3.119,-3.119,-3.119,-3.119,-3.1151,-3.0781,-3.0335,-2.9761,-2.9271,-2.8732,-2.8125,-2.7795,-2.756,-2.756,-2.756,-2.756,-2.756,-2.756,-2.756,-2.756,-2.756,-2.756,-2.756,-2.756,-2.756,-2.756,-2.756,-2.7604,-2.7709,-2.8338,-2.934,-2.9998,-3.0597,-3.1031,-3.1345,-3.139,-3.1495,-3.1495,-3.1467,-3.1467,-3.1467,-3.1467,-3.1467,-3.1467,-3.1467,-3.1467,-3.1467,-3.1467,-3.1467,-3.1409,-3.1087,-3.097,-3.1219,-3.0646,-2.9473,-2.8166,-2.6895,-2.5819,-2.4925,-2.3837,-2.3352,-2.3125,-2.3125,-3.8196,-3.7905,-3.7922,-3.7922,-3.7973,-3.8345,-3.8413,-3.8227,-3.821,-3.7804,-3.7094,-3.6891,-3.6468,-3.5943,-3.5723,-3.5656,-3.5639,-3.5639,-3.5639,-3.5639,-3.5639,-3.5639,-3.5639,-3.5639,-3.5639,-3.5639,-3.5639,-3.5639,-3.5639,-3.5639,-3.5639,-3.5639,-3.5639,-3.5639,-3.5639,-3.5639,-3.5639,-3.547,-3.4912,-3.4421,-3.3795,-3.2933,-3.229,-3.1816,-3.136,-3.1241,-3.119,-3.119,-3.119,-3.119,-3.119,-3.119,-3.119,-3.119,-3.119,-3.119,-3.119,-3.1055,-3.0878,-3.0377,-2.9892,-2.9585,-2.9088,-2.8352,-2.7944,-2.771,-2.771,-2.776,-2.7795,-2.7894,-2.776,-2.766,-2.761,-2.761,-2.7595,-2.76,-2.763,-2.775,-2.7765,-2.7859,-2.7964,-2.8637,-2.9594,-3.0238,-3.0806,-3.127,-3.1467,-3.1467,-3.1467,-3.1467,-3.1467,-3.1467,-3.1467,-3.1467,-3.1467,-3.1467,-3.1467,-3.1467,-3.1467,-3.1467,-3.1467,-3.1409,-3.1351,-3.1351,-3.1409,-3.0984,-3.0216,-2.8966,-2.7725,-2.6768,-2.5823,-2.4609,-2.3649,-2.3531,-2.3365,-3.7602,-3.7297,-3.7085,-3.7009,-3.7009,-3.6992,-3.7085,-3.7303,-3.7407,-3.7043,-3.6366,-3.6299,-3.6045,-3.5723,-3.5639,-3.5639,-3.5639,-3.5639,-3.5639,-3.5639,-3.5639,-3.5639,-3.5639,-3.5622,-3.5639,-3.5622,-3.5622,-3.5639,-3.5639,-3.5639,-3.5639,-3.5639,-3.5639,-3.5639,-3.5639,-3.5639,-3.5639,-3.5487,-3.5165,-3.4641,-3.3897,-3.3152,-3.2611,-3.1884,-3.1376,-3.1258,-3.119,-3.119,-3.119,-3.119,-3.119,-3.119,-3.119,-3.119,-3.119,-3.119,-3.119,-3.119,-3.1015,-3.0559,-3.0377,-3.0166,-2.9761,-2.9134,-2.8717,-2.848,-2.8271,-2.8125,-2.8222,-2.8207,-2.7978,-2.776,-2.766,-2.7625,-2.7585,-2.761,-2.7745,-2.7976,-2.8071,-2.8195,-2.8607,-2.922,-2.9879,-3.0477,-3.0971,-3.1345,-3.1467,-3.1467,-3.1467,-3.1467,-3.1467,-3.1467,-3.1467,-3.1467,-3.1467,-3.1467,-3.1467,-3.1467,-3.1467,-3.1467,-3.1467,-3.1467,-3.1409,-3.1409,-3.1467,-3.1043,-3.069,-2.9737,-2.8562,-2.7711,-2.6778,-2.5574,-2.4738,-2.4439,-2.4163,-3.6516,-3.6468,-3.5924,-3.5902,-3.5728,-3.5885,-3.6114,-3.6419,-3.6771,-3.6435,-3.583,-3.5639,-3.5673,-3.5639,-3.5639,-3.5639,-3.5639,-3.5639,-3.5639,-3.5622,-3.5639,-3.5639,-3.5622,-3.5667,-3.5694,-3.5667,-3.565,-3.5783,-3.5622,-3.5639,-3.5639,-3.5639,-3.5639,-3.5639,-3.5639,-3.5639,-3.5639,-3.5588,-3.5385,-3.4979,-3.388,-3.322,-3.2662,-3.163,-3.1275,-3.119,-3.119,-3.119,-3.119,-3.119,-3.119,-3.119,-3.119,-3.119,-3.119,-3.119,-3.119,-3.119,-3.1095,-3.0781,-3.0559,-3.0293,-2.9892,-2.9717,-2.9585,-2.9134,-2.881,-2.8685,-2.8764,-2.867,-2.8448,-2.8448,-2.84,-2.8207,-2.8112,-2.8,-2.7993,-2.8187,-2.8303,-2.8494,-2.9101,-2.9684,-3.0058,-3.0657,-3.118,-3.1465,-3.1467,-3.1467,-3.1467,-3.1467,-3.1467,-3.1467,-3.1467,-3.1467,-3.1467,-3.1467,-3.1467,-3.1467,-3.1467,-3.1467,-3.1467,-3.1467,-3.1467,-3.1467,-3.1467,-3.1467,-3.1113,-3.0179,-2.933,-2.8627,-2.7633,-2.6572,-2.5893,-2.5522,-2.5063,-3.7323,-3.6981,-3.6865,-3.6603,-3.6308,-3.6643,-3.6643,-3.6457,-3.6898,-3.6771,-3.6241,-3.581,-3.5639,-3.5639,-3.5639,-3.5622,-3.5667,-3.5756,-3.5622,-3.5711,-3.5739,-3.5854,-3.5783,-3.6054,-3.5985,-3.5854,-3.5854,-3.6054,-3.5854,-3.5739,-3.5667,-3.5667,-3.5667,-3.5711,-3.5739,-3.5739,-3.5622,-3.5711,-3.5419,-3.503,-3.4117,-3.2628,-3.1579,-3.1562,-3.1613,-3.1241,-3.119,-3.119,-3.119,-3.119,-3.119,-3.119,-3.119,-3.119,-3.119,-3.119,-3.119,-3.119,-3.1151,-3.0998,-3.0918,-3.0918,-3.0781,-3.0797,-3.0535,-2.9821,-2.9406,-2.9316,-2.9271,-2.918,-2.9042,-2.9088,-2.9088,-2.8841,-2.8591,-2.8432,-2.8286,-2.8408,-2.852,-2.9049,-2.9619,-2.9998,-3.0342,-3.0791,-3.1315,-3.1467,-3.1467,-3.1467,-3.1467,-3.1467,-3.1467,-3.1467,-3.1467,-3.1467,-3.1467,-3.1467,-3.1467,-3.1467,-3.1467,-3.1467,-3.1467,-3.1467,-3.1467,-3.1467,-3.1467,-3.1467,-3.136,-3.078,-3.0026,-2.9212,-2.8468,-2.7409,-2.6948,-2.6515,-2.6028,-3.7755,-3.7506,-3.7285,-3.702,-3.6843,-3.7076,-3.7152,-3.7079,-3.7173,-3.719,-3.6943,-3.6316,-3.5871,-3.5667,-3.5639,-3.5827,-3.5898,-3.5985,-3.6207,-3.6291,-3.6249,-3.6357,-3.6481,-3.6563,-3.6603,-3.6481,-3.6563,-3.6603,-3.6232,-3.6316,-3.6374,-3.6207,-3.6139,-3.6054,-3.6139,-3.5941,-3.5739,-3.5941,-3.5501,-3.481,-3.4167,-3.2899,-3.1816,-3.1918,-3.1461,-3.119,-3.119,-3.119,-3.119,-3.119,-3.119,-3.119,-3.119,-3.119,-3.119,-3.119,-3.119,-3.119,-3.119,-3.119,-3.119,-3.119,-3.119,-3.1015,-3.1032,-3.0435,-3.0166,-3.0064,-3.0293,-3.0251,-2.9629,-2.9451,-2.9406,-2.9255,-2.8979,-2.8763,-2.8919,-2.9128,-2.9392,-2.9837,-3.0152,-3.0223,-3.0582,-3.1001,-3.1377,-3.1467,-3.1467,-3.1467,-3.1467,-3.1467,-3.1467,-3.1467,-3.1467,-3.1467,-3.1467,-3.1467,-3.1467,-3.1467,-3.1467,-3.1467,-3.1467,-3.1467,-3.1467,-3.1467,-3.1467,-3.1467,-3.1285,-3.0941,-3.0342,-2.956,-2.891,-2.8233,-2.7921,-2.7565,-2.7156,-3.8013,-3.7946,-3.7596,-3.736,-3.7303,-3.7377,-3.7578,-3.7808,-3.7542,-3.7578,-3.7685,-3.6925,-3.6333,-3.5985,-3.5827,-3.6139,-3.6374,-3.6481,-3.6786,-3.6999,-3.7076,-3.6943,-3.6981,-3.721,-3.721,-3.7135,-3.7135,-3.7135,-3.6981,-3.6981,-3.696,-3.7076,-3.6921,-3.6684,-3.6684,-3.6374,-3.5898,-3.5822,-3.5351,-3.4464,-3.3846,-3.3305,-3.2357,-3.163,-3.119,-3.119,-3.119,-3.119,-3.119,-3.119,-3.119,-3.119,-3.119,-3.119,-3.119,-3.119,-3.119,-3.119,-3.119,-3.119,-3.119,-3.119,-3.119,-3.119,-3.1207,-3.1055,-3.0781,-3.0781,-3.1015,-3.0878,-3.0251,-2.9951,-2.9848,-2.9745,-2.9504,-2.9332,-2.9611,-2.9815,-3.0105,-3.053,-3.0601,-3.0624,-3.0881,-3.1228,-3.1362,-3.1437,-3.1467,-3.1467,-3.1467,-3.1467,-3.1467,-3.1467,-3.1467,-3.1467,-3.1467,-3.1467,-3.1467,-3.1467,-3.1467,-3.1467,-3.1467,-3.1467,-3.1467,-3.1467,-3.1467,-3.1467,-3.1405,-3.1135,-3.0477,-2.9864,-2.9609,-2.9167,-2.8734,-2.8442,-2.8286,-3.8528,-3.8546,-3.8433,-3.8168,-3.7877,-3.8201,-3.8216,-3.798,-3.8267,-3.8267,-3.7946,-3.779,-3.7342,-3.6904,-3.6904,-3.6999,-3.6999,-3.7058,-3.7058,-3.719,-3.7414,-3.7303,-3.7377,-3.7703,-3.7773,-3.7703,-3.7524,-3.7248,-3.7487,-3.7377,-3.7228,-3.7266,-3.721,-3.6904,-3.6539,-3.6291,-3.6147,-3.6061,-3.5762,-3.5112,-3.416,-3.3396,-3.2104,-3.1512,-3.119,-3.119,-3.119,-3.119,-3.119,-3.119,-3.119,-3.119,-3.119,-3.119,-3.119,-3.119,-3.119,-3.119,-3.119,-3.119,-3.119,-3.119,-3.119,-3.119,-3.119,-3.119,-3.1015,-3.1015,-3.1151,-3.1151,-3.074,-3.074,-3.0699,-3.0518,-3.0302,-3.0347,-3.0534,-3.0463,-3.0497,-3.0864,-3.1118,-3.1116,-3.1255,-3.1407,-3.1407,-3.1467,-3.1467,-3.1467,-3.1467,-3.1467,-3.1467,-3.1467,-3.1467,-3.1467,-3.1467,-3.1467,-3.1467,-3.1467,-3.1467,-3.1467,-3.1467,-3.1467,-3.1467,-3.1467,-3.1467,-3.1467,-3.1375,-3.1285,-3.0896,-3.0402,-3.0372,-3.0088,-2.9579,-2.8966,-2.8532]},{"header":{"parameterUnit":"m.s-1","parameterCategory":1,"la1":31.0,"la2":29.5877,"lo1":-88.7671,"lo2":-86.6584,"dy":0.0162,"dx":0.0185,"nx":115,"ny":88,"refTime":"2024-06-08T06:00:00:Z","depth":0,"parameterNumber":3,"parameterNumberName":"V-component_of_WINDS"},"data":[0.0,0.0,0.0,0.0,0.0,0.0,0.0,0.0,0.0,0.0,0.0,0.0,0.0,0.0,0.0,0.0,0.0,0.0,0.0,0.0,0.0,0.0,0.0,0.0,0.0,0.0,0.0,0.0,0.0,0.0,0.0,0.0,0.0,0.0,0.0,0.0,0.0,0.0,0.0,0.0,0.0,0.0,0.0,0.0,0.0,0.0,0.0,0.0,0.0,0.0,0.0,0.0,0.0,0.0,0.0,0.0,0.0,0.0,0.0,0.0,0.0,0.0,0.0,0.0,0.0,0.0,0.0,0.0,0.0,0.0,0.0,0.0,0.0,0.0,0.0,0.0,0.0,0.0,0.0,0.0,0.0,0.0,0.0,0.0,0.0,0.0,0.0,0.0,0.0,0.0,0.0,0.0,0.0,0.0,0.0,0.0,0.0,0.0,0.0,0.0,0.0,0.0,0.0,0.0,0.0,0.0,0.0,0.0,0.0,0.0,0.0,0.0,0.0,0.0,0.0,0.0,0.0,0.0,0.0,0.0,0.0,0.0,0.0,0.0,0.0,0.0,0.0,0.0,0.0,0.0,0.0,0.0,0.0,0.0,0.0,0.0,0.0,0.0,0.0,0.0,0.0,0.0,0.0,0.0,0.0,0.0,0.0,0.0,0.0,0.0,0.0,0.0,0.0,0.0,0.0,0.0,0.0,0.0,0.0,0.0,0.0,0.0,0.0,0.0,0.0,0.0,0.0,0.0,0.0,0.0,0.0,0.0,0.0,0.0,0.0,0.0,0.0,0.0,0.0,0.0,0.0,0.0,0.0,0.0,0.0,0.0,0.0,0.0,0.0,0.0,0.0,0.0,0.0,0.0,0.0,0.0,0.0,0.0,0.0,0.0,0.0,0.0,0.0,0.0,0.0,0.0,0.0,0.0,0.0,0.0,0.0,0.0,0.0,0.0,0.0,0.0,0.0,0.0,0.0,0.0,0.0,0.0,0.0,0.0,0.0,0.0,0.0,0.0,0.0,0.0,0.0,0.0,0.0,0.0,0.0,0.0,0.0,0.0,0.0,0.0,0.0,0.0,0.0,0.0,0.0,0.0,0.0,0.0,0.0,0.0,0.0,0.0,0.0,0.0,0.0,0.0,0.0,0.0,0.0,0.0,0.0,0.0,0.0,0.0,0.0,0.0,0.0,0.0,0.0,0.0,0.0,0.0,0.0,0.0,0.0,0.0,0.0,0.0,0.0,0.0,0.0,0.0,0.0,0.0,0.0,0.0,0.0,0.0,0.0,0.0,0.0,0.0,0.0,0.0,0.0,0.0,0.0,0.0,0.0,0.0,0.0,0.0,0.0,0.0,0.0,0.0,0.0,0.0,0.0,0.0,0.0,0.0,0.0,0.0,0.0,0.0,0.0,0.0,0.0,0.0,0.0,0.0,0.0,0.0,0.0,0.0,0.0,0.0,0.0,0.0,0.0,0.0,0.0,0.0,0.0,0.0,0.0,0.0,0.0,0.0,0.0,0.0,0.0,0.0,0.0,0.0,0.0,0.0,0.0,0.0,0.0,0.0,0.0,0.0,0.0,0.0,0.0,0.0,0.0,0.0,0.0,0.0,0.0,0.0,0.0,0.0,0.0,0.0,0.0,0.0,0.0,0.0,0.0,0.0,0.0,0.0,0.0,0.0,0.0,0.0,0.0,0.0,0.0,0.0,0.0,0.0,0.0,0.0,0.0,0.0,0.0,0.0,0.0,0.0,0.0,0.0,0.0,0.0,0.0,0.0,0.0,0.0,0.0,0.0,0.0,0.0,0.0,0.0,0.0,0.0,0.0,0.0,0.0,0.0,0.0,0.0,0.0,0.0,0.0,0.0,0.0,0.0,0.0,0.0,0.0,0.0,0.0,0.0,0.0,0.0,0.0,0.0,0.0,0.0,0.0,0.0,0.0,0.0,0.0,0.0,0.0,0.0,0.0,0.0,0.0,0.0,0.0,0.0,0.0,0.0,0.0,0.0,0.0,0.0,0.0,0.0,0.0,0.0,0.0,0.0,0.0,0.0,0.0,0.0,0.0,0.0,0.0,0.0,0.0,0.0,0.0,0.0,0.0,0.0,0.0,0.0,0.0,0.0,0.0,0.0,0.0,0.0,0.0,0.0,0.0,0.0,0.0,0.0,0.0,0.0,0.0,0.0,0.0,0.0,0.0,0.0,0.0,0.0,0.0,0.0,0.0,0.0,0.0,0.0,0.0,0.0,0.0,0.0,0.0,0.0,0.0,0.0,0.0,0.0,0.0,0.0,0.0,0.0,0.0,0.0,0.0,0.0,0.0,0.0,0.0,0.0,0.0,0.0,0.0,0.0,0.0,0.0,0.0,0.0,0.0,0.0,0.0,0.0,0.0,0.0,0.0,0.0,0.0,0.0,0.0,0.0,0.0,0.0,0.0,0.0,0.0,0.0,0.0,0.0,0.0,0.0,0.0,0.0,0.0,0.0,0.0,0.0,0.0,0.0,0.0,0.0,0.0,0.0,0.0,0.0,0.0,0.0,0.0,0.0,0.0,0.0,0.0,0.0,0.0,0.0,0.0,0.0,0.0,0.0,0.0,0.0,0.0,0.0,0.0,0.0,0.0,0.0,0.0,0.0,0.0,0.0,0.0,0.0,0.0,0.0,0.0,0.0,0.0,0.0,0.0,0.0,0.0,0.0,0.0,0.0,0.0,0.0,0.0,0.0,0.0,0.0,0.0,0.0,0.0,0.0,0.0,0.0,0.0,0.0,0.0,0.0,0.0,0.0,0.0,0.0,0.0,0.0,0.0,0.0,0.0,0.0,0.0,0.0,0.0,0.0,0.0,0.0,0.0,0.0,0.0,0.0,0.0,0.0,0.0,0.0,0.0,0.0,0.0,0.0,0.0,0.0,0.0,0.0,0.0,0.0,0.0,0.0,0.0,0.0,0.0,0.0,0.0,0.0,0.0,0.0,0.0,0.0,0.0,0.0,0.0,0.0,0.0,0.0,0.0,0.0,0.0,0.0,0.0,0.0,0.0,0.0,0.0,0.0,0.0,0.0,0.0,0.0,0.0,0.0,0.0,0.0,0.0,0.0,0.0,0.0,0.0,0.0,0.0,0.0,0.0,0.0,0.0,0.0,0.0,0.0,0.0,0.0,0.0,0.0,0.0,0.0,0.0,0.0,0.0,0.0,0.0,0.0,0.0,0.0,0.0,0.0,0.0,0.0,0.0,0.0,0.0,0.0,0.0,0.0,0.0,0.0,0.0,0.0,0.0,0.0,0.0,0.0,0.0,0.0,0.0,0.0,0.0,0.0,0.0,0.0,0.0,0.0,0.0,0.0,0.0,0.0,0.0,0.0,0.0,0.0,0.0,0.0,0.0,0.0,0.0,0.0,0.0,0.0,0.0,0.0,0.0,0.0,0.0,0.0,0.0,0.0,0.0,0.0,0.0,0.0,0.0,0.0,0.0,0.0,0.0,0.0,0.0,0.0,0.0,0.0,0.0,0.0,0.0,0.0,0.0,0.0,0.0,0.0,0.0,0.0,0.0,0.0,0.0,0.0,0.0,0.0,0.0,0.0,0.0,0.0,0.0,0.0,0.0,0.0,0.0,0.0,0.0,0.0,0.0,0.0,0.0,0.0,0.0,0.0,0.0,0.0,0.0,0.0,0.0,0.0,0.0,0.0,0.0,0.0,0.0,0.0,0.0,0.0,0.0,0.0,0.0,0.0,0.0,0.0,0.0,0.0,0.0,0.0,0.0,0.0,0.0,0.0,0.0,0.0,0.0,0.0,0.0,0.0,0.0,0.0,0.0,0.0,0.0,0.0,0.0,0.0,0.0,0.0,0.0,0.0,0.0,0.0,0.0,0.0,0.0,0.0,0.0,0.0,0.0,0.0,0.0,0.0,0.0,0.0,0.0,0.0,0.0,0.0,0.0,0.0,0.0,0.0,0.0,0.0,0.0,0.0,0.0,0.0,0.0,0.0,0.0,0.0,0.0,0.0,0.0,0.0,0.0,0.0,0.0,0.0,0.0,0.0,0.0,0.0,0.0,0.0,0.0,0.0,0.0,0.0,0.0,0.0,0.0,0.0,0.0,0.0,0.0,0.0,0.0,0.0,0.0,0.0,0.0,0.0,0.0,0.0,0.0,0.0,0.0,0.0,0.0,0.0,0.0,0.0,0.0,0.0,0.0,0.0,0.0,0.0,0.0,0.0,0.0,0.0,0.0,0.0,0.0,0.0,0.0,0.0,0.0,0.0,0.0,0.0,0.0,0.0,-0.6582,0.0,0.0,0.0,0.0,0.0,0.0,0.0,0.0,0.0,0.0,0.0,0.0,0.0,0.0,0.0,0.0,0.0,0.0,0.0,0.0,0.0,0.0,0.0,0.0,0.0,0.0,0.0,0.0,0.0,0.0,0.0,0.0,0.0,0.0,0.0,0.0,0.0,0.0,0.0,0.0,0.0,0.0,0.0,0.0,0.0,0.0,0.0,0.0,0.0,0.0,0.0,0.0,0.0,0.0,0.0,0.0,0.0,0.0,0.0,0.0,0.0,0.0,0.0,0.0,0.0,0.0,0.0,0.0,0.0,0.0,0.0,0.0,0.0,0.0,0.0,0.0,0.0,0.0,0.0,0.0,0.0,0.0,0.0,0.0,0.0,0.0,0.0,0.0,0.0,0.0,0.0,0.0,0.0,0.0,0.0,0.0,0.0,0.0,0.0,0.0,0.0,0.0,0.0,0.0,0.0,0.0,0.0,0.0,0.0,0.0,-0.7112,-0.6894,-0.6706,-0.6651,-0.6757,0.0,0.0,0.0,0.0,0.0,0.0,0.0,0.0,0.0,0.0,0.0,0.0,0.0,0.0,0.0,0.0,0.0,0.0,0.0,0.0,0.0,0.0,0.0,0.0,0.0,0.0,0.0,0.0,0.0,0.0,0.0,0.0,0.0,0.0,0.0,0.0,0.0,0.0,0.0,0.0,0.0,0.0,0.0,0.0,0.0,0.0,0.0,0.0,0.0,0.0,0.0,0.0,0.0,0.0,0.0,0.0,0.0,0.0,0.0,0.0,0.0,0.0,0.0,0.0,0.0,0.0,0.0,0.0,0.0,0.0,0.0,0.0,0.0,0.0,0.0,0.0,0.0,0.0,0.0,0.0,0.0,0.0,0.0,0.0,0.0,0.0,0.0,0.0,0.0,0.0,0.0,0.0,0.0,0.0,0.0,0.0,0.0,0.0,0.0,0.0,0.0,0.0,0.0,0.0,0.0,0.0,0.0,0.0,0.0,0.0,0.0,0.0,-0.7089,-0.7047,-0.7209,0.0,0.0,0.0,0.0,0.0,0.0,0.0,0.0,0.0,0.0,0.0,0.0,0.0,0.0,0.0,0.0,0.0,0.0,0.0,0.0,0.0,0.0,0.0,0.0,0.0,0.0,0.0,0.0,0.0,0.0,0.0,0.0,0.0,0.0,0.0,0.0,0.0,0.0,0.0,0.0,0.0,0.0,0.0,0.0,0.0,0.0,0.0,0.0,0.0,0.0,0.0,0.0,0.0,0.0,0.0,0.0,0.0,0.0,0.0,0.0,0.0,0.0,0.0,0.0,0.0,0.0,0.0,0.0,0.0,0.0,0.0,0.0,0.0,0.0,0.0,0.0,0.0,0.0,0.0,0.0,0.0,0.0,0.0,0.0,0.0,0.0,0.0,0.0,0.0,0.0,0.0,0.0,0.0,0.0,0.0,0.0,0.0,0.0,0.0,0.0,0.0,0.0,0.0,0.0,0.0,0.0,0.0,0.0,0.0,0.0,-0.7598,-0.8397,-0.8236,0.0,-0.8194,0.0,0.0,0.0,0.0,0.0,0.0,0.0,0.0,0.0,0.0,0.0,0.0,0.0,0.0,0.0,0.0,0.0,0.0,0.0,0.0,0.0,0.0,0.0,0.0,0.0,0.0,0.0,0.0,0.0,0.0,0.0,0.0,0.0,0.0,0.0,0.0,0.0,0.0,0.0,0.0,0.0,0.0,0.0,0.0,0.0,0.0,0.0,0.0,0.0,0.0,0.0,0.0,0.0,0.0,0.0,0.0,0.0,0.0,0.0,0.0,0.0,0.0,0.0,0.0,0.0,0.0,0.0,0.0,0.0,0.0,0.0,0.0,0.0,0.0,0.0,0.0,0.0,0.0,0.0,0.0,0.0,0.0,0.0,0.0,0.0,0.0,0.0,0.0,0.0,0.0,0.0,0.0,0.0,0.0,0.0,0.0,0.0,0.0,0.0,0.0,0.0,0.0,0.0,0.0,0.0,0.0,0.0,0.0,0.0,0.0,0.0,-0.8602,-0.8524,-0.8565,0.0,0.0,0.0,0.0,0.0,0.0,0.0,0.0,0.0,0.0,0.0,0.0,0.0,0.0,0.0,0.0,0.0,0.0,0.0,0.0,0.0,0.0,0.0,0.0,0.0,0.0,0.0,0.0,0.0,0.0,0.0,0.0,0.0,0.0,0.0,0.0,0.0,0.0,0.0,0.0,0.0,0.0,0.0,0.0,0.0,0.0,0.0,0.0,0.0,0.0,0.0,0.0,0.0,0.0,0.0,0.0,0.0,0.0,0.0,0.0,0.0,0.0,0.0,0.0,0.0,0.0,0.0,0.0,0.0,0.0,0.0,0.0,0.0,0.0,0.0,0.0,0.0,0.0,0.0,0.0,0.0,0.0,0.0,0.0,0.0,0.0,0.0,0.0,0.0,0.0,0.0,0.0,0.0,0.0,0.0,0.0,0.0,0.0,0.0,0.0,0.0,0.0,0.0,0.0,0.0,0.0,0.0,0.0,0.0,0.0,-0.8439,0.0,-0.9018,-0.9109,-0.9148,-0.9119,0.0,0.0,0.0,0.0,0.0,0.0,0.0,0.0,0.0,0.0,0.0,0.0,0.0,0.0,0.0,0.0,0.0,0.0,0.0,0.0,0.0,0.0,0.0,0.0,0.0,0.0,0.0,0.0,0.0,0.0,0.0,0.0,0.0,0.0,0.0,0.0,0.0,0.0,0.0,0.0,0.0,0.0,0.0,0.0,0.0,0.0,0.0,0.0,0.0,0.0,0.0,0.0,0.0,0.0,0.0,0.0,0.0,0.0,0.0,0.0,0.0,0.0,0.0,0.0,0.0,0.0,0.0,0.0,0.0,0.0,0.0,0.0,0.0,0.0,0.0,0.0,0.0,0.0,0.0,0.0,0.0,0.0,0.0,0.0,0.0,0.0,0.0,0.0,0.0,0.0,0.0,0.0,0.0,0.0,0.0,0.0,0.0,0.0,0.0,0.0,0.0,0.0,0.0,0.0,0.0,0.0,0.0,0.0,0.0,-0.9206,-0.9096,-1.0093,-1.0368,-1.0012,0.0,0.0,0.0,0.0,0.0,0.0,0.0,0.0,0.0,0.0,0.0,0.0,0.0,0.0,0.0,0.0,0.0,0.0,0.0,0.0,0.0,0.0,0.0,0.0,0.0,0.0,0.0,0.0,0.0,0.0,0.0,0.0,0.0,0.0,0.0,0.0,0.0,0.0,0.0,0.0,0.0,0.0,0.0,0.0,0.0,0.0,0.0,0.0,0.0,0.0,0.0,0.0,0.0,0.0,0.0,0.0,0.0,0.0,0.0,0.0,0.0,0.0,0.0,0.0,0.0,0.0,0.0,0.0,0.0,0.0,0.0,0.0,0.0,0.0,0.0,0.0,0.0,0.0,0.0,0.0,0.0,0.0,0.0,0.0,0.0,0.0,0.0,0.0,0.0,0.0,0.0,0.0,0.0,0.0,0.0,0.0,0.0,0.0,0.0,0.0,0.0,0.0,0.0,0.0,0.0,0.0,0.0,0.0,0.0,-0.8213,-0.8347,-0.9398,0.0,-1.0105,-0.9635,0.0,0.0,0.0,0.0,0.0,0.0,0.0,0.0,0.0,0.0,0.0,0.0,0.0,0.0,0.0,0.0,0.0,0.0,0.0,0.0,0.0,0.0,0.0,0.0,0.0,0.0,0.0,0.0,0.0,0.0,0.0,0.0,0.0,0.0,0.0,0.0,0.0,0.0,0.0,0.0,0.0,0.0,0.0,0.0,0.0,0.0,0.0,0.0,0.0,0.0,0.0,0.0,0.0,0.0,0.0,0.0,0.0,0.0,0.0,0.0,0.0,0.0,0.0,0.0,0.0,0.0,0.0,0.0,0.0,0.0,0.0,0.0,0.0,0.0,0.0,0.0,0.0,0.0,0.0,0.0,0.0,0.0,0.0,0.0,0.0,0.0,0.0,0.0,0.0,0.0,0.0,0.0,0.0,0.0,0.0,0.0,0.0,0.0,0.0,0.0,0.0,0.0,0.0,0.0,0.0,0.0,0.0,0.0,0.0,-0.7868,0.0,-1.0072,0.0,-1.0126,-0.9575,0.0,0.0,0.0,0.0,0.0,0.0,0.0,0.0,0.0,0.0,0.0,0.0,0.0,0.0,0.0,0.0,0.0,0.0,0.0,0.0,0.0,0.0,0.0,0.0,0.0,0.0,0.0,0.0,0.0,0.0,0.0,0.0,0.0,0.0,0.0,0.0,0.0,0.0,0.0,0.0,0.0,0.0,0.0,0.0,0.0,0.0,0.0,0.0,0.0,0.0,0.0,0.0,0.0,0.0,0.0,0.0,0.0,0.0,0.0,0.0,0.0,0.0,0.0,0.0,0.0,0.0,0.0,0.0,0.0,0.0,0.0,0.0,0.0,0.0,0.0,0.0,0.0,0.0,0.0,0.0,0.0,0.0,0.0,0.0,0.0,0.0,0.0,0.0,0.0,0.0,0.0,0.0,0.0,0.0,0.0,0.0,0.0,0.0,0.0,0.0,0.0,0.0,0.0,0.0,0.0,0.0,0.0,0.0,0.0,-0.9793,-1.0913,-1.1074,-1.0276,-1.0602,-0.9835,0.0,0.0,0.0,0.0,0.0,0.0,0.0,0.0,0.0,0.0,0.0,0.0,0.0,0.0,0.0,0.0,0.0,0.0,0.0,0.0,0.0,0.0,0.0,0.0,0.0,0.0,0.0,0.0,0.0,0.0,0.0,0.0,0.0,0.0,0.0,0.0,0.0,0.0,0.0,0.0,0.0,0.0,0.0,0.0,0.0,0.0,0.0,0.0,0.0,0.0,0.0,0.0,0.0,0.0,0.0,0.0,0.0,0.0,0.0,0.0,0.0,0.0,0.0,0.0,0.0,0.0,0.0,0.0,0.0,0.0,0.0,0.0,0.0,0.0,0.0,0.0,0.0,0.0,0.0,0.0,0.0,0.0,0.0,0.0,0.0,0.0,0.0,0.0,0.0,0.0,0.0,0.0,0.0,0.0,0.0,0.0,0.0,0.0,0.0,0.0,0.0,0.0,0.0,0.0,0.0,0.0,0.0,0.0,0.0,-0.9033,-1.0246,-1.1183,-1.1632,-1.0288,-0.9731,0.0,0.0,0.0,0.0,0.0,0.0,0.0,0.0,0.0,0.0,0.0,0.0,0.0,0.0,0.0,0.0,0.0,0.0,0.0,0.0,0.0,0.0,0.0,0.0,0.0,0.0,0.0,0.0,0.0,0.0,0.0,0.0,0.0,0.0,0.0,0.0,0.0,0.0,0.0,0.0,0.0,0.0,0.0,0.0,0.0,0.0,0.0,0.0,0.0,0.0,0.0,0.0,0.0,0.0,0.0,0.0,0.0,0.0,0.0,0.0,0.0,0.0,0.0,0.0,0.0,0.0,0.0,0.0,0.0,0.0,0.0,0.0,0.0,0.0,0.0,0.0,0.0,0.0,0.0,0.0,0.0,0.0,0.0,0.0,0.0,0.0,0.0,0.0,0.0,0.0,0.0,0.0,0.0,0.0,0.0,0.0,0.0,0.0,0.0,0.0,0.0,0.0,0.0,0.0,0.0,0.0,0.0,0.0,0.0,-1.0454,-1.1522,-1.2233,-1.2391,-1.0965,-1.0278,-1.0433,0.0,0.0,0.0,0.0,0.0,0.0,0.0,0.0,0.0,0.0,0.0,0.0,0.0,0.0,0.0,0.0,0.0,0.0,0.0,0.0,0.0,0.0,0.0,0.0,0.0,0.0,0.0,0.0,0.0,0.0,0.0,0.0,0.0,0.0,0.0,0.0,0.0,0.0,0.0,0.0,0.0,0.0,0.0,0.0,0.0,0.0,0.0,0.0,0.0,0.0,0.0,0.0,0.0,0.0,0.0,0.0,0.0,0.0,0.0,0.0,0.0,0.0,0.0,0.0,0.0,0.0,0.0,0.0,0.0,0.0,0.0,0.0,0.0,0.0,0.0,0.0,0.0,0.0,0.0,0.0,0.0,0.0,0.0,0.0,0.0,0.0,0.0,0.0,0.0,0.0,0.0,0.0,0.0,0.0,0.0,0.0,0.0,0.0,0.0,0.0,0.0,0.0,0.0,0.0,0.0,0.0,0.0,0.0,-1.3421,-1.4333,-1.4098,-1.2655,-1.2449,-1.1359,0.0,0.0,0.0,0.0,0.0,0.0,0.0,0.0,0.0,0.0,0.0,0.0,0.0,0.0,0.0,0.0,0.0,0.0,0.0,0.0,0.0,0.0,0.0,0.0,0.0,0.0,0.0,0.0,0.0,0.0,0.0,0.0,0.0,0.0,0.0,0.0,0.0,0.0,0.0,0.0,0.0,0.0,0.0,0.0,0.0,0.0,0.0,0.0,0.0,0.0,0.0,0.0,0.0,0.0,0.0,0.0,0.0,0.0,0.0,0.0,0.0,0.0,0.0,0.0,0.0,0.0,0.0,0.0,0.0,0.0,0.0,0.0,0.0,0.0,0.0,0.0,0.0,0.0,0.0,0.0,0.0,0.0,0.0,0.0,0.0,0.0,0.0,0.0,0.0,0.0,0.0,0.0,0.0,0.0,0.0,0.0,0.0,0.0,0.0,0.0,0.0,0.0,0.0,0.0,0.0,0.0,0.0,0.0,0.0,-1.3988,-1.5603,-1.596,-1.4828,-1.3258,-1.2087,0.0,0.0,0.0,0.0,0.0,0.0,0.0,0.0,0.0,0.0,0.0,0.0,0.0,0.0,0.0,0.0,0.0,0.0,0.0,0.0,0.0,0.0,0.0,0.0,0.0,0.0,0.0,0.0,0.0,0.0,0.0,0.0,0.0,0.0,0.0,0.0,0.0,0.0,0.0,0.0,0.0,0.0,0.0,0.0,0.0,0.0,0.0,0.0,0.0,0.0,0.0,0.0,0.0,0.0,0.0,0.0,0.0,0.0,0.0,0.0,0.0,0.0,0.0,0.0,0.0,0.0,0.0,0.0,0.0,0.0,0.0,0.0,0.0,0.0,0.0,0.0,0.0,0.0,0.0,0.0,0.0,0.0,0.0,0.0,0.0,0.0,0.0,0.0,0.0,0.0,0.0,0.0,0.0,0.0,0.0,0.0,0.0,0.0,0.0,0.0,0.0,0.0,0.0,0.0,0.0,0.0,0.0,0.0,-1.3984,-1.5387,-1.6569,-1.6811,-1.6045,-1.4518,-1.3236,0.0,0.0,0.0,0.0,0.0,0.0,0.0,0.0,0.0,0.0,0.0,0.0,0.0,0.0,0.0,0.0,0.0,0.0,0.0,0.0,0.0,0.0,0.0,0.0,0.0,0.0,0.0,0.0,0.0,0.0,0.0,0.0,0.0,0.0,0.0,0.0,0.0,0.0,0.0,0.0,0.0,0.0,0.0,0.0,0.0,0.0,0.0,0.0,0.0,0.0,0.0,0.0,0.0,0.0,0.0,0.0,0.0,0.0,0.0,0.0,0.0,0.0,0.0,0.0,0.0,0.0,0.0,0.0,0.0,0.0,0.0,0.0,0.0,0.0,0.0,0.0,0.0,0.0,0.0,0.0,0.0,0.0,0.0,0.0,0.0,0.0,0.0,0.0,0.0,0.0,0.0,0.0,0.0,0.0,0.0,0.0,0.0,0.0,0.0,0.0,0.0,0.0,0.0,0.0,0.0,0.0,0.0,0.0,-1.5093,-1.693,-1.7263,-1.7105,-1.6527,-1.5774,-1.4463,0.0,0.0,0.0,0.0,0.0,0.0,0.0,0.0,0.0,0.0,0.0,0.0,0.0,0.0,0.0,0.0,0.0,0.0,0.0,0.0,0.0,0.0,0.0,0.0,0.0,0.0,0.0,0.0,0.0,0.0,0.0,0.0,0.0,0.0,0.0,0.0,0.0,0.0,0.0,0.0,0.0,0.0,0.0,0.0,0.0,0.0,0.0,0.0,0.0,0.0,0.0,0.0,0.0,0.0,0.0,0.0,0.0,0.0,0.0,0.0,0.0,0.0,0.0,0.0,0.0,0.0,0.0,0.0,0.0,0.0,0.0,0.0,0.0,0.0,0.0,0.0,0.0,0.0,0.0,0.0,0.0,0.0,0.0,0.0,0.0,0.0,0.0,0.0,0.0,0.0,0.0,0.0,0.0,0.0,0.0,0.0,0.0,0.0,0.0,0.0,0.0,0.0,0.0,0.0,0.0,0.0,0.0,0.0,-1.5713,-1.6304,-1.7347,-1.7463,-1.6509,-1.5774,-1.4646,0.0,0.0,0.0,0.0,0.0,0.0,0.0,0.0,0.0,0.0,0.0,0.0,0.0,0.0,0.0,0.0,0.0,0.0,0.0,0.0,0.0,0.0,0.0,0.0,0.0,0.0,0.0,0.0,0.0,0.0,0.0,0.0,0.0,0.0,0.0,0.0,0.0,0.0,0.0,0.0,0.0,0.0,0.0,0.0,0.0,0.0,0.0,0.0,-1.0931,0.0,0.0,0.0,0.0,0.0,0.0,0.0,0.0,0.0,0.0,0.0,0.0,0.0,0.0,0.0,0.0,0.0,0.0,0.0,0.0,0.0,0.0,0.0,0.0,0.0,0.0,0.0,0.0,0.0,0.0,0.0,0.0,0.0,0.0,0.0,0.0,0.0,0.0,0.0,0.0,0.0,0.0,0.0,0.0,0.0,0.0,0.0,0.0,0.0,0.0,0.0,0.0,0.0,0.0,0.0,0.0,0.0,0.0,0.0,-1.6492,-1.7023,-1.7735,-1.7585,-1.6539,-1.6122,-1.5194,0.0,0.0,0.0,0.0,0.0,0.0,0.0,0.0,0.0,0.0,0.0,0.0,0.0,0.0,0.0,0.0,0.0,0.0,0.0,0.0,0.0,0.0,0.0,0.0,0.0,0.0,0.0,0.0,0.0,0.0,0.0,0.0,0.0,0.0,0.0,0.0,0.0,0.0,0.0,0.0,0.0,0.0,0.0,0.0,0.0,0.0,0.0,0.0,0.0,0.0,0.0,0.0,0.0,0.0,0.0,0.0,0.0,0.0,0.0,0.0,0.0,0.0,0.0,0.0,0.0,0.0,0.0,0.0,0.0,0.0,0.0,0.0,0.0,0.0,0.0,0.0,0.0,0.0,0.0,0.0,0.0,0.0,0.0,0.0,0.0,0.0,0.0,0.0,0.0,0.0,0.0,0.0,0.0,0.0,0.0,0.0,0.0,0.0,0.0,0.0,0.0,0.0,0.0,0.0,0.0,0.0,0.0,-1.5726,-1.7073,-1.8034,-1.8092,-1.7585,-1.6565,-1.6534,-1.5786,-1.4243,0.0,0.0,0.0,0.0,0.0,0.0,0.0,0.0,0.0,0.0,0.0,0.0,0.0,0.0,0.0,0.0,0.0,0.0,0.0,0.0,0.0,0.0,0.0,0.0,0.0,0.0,0.0,0.0,0.0,0.0,0.0,0.0,0.0,0.0,0.0,0.0,0.0,0.0,-1.0112,-1.1711,0.0,0.0,0.0,0.0,0.0,0.0,0.0,0.0,-1.1714,0.0,0.0,0.0,0.0,0.0,0.0,0.0,0.0,0.0,0.0,0.0,0.0,0.0,0.0,0.0,0.0,0.0,0.0,0.0,0.0,0.0,0.0,0.0,0.0,0.0,0.0,0.0,0.0,0.0,0.0,0.0,0.0,0.0,0.0,0.0,0.0,0.0,0.0,0.0,0.0,0.0,0.0,0.0,0.0,0.0,0.0,0.0,0.0,0.0,0.0,0.0,0.0,0.0,0.0,0.0,0.0,-1.5424,-1.5799,-1.6623,-1.8062,-1.8092,-1.7585,-1.6565,-1.6534,-1.5786,-1.427,0.0,0.0,0.0,0.0,0.0,0.0,0.0,0.0,0.0,0.0,0.0,0.0,0.0,0.0,0.0,0.0,0.0,0.0,0.0,0.0,0.0,0.0,0.0,0.0,0.0,0.0,0.0,0.0,0.0,0.0,0.0,0.0,0.0,0.0,0.0,0.0,0.0,0.0,0.0,-1.3868,-1.4945,0.0,0.0,0.0,0.0,0.0,0.0,0.0,0.0,-1.2776,0.0,0.0,0.0,0.0,0.0,0.0,0.0,0.0,0.0,0.0,0.0,0.0,0.0,0.0,0.0,0.0,0.0,0.0,0.0,0.0,0.0,0.0,0.0,0.0,0.0,0.0,0.0,0.0,0.0,0.0,0.0,0.0,0.0,0.0,0.0,0.0,0.0,0.0,0.0,0.0,0.0,0.0,0.0,0.0,0.0,0.0,0.0,0.0,0.0,0.0,0.0,0.0,0.0,0.0,0.0,-1.4251,-1.5468,-1.6593,-1.7639,-1.7706,-1.7312,-1.6539,-1.5969,-1.5146,0.0,0.0,0.0,0.0,0.0,0.0,0.0,0.0,0.0,0.0,0.0,0.0,0.0,0.0,0.0,0.0,0.0,0.0,0.0,0.0,0.0,0.0,0.0,0.0,0.0,0.0,0.0,0.0,0.0,0.0,0.0,0.0,0.0,0.0,0.0,0.0,0.0,0.0,0.0,0.0,-1.4298,-1.5375,-1.5499,0.0,0.0,0.0,0.0,0.0,0.0,-1.4322,-1.3582,0.0,0.0,0.0,0.0,0.0,0.0,0.0,0.0,0.0,0.0,0.0,0.0,0.0,0.0,0.0,0.0,0.0,0.0,0.0,0.0,0.0,0.0,0.0,0.0,0.0,0.0,0.0,0.0,0.0,0.0,0.0,0.0,0.0,0.0,0.0,0.0,0.0,0.0,0.0,0.0,0.0,0.0,0.0,0.0,0.0,0.0,0.0,0.0,0.0,0.0,0.0,0.0,0.0,0.0,0.0,-1.3205,-1.5095,-1.6459,-1.7274,-1.7312,-1.7034,-1.6497,-1.5555,-1.465,0.0,0.0,0.0,0.0,0.0,0.0,0.0,0.0,0.0,0.0,0.0,0.0,0.0,0.0,0.0,0.0,0.0,0.0,0.0,0.0,0.0,0.0,0.0,0.0,0.0,0.0,0.0,0.0,0.0,0.0,0.0,0.0,0.0,0.0,0.0,0.0,0.0,0.0,0.0,0.0,0.0,-1.5953,-1.6884,-1.6253,0.0,0.0,0.0,0.0,-1.6892,-1.5887,0.0,0.0,0.0,0.0,0.0,0.0,0.0,0.0,0.0,0.0,0.0,0.0,0.0,0.0,0.0,0.0,0.0,0.0,0.0,0.0,0.0,0.0,0.0,0.0,0.0,0.0,0.0,0.0,0.0,0.0,0.0,0.0,0.0,0.0,0.0,0.0,0.0,0.0,0.0,0.0,0.0,0.0,0.0,0.0,0.0,0.0,0.0,0.0,0.0,0.0,0.0,0.0,0.0,0.0,0.0,0.0,-1.3813,-1.4694,-1.5848,-1.7221,-1.7312,-1.7076,-1.6509,-1.5919,-1.4993,0.0,0.0,0.0,0.0,0.0,0.0,0.0,0.0,0.0,0.0,0.0,0.0,0.0,0.0,0.0,0.0,0.0,0.0,0.0,0.0,0.0,0.0,0.0,0.0,0.0,0.0,0.0,0.0,0.0,0.0,0.0,0.0,0.0,0.0,0.0,0.0,0.0,0.0,0.0,0.0,0.0,-1.8107,-1.6313,-1.7118,-1.7987,0.0,0.0,0.0,-1.9183,-1.9186,0.0,0.0,0.0,0.0,0.0,0.0,0.0,0.0,0.0,0.0,0.0,0.0,0.0,0.0,0.0,0.0,0.0,0.0,0.0,0.0,0.0,0.0,0.0,0.0,0.0,0.0,0.0,0.0,0.0,0.0,0.0,0.0,0.0,0.0,0.0,0.0,0.0,0.0,0.0,0.0,0.0,0.0,0.0,0.0,0.0,0.0,0.0,0.0,0.0,0.0,0.0,0.0,0.0,0.0,0.0,-1.1564,-1.3517,-1.4782,-1.5852,-1.6815,-1.6837,-1.6723,-1.6509,-1.5379,-1.4197,0.0,0.0,0.0,0.0,0.0,0.0,0.0,0.0,0.0,0.0,0.0,0.0,0.0,0.0,0.0,0.0,0.0,0.0,0.0,0.0,0.0,0.0,0.0,0.0,0.0,0.0,0.0,0.0,0.0,0.0,0.0,0.0,0.0,0.0,0.0,0.0,0.0,0.0,0.0,0.0,0.0,0.0,-1.8531,-1.9189,0.0,0.0,0.0,-1.9987,-2.0966,0.0,0.0,0.0,0.0,0.0,0.0,0.0,0.0,0.0,0.0,0.0,0.0,0.0,0.0,0.0,0.0,0.0,0.0,0.0,0.0,0.0,0.0,0.0,0.0,0.0,0.0,0.0,0.0,0.0,0.0,0.0,0.0,0.0,0.0,0.0,0.0,0.0,0.0,0.0,0.0,0.0,0.0,0.0,0.0,0.0,0.0,0.0,0.0,0.0,0.0,0.0,0.0,0.0,0.0,0.0,0.0,0.0,-1.344,-1.5027,-1.6039,-1.6497,-1.6534,-1.6534,-1.6497,-1.5079,0.0,0.0,0.0,0.0,0.0,0.0,0.0,0.0,0.0,0.0,0.0,0.0,0.0,0.0,0.0,0.0,0.0,0.0,0.0,0.0,0.0,0.0,0.0,0.0,0.0,0.0,0.0,-0.56,0.0,0.0,0.0,0.0,0.0,0.0,0.0,0.0,0.0,0.0,0.0,0.0,0.0,0.0,-1.9143,-2.0338,-2.0781,-2.1285,0.0,0.0,-2.1535,-2.2264,-2.1492,-2.0257,0.0,0.0,0.0,0.0,0.0,0.0,0.0,0.0,0.0,0.0,0.0,0.0,0.0,0.0,0.0,0.0,0.0,0.0,0.0,0.0,0.0,0.0,0.0,0.0,0.0,0.0,0.0,0.0,0.0,0.0,0.0,0.0,0.0,0.0,0.0,0.0,0.0,0.0,0.0,0.0,0.0,0.0,0.0,0.0,0.0,0.0,0.0,0.0,0.0,0.0,0.0,0.0,0.0,0.0,0.0,-1.4114,-1.5557,-1.6355,-1.6497,-1.6534,-1.6534,-1.6509,-1.5404,-1.4299,0.0,0.0,0.0,0.0,0.0,0.0,0.0,0.0,0.0,0.0,0.0,0.0,0.0,0.0,0.0,0.0,0.0,0.0,0.0,0.0,0.0,0.0,0.0,0.0,0.0,0.0,0.0,0.0,0.0,0.0,0.0,0.0,0.0,0.0,0.0,0.0,0.0,0.0,0.0,0.0,0.0,-2.0374,-2.0484,-2.1197,-2.2005,0.0,0.0,-2.2868,-2.2941,-2.3615,-2.2837,-1.8963,0.0,0.0,0.0,0.0,0.0,0.0,0.0,0.0,0.0,0.0,0.0,0.0,0.0,0.0,0.0,0.0,0.0,0.0,0.0,0.0,0.0,0.0,0.0,0.0,0.0,0.0,0.0,0.0,0.0,0.0,0.0,0.0,0.0,0.0,0.0,0.0,0.0,0.0,0.0,0.0,0.0,0.0,0.0,0.0,0.0,0.0,0.0,0.0,0.0,0.0,0.0,0.0,0.0,-1.2558,-1.4181,-1.5659,-1.6464,-1.6509,-1.6534,-1.6534,-1.6522,-1.5781,-1.4551,0.0,0.0,0.0,0.0,0.0,0.0,0.0,0.0,0.0,0.0,0.0,0.0,0.0,0.0,0.0,0.0,0.0,0.0,0.0,0.0,0.0,0.0,0.0,0.0,0.0,0.0,0.0,0.0,-0.7805,-0.8241,-0.8842,0.0,0.0,0.0,0.0,0.0,0.0,0.0,0.0,0.0,0.0,-2.0869,-2.1878,-2.2758,0.0,0.0,-2.3731,-2.3749,-2.3731,-2.3216,-2.2138,-2.0121,-1.9207,0.0,0.0,0.0,0.0,0.0,0.0,0.0,0.0,0.0,0.0,0.0,0.0,0.0,0.0,0.0,0.0,0.0,0.0,0.0,0.0,0.0,0.0,0.0,0.0,0.0,0.0,0.0,0.0,0.0,0.0,0.0,0.0,0.0,0.0,0.0,0.0,0.0,0.0,0.0,0.0,0.0,0.0,0.0,0.0,0.0,0.0,0.0,0.0,0.0,0.0,0.0,0.0,-1.2537,-1.4038,-1.5657,-1.6534,-1.6534,-1.6534,-1.6534,-1.6509,-1.5982,-1.4814,0.0,0.0,0.0,0.0,0.0,0.0,0.0,0.0,0.0,0.0,0.0,0.0,0.0,0.0,0.0,0.0,0.0,0.0,0.0,0.0,0.0,0.0,0.0,0.0,0.0,0.0,0.0,0.0,-0.8268,-0.8535,-0.9287,0.0,0.0,0.0,0.0,0.0,0.0,0.0,0.0,0.0,0.0,-2.1625,-2.2994,-2.3707,-2.4016,-2.3917,-2.3996,-2.4054,-2.4054,-2.3198,-2.2186,-2.1198,0.0,0.0,0.0,0.0,0.0,0.0,0.0,0.0,0.0,0.0,0.0,0.0,0.0,0.0,0.0,0.0,0.0,0.0,0.0,0.0,0.0,0.0,0.0,0.0,0.0,0.0,0.0,0.0,0.0,0.0,-0.6649,0.0,0.0,0.0,0.0,0.0,0.0,0.0,0.0,0.0,0.0,0.0,0.0,0.0,0.0,0.0,0.0,0.0,0.0,0.0,0.0,0.0,0.0,0.0,-1.3715,-1.5551,-1.6534,-1.6534,-1.6534,-1.6534,-1.6509,-1.5994,-1.5166,-1.4035,0.0,0.0,0.0,0.0,0.0,0.0,0.0,0.0,0.0,0.0,0.0,0.0,0.0,0.0,0.0,0.0,0.0,0.0,0.0,0.0,0.0,0.0,0.0,0.0,0.0,0.0,-0.8852,-0.9112,-0.9304,0.0,0.0,0.0,0.0,0.0,0.0,0.0,0.0,0.0,0.0,-2.1606,-2.2733,-2.353,-2.3696,-2.3588,-2.3282,-2.3522,-2.3714,-2.3732,-2.3903,-2.3621,0.0,0.0,0.0,0.0,0.0,0.0,0.0,0.0,0.0,0.0,0.0,0.0,0.0,0.0,0.0,0.0,0.0,0.0,0.0,0.0,0.0,0.0,0.0,0.0,0.0,0.0,0.0,-1.0493,-0.9629,0.0,0.0,0.0,0.0,0.0,0.0,0.0,0.0,0.0,0.0,0.0,-1.4111,-1.5392,0.0,0.0,0.0,0.0,0.0,0.0,0.0,0.0,0.0,0.0,0.0,0.0,-1.2949,-1.4232,-1.5741,-1.6534,-1.6534,-1.6534,-1.6534,-1.6522,-1.6346,-1.5379,-1.3559,0.0,0.0,0.0,0.0,0.0,0.0,0.0,0.0,0.0,0.0,0.0,0.0,0.0,0.0,0.0,0.0,0.0,0.0,0.0,0.0,0.0,0.0,0.0,0.0,0.0,-0.8919,0.0,0.0,0.0,0.0,0.0,0.0,0.0,0.0,0.0,0.0,0.0,-1.8108,-2.0398,-2.1551,-2.2451,-2.3262,-2.3369,-2.3323,0.0,0.0,0.0,0.0,0.0,0.0,0.0,0.0,0.0,0.0,0.0,0.0,0.0,0.0,-2.1006,-1.8196,-1.7055,-1.6652,-1.7197,0.0,0.0,0.0,0.0,0.0,0.0,0.0,0.0,0.0,0.0,0.0,0.0,0.0,0.0,-1.268,0.0,-1.1733,0.0,0.0,0.0,0.0,0.0,0.0,0.0,0.0,-1.5103,-1.6032,-1.607,-1.7162,-1.7099,0.0,-1.5709,-1.435,0.0,0.0,0.0,0.0,0.0,0.0,0.0,0.0,-1.3378,-1.4633,-1.585,-1.6534,-1.6534,-1.6534,-1.6534,-1.6522,-1.6333,-1.5467,-1.3848,-1.2743,-1.1429,0.0,0.0,0.0,0.0,0.0,0.0,0.0,0.0,0.0,0.0,0.0,0.0,0.0,0.0,0.0,0.0,0.0,0.0,0.0,0.0,0.0,0.0,0.0,-0.8919,0.0,0.0,0.0,0.0,0.0,0.0,0.0,0.0,0.0,-1.6089,-1.756,-1.9341,-2.1331,-2.1949,-2.254,-2.333,0.0,0.0,0.0,0.0,0.0,0.0,0.0,-2.3206,-2.3206,-2.2782,-2.2318,-2.203,-2.2653,-2.3029,-2.2482,0.0,0.0,-2.0534,-1.9502,-1.9182,-1.9711,-1.9787,-1.9968,-2.0482,-2.0813,-2.1013,0.0,0.0,0.0,0.0,0.0,0.0,0.0,0.0,-1.4588,-1.4614,0.0,-1.3885,0.0,0.0,0.0,0.0,0.0,0.0,0.0,0.0,-1.7476,-1.8267,-1.8242,-1.8279,-1.8267,-1.8229,-1.8166,-1.7601,-1.6384,-1.3358,0.0,0.0,0.0,0.0,0.0,0.0,-1.3986,-1.4928,-1.5957,-1.6534,-1.6534,-1.6534,-1.6534,-1.6509,-1.6019,-1.548,-1.4941,-1.3873,-1.2847,-1.1954,-1.0542,0.0,0.0,0.0,0.0,0.0,0.0,0.0,0.0,0.0,0.0,0.0,0.0,0.0,0.0,0.0,0.0,0.0,0.0,0.0,0.0,-0.8936,0.0,0.0,0.0,0.0,0.0,0.0,0.0,0.0,0.0,0.0,-1.7967,-1.9332,-2.1042,-2.2845,0.0,0.0,0.0,0.0,-2.3794,-2.3498,-2.4327,-2.4942,-2.4959,-2.5222,-2.5394,-2.5438,0.0,0.0,-2.4339,-2.4875,-2.4901,-2.3439,-2.3791,-2.4204,-2.375,-2.3133,-2.2832,-2.2868,-2.2776,-2.296,-2.3015,-2.3289,-2.3857,-1.9221,0.0,0.0,0.0,0.0,-1.7601,-1.8141,-1.9044,-1.8893,-1.8239,-1.7225,-1.6923,0.0,0.0,0.0,0.0,0.0,0.0,-1.735,-1.7576,-1.9196,-1.9748,-1.9359,-1.9773,-1.9547,-1.8807,-1.8794,-1.8417,-1.7702,-1.6773,-1.4827,-1.1989,0.0,0.0,0.0,0.0,-1.4815,-1.5454,-1.6158,-1.6534,-1.6534,-1.6534,-1.6534,-1.6534,-1.6371,-1.6019,-1.548,-1.5153,-1.4208,-1.2569,-1.1945,0.0,0.0,0.0,0.0,0.0,0.0,0.0,0.0,0.0,0.0,0.0,0.0,0.0,0.0,0.0,0.0,0.0,0.0,0.0,-0.9641,-0.9692,-1.0318,0.0,0.0,0.0,0.0,0.0,0.0,0.0,0.0,0.0,-2.1196,-2.169,-2.2332,0.0,0.0,-2.3891,-2.3585,-2.3994,-2.4322,-2.4184,0.0,0.0,0.0,-2.4731,-2.479,-2.479,-2.4773,-2.4704,-2.4452,-2.4653,-2.4636,-2.419,-2.4493,-2.4756,-2.4585,-2.3815,-2.3209,-2.3155,-2.3137,-2.3137,-2.3155,-2.3334,-2.35,-2.2523,-2.1162,-2.0012,-1.9823,-2.026,-2.0338,-2.0715,-2.1305,-2.1091,-2.0552,-1.9811,-1.9371,-1.8555,-1.7521,-1.7068,0.0,0.0,0.0,-1.9183,-1.9221,-2.0479,-2.0815,-2.0514,-2.0882,-2.0652,-2.0024,-1.9999,-1.971,-1.9171,-1.8945,-1.7438,-1.4789,0.0,0.0,-1.44,-1.4927,-1.5593,-1.6321,-1.6459,-1.6534,-1.6534,-1.6534,-1.6534,-1.6534,-1.6534,-1.6371,-1.6032,-1.5806,-1.5055,-1.3642,-1.2894,-1.179,0.0,0.0,0.0,0.0,0.0,0.0,0.0,0.0,0.0,0.0,0.0,-0.7722,0.0,0.0,0.0,0.0,-0.9983,-1.0511,-1.1135,-1.1814,0.0,0.0,0.0,0.0,0.0,0.0,0.0,-2.0291,-2.1701,-2.2852,-2.3739,-2.387,-2.3955,-2.4252,-2.4391,-2.4455,-2.4289,0.0,-2.4932,-2.4932,-2.5169,-2.5387,-2.5355,-2.5387,-2.5355,-2.5355,-2.5355,-2.5355,-2.5387,-2.5355,-2.5285,-2.5031,-2.5084,-2.515,-2.4842,-2.4182,-2.3824,-2.4053,-2.412,-2.412,-2.4102,-2.4138,-2.4032,-2.4943,-2.4691,-2.2749,-2.2121,-2.2498,-2.251,-2.251,-2.2472,-2.197,-2.202,-2.2359,-2.133,-2.1091,-2.1418,-2.0413,0.0,-1.9962,-2.0592,-2.0844,-2.0869,-2.1368,-2.1594,-2.1556,-2.1556,-2.1531,-2.1481,-2.1481,-2.123,-2.0756,-2.015,-1.9371,-1.8392,-1.7275,-1.6936,-1.73,-1.6384,-1.6409,-1.7426,-1.6873,-1.6529,-1.6534,-1.6534,-1.6534,-1.6534,-1.6534,-1.6497,-1.6403,-1.5957,-1.5417,-1.484,-1.3536,-1.2415,-1.1549,0.0,0.0,0.0,0.0,0.0,0.0,0.0,0.0,0.0,0.0,0.0,0.0,0.0,0.0,0.0,-1.1826,0.0,-1.3194,-1.4696,0.0,0.0,0.0,-1.7265,-1.8166,-2.0069,-2.1623,-2.2367,0.0,0.0,0.0,0.0,-2.5693,-2.5693,-2.5101,-2.4881,-2.5524,-2.5642,-2.5693,-2.5693,-2.6251,-2.6674,-2.6539,-2.6556,-2.6556,-2.6556,-2.6708,-2.6623,-2.6607,-2.6623,-2.6387,-2.5812,-2.5693,-2.5507,-2.4811,-2.4757,-2.4842,-2.546,-2.5428,-2.5341,-2.5288,-2.5243,-2.5015,-2.6247,-2.555,-2.5393,-2.487,-2.423,-2.4217,-2.423,-2.4205,-2.4092,-2.3866,-2.3552,-2.2862,-2.2159,-2.1468,-2.1204,-2.1091,-2.1117,-2.1669,-2.192,-2.1958,-2.2485,-2.2535,-2.2133,-2.2121,-2.1895,-2.1506,-2.1481,-2.143,-2.1267,-2.074,-2.0391,-2.0037,-1.897,-1.8078,-1.7413,-1.7526,-1.7727,-1.8016,-1.7463,-1.6961,-1.6547,-1.6534,-1.6534,-1.6534,-1.6534,-1.6321,-1.5919,-1.5768,-1.5281,-1.4361,-1.4065,-1.3285,-1.1867,-1.0931,0.0,0.0,0.0,0.0,0.0,0.0,0.0,0.0,0.0,-1.1097,-0.9297,0.0,-1.1962,0.0,-1.3373,-1.4239,-1.5266,-1.5753,0.0,0.0,-1.8793,-1.9588,-2.1798,-2.2178,-2.2701,-2.3836,-2.478,-2.5406,-2.5575,-2.6099,-2.6437,-2.6437,-2.6268,-2.6031,-2.571,-2.6099,-2.6437,-2.6437,-2.6573,-2.6708,-2.6708,-2.6708,-2.6708,-2.6708,-2.6708,-2.6708,-2.6708,-2.6708,-2.664,-2.6471,-2.6437,-2.6353,-2.6167,-2.6167,-2.6199,-2.6292,-2.5535,-2.4731,-2.4731,-2.4778,-2.4697,-2.5875,-2.5379,-2.5642,-2.5337,-2.479,-2.4844,-2.4493,-2.3927,-2.4341,-2.4193,-2.3732,-2.3829,-2.354,-2.2987,-2.2975,-2.2987,-2.2975,-2.3037,-2.3062,-2.3062,-2.3113,-2.2902,-2.2673,-2.2673,-2.251,-2.2234,-2.2221,-2.2096,-2.1845,-2.1543,-2.1267,-2.1071,-2.0175,-1.9459,-1.8857,-1.8417,-1.8329,-1.8568,-1.7777,-1.7225,-1.6911,-1.6647,-1.6534,-1.6534,-1.6534,-1.6384,-1.607,-1.5831,-1.5331,-1.45,-1.4288,-1.3625,-1.2407,-1.1837,-1.1247,0.0,0.0,0.0,0.0,0.0,0.0,0.0,0.0,0.0,0.0,0.0,-1.3566,0.0,-1.5099,-1.6129,-1.7024,-1.8097,-1.9325,-2.0743,-2.0931,-2.1535,-2.3046,-2.3258,-2.3551,-2.4231,-2.4975,-2.5438,-2.5438,-2.5995,-2.6401,-2.6401,-2.659,-2.6556,-2.6218,-2.6454,-2.6708,-2.6708,-2.6708,-2.6708,-2.6708,-2.6708,-2.6708,-2.6708,-2.6708,-2.6708,-2.6708,-2.6708,-2.6708,-2.6708,-2.6708,-2.6708,-2.6708,-2.6708,-2.6708,-2.659,-2.6065,-2.5541,-2.5473,-2.5488,-2.5406,-2.5004,-2.4758,-2.477,-2.467,-2.4458,-2.4671,-2.4028,-2.2977,-2.3921,-2.4029,-2.3652,-2.4493,-2.4883,-2.4833,-2.4833,-2.4833,-2.4795,-2.4318,-2.4104,-2.4067,-2.3514,-2.319,-2.3178,-2.3115,-2.3125,-2.3125,-2.3125,-2.2887,-2.2422,-2.2359,-2.2071,-2.1581,-2.1041,-2.0781,-2.0655,-1.9233,-1.8694,-1.8958,-1.8066,-1.7526,-1.7375,-1.6886,-1.6597,-1.6534,-1.6534,-1.6441,-1.6409,-1.5957,-1.5442,-1.4928,-1.4487,-1.3919,-1.3192,-1.2813,-1.2581,0.0,-1.2091,0.0,0.0,0.0,0.0,0.0,0.0,0.0,0.0,-1.5261,-1.5433,-1.5357,-1.6952,-1.8202,-1.8734,-2.0761,-2.2054,-2.2139,-2.2655,-2.3047,-2.3151,-2.374,-2.4175,-2.4249,-2.4814,-2.5221,-2.5227,-2.568,-2.6036,-2.6211,-2.6559,-2.6803,-2.6859,-2.6793,-2.6708,-2.6708,-2.6708,-2.6708,-2.6708,-2.6708,-2.6708,-2.6708,-2.6708,-2.6708,-2.6708,-2.6708,-2.6708,-2.6708,-2.6708,-2.6708,-2.6708,-2.6708,-2.6708,-2.6691,-2.6623,-2.659,-2.659,-2.6556,-2.6471,-2.5814,-2.4345,-2.4678,-2.3902,-2.2483,-2.3313,-2.3732,-2.3962,-2.4611,-2.4981,-2.517,-2.5382,-2.5222,-2.4833,-2.4833,-2.4833,-2.4755,-2.472,-2.4669,-2.4632,-2.4092,-2.3841,-2.3803,-2.329,-2.3125,-2.3125,-2.3125,-2.3027,-2.2975,-2.2523,-2.2259,-2.2146,-2.1606,-2.1104,-2.0731,0.0,0.0,0.0,-1.8832,-1.8279,-1.7426,-1.7275,-1.6986,-1.6547,-1.6534,0.0,-1.5869,-1.5743,-1.5442,-1.4953,-1.5131,0.0,0.0,0.0,0.0,0.0,0.0,0.0,0.0,0.0,0.0,0.0,-1.5695,-1.5845,-1.5665,-1.7058,-1.7794,-1.7297,-1.8989,-2.0284,-2.0729,-2.1636,-2.2373,-2.2782,-2.3073,-2.3405,-2.3835,-2.4155,-2.4508,-2.4952,-2.5102,-2.5198,-2.5208,-2.5773,-2.6338,-2.6754,-2.6997,-2.7283,-2.775,-2.7155,-2.6708,-2.6708,-2.6708,-2.6708,-2.6708,-2.6708,-2.6708,-2.6708,-2.6708,-2.6708,-2.6708,-2.6708,-2.6708,-2.6708,-2.6708,-2.6708,-2.6708,-2.6708,-2.6708,-2.6708,-2.6708,-2.6708,-2.6708,-2.6708,-2.664,-2.4608,0.0,-2.3877,-2.3388,0.0,-2.2832,-2.3084,-2.3381,-2.3754,-2.4116,-2.4576,-2.5087,-2.5171,-2.4927,-2.5423,-2.5624,-2.5611,-2.5335,-2.5209,-2.5172,-2.4657,-2.4406,-2.4393,-2.3828,-2.3552,-2.3552,-2.3276,-2.3125,-2.3113,-2.2802,-2.2711,-2.2698,-2.2171,-2.1619,-2.1079,-2.0567,-1.9974,-1.9409,-1.9108,-1.8756,-1.8204,-1.7664,-1.7237,-1.6948,0.0,0.0,0.0,0.0,0.0,0.0,0.0,0.0,0.0,0.0,0.0,-1.5128,-1.4765,-1.4863,-1.5652,-1.6069,-1.6518,-1.7176,-1.7834,-1.7909,-1.7266,-1.8433,-1.9196,-1.9191,-2.0102,-2.0918,-2.147,-2.2093,-2.2583,-2.2848,-2.3188,-2.3585,-2.3804,-2.3943,-2.4116,-2.4395,-2.4699,-2.4901,-2.4901,-2.5717,-2.6393,-2.6716,-2.7029,-2.7426,-2.7896,-2.7346,-2.6783,-2.6691,-2.6708,-2.6708,-2.6708,-2.6708,-2.6708,-2.6708,-2.6708,-2.6708,-2.6708,-2.6708,-2.6708,-2.6708,-2.6708,-2.6708,-2.6708,-2.6708,-2.6708,-2.6708,-2.6708,-2.6708,-2.6708,-2.6708,-2.6708,-2.3299,-2.3144,-2.3144,-2.3144,-2.3105,-2.2764,-2.2578,-2.2546,0.0,0.0,0.0,-2.4476,-2.4801,-2.4779,-2.5804,-2.6245,-2.6208,-2.5907,-2.5749,-2.5724,-2.5197,-2.4958,-2.4933,-2.4406,-2.4155,-2.4117,-2.3552,-2.3288,-2.3276,-2.3188,-2.3125,-2.304,-2.2673,-2.2133,-2.1455,-2.0363,-1.9798,-1.9786,-1.9384,-1.912,-1.8945,-1.8041,-1.7488,-1.7388,-1.6823,-1.6534,-1.6522,-1.6082,-1.5844,-1.5831,-1.5404,-1.5142,-1.5171,-1.5376,-1.5817,-1.6377,-1.6676,-1.7153,-1.7844,-1.7926,-1.8197,-1.8837,-1.9375,-1.945,-1.8912,-1.9495,-2.0094,-2.0677,-2.0917,-2.1306,-2.1829,-2.2458,-2.2847,-2.2847,-2.3295,-2.3595,-2.3595,-2.3595,-2.3683,-2.3804,-2.4312,-2.4672,-2.4837,-2.5758,-2.6472,-2.6622,-2.7029,-2.7386,-2.781,-2.7629,-2.7288,-2.709,-2.7179,-2.7165,-2.7131,-2.7199,-2.7097,-2.7232,-2.7182,-2.7097,-2.7097,-2.6996,-2.6911,-2.6962,-2.681,-2.6708,-2.6708,-2.6708,-2.6708,-2.6708,-2.6708,-2.6708,-2.6708,-2.6708,-2.6708,-2.3963,-2.3144,-2.3144,-2.3144,-2.3144,-2.3076,-2.2842,-2.2565,-2.2992,-2.3517,-2.4078,-2.4228,-2.4078,-2.3745,-2.4779,-2.5241,-2.5288,-2.6008,-2.6408,0.0,-2.5749,-2.5485,-2.546,-2.4946,-2.4707,-2.4657,-2.4142,-2.3879,-2.3828,-2.3376,-2.3125,-2.3065,-2.3002,-2.2498,-2.1481,-2.0363,-1.9798,-1.9798,-1.9723,-1.9472,-1.9032,-1.8405,-1.7852,-1.7388,-1.6835,-1.6534,-1.6522,-1.6446,-1.6409,-1.6409,-1.6321,-1.6223,-1.61,-1.5809,-1.6061,-1.6883,-1.6745,-1.7191,-1.8599,-1.873,-1.8987,-1.9489,-1.963,-1.9645,-1.9585,-2.0168,-2.0602,-2.0752,-2.171,-2.2469,-2.2562,-2.3086,-2.343,-2.3445,-2.355,-2.3595,-2.3595,-2.3595,-2.3819,-2.4373,-2.4552,-2.4896,-2.5435,-2.6129,-2.6805,-2.7226,-2.7472,-2.7542,-2.7637,-2.8192,-2.8419,-2.8118,-2.838,-2.8617,-2.8376,-2.8636,-2.8446,-2.8706,-2.8516,-2.8431,-2.8467,-2.8027,-2.7689,-2.7655,-2.7249,-2.6843,-2.6759,-2.6708,-2.6742,-2.6742,-2.6708,-2.6708,-2.6657,-2.6657,-2.6657,-2.3551,-2.3135,-2.3144,-2.3144,-2.3144,-2.3144,-2.3037,-2.2842,-2.3128,-2.3052,-2.3081,-2.4127,-2.4388,-2.4015,-2.5565,-2.6073,-2.5804,-2.6314,-2.6521,-2.6508,-2.6176,-2.6076,-2.6013,-2.5511,-2.5234,-2.5209,-2.4695,-2.4293,-2.3991,-2.3715,-2.3439,-2.3078,-2.2849,-2.2435,-2.1895,-2.0828,-2.0263,-2.0263,-1.9962,-1.9685,-1.9447,-1.8932,-1.8392,-1.784,-1.7287,-1.6835,-1.6534,-1.6534,-1.6534,-1.6534,-1.6534,-1.6469,-1.6395,-1.6216,-1.6453,-1.7156,-1.7037,-1.7502,-1.8841,-1.9169,-1.9442,-1.9705,-2.0049,-2.0243,-2.0243,-2.0528,-2.1006,-2.1695,-2.2368,-2.2873,-2.3131,-2.343,-2.3595,-2.3595,-2.3595,-2.3595,-2.3595,-2.3595,-2.3879,-2.4537,-2.4941,-2.542,-2.6048,-2.6707,-2.721,-2.7552,-2.7841,-2.7939,-2.7616,-2.8462,-2.8788,-2.7891,-2.7858,-2.7977,-2.805,-2.8017,-2.8151,-2.8439,-2.8515,-2.8645,-2.8884,-2.8619,-2.8484,-2.8433,-2.8129,-2.7791,-2.7384,-2.73,-2.7148,-2.6742,-2.6708,-2.6624,-2.6401,-2.6332,-2.6401,-2.3144,-2.3144,-2.3144,-2.3144,-2.3144,-2.3144,-2.3144,-2.3144,-2.3135,-2.2773,-2.2438,-2.3805,-2.4213,-2.406,-2.5765,-2.6448,-2.6226,-2.6164,-2.6302,-2.6465,-2.6245,-2.6314,-2.6427,-2.5988,-2.5799,-2.5724,-2.5247,-2.4707,-2.423,-2.4067,-2.3703,-2.3078,-2.2585,-2.2322,-2.2297,-2.1217,-2.0718,-2.068,-2.0087,-1.9798,-1.9786,-1.9284,-1.8783,-1.8392,-1.7727,-1.7174,-1.6735,-1.6584,-1.6534,-1.6534,-1.6534,-1.6534,-1.6534,-1.6534,-1.668,-1.7076,-1.7105,-1.7544,-1.8472,-1.915,-1.9575,-1.9745,-2.0324,-2.0822,-2.1102,-2.1156,-2.156,-2.2544,-2.2828,-2.3101,-2.3475,-2.3595,-2.3595,-2.3595,-2.3595,-2.3595,-2.361,-2.3744,-2.4059,-2.4716,-2.542,-2.6063,-2.6707,-2.7245,-2.7565,-2.7615,-2.7993,-2.8042,-2.781,-2.8448,-2.84,-2.7753,-2.749,-2.7828,-2.7705,-2.7796,-2.8023,-2.8331,-2.8599,-2.8936,-2.9269,-2.9303,-2.9138,-2.9029,-2.8824,-2.8343,-2.7801,-2.7631,-2.7311,-2.6726,-2.6559,-2.6407,-2.5921,-2.5799,-2.5997,-2.3144,-2.3144,-2.3144,-2.3144,-2.3144,-2.3144,-2.3144,-2.3144,-2.3144,-2.3028,-2.2949,-2.2778,-2.2869,-2.296,-2.4136,-2.492,-2.5265,-2.5158,-2.5652,-2.6314,-2.5594,-2.5594,-2.6383,-2.6458,-2.6445,-2.6357,-2.5787,-2.5259,-2.4745,-2.423,-2.3703,-2.3078,-2.2573,-2.2334,-2.2209,-2.1242,-2.0731,-2.0718,-2.01,-1.9798,-1.9773,-1.9246,-1.8958,-1.8895,-1.794,-1.7363,-1.7262,-1.6798,-1.6534,-1.6534,-1.6534,-1.6534,-1.6534,-1.6534,-1.6522,-1.6595,-1.6607,-1.6837,-1.7475,-1.8399,-1.9262,-1.9829,-2.0388,-2.1228,-2.2271,-2.2473,-2.2517,-2.2813,-2.3206,-2.3505,-2.358,-2.3595,-2.3595,-2.361,-2.3655,-2.3595,-2.3714,-2.4119,-2.476,-2.545,-2.6063,-2.6737,-2.7275,-2.75,-2.756,-2.756,-2.771,-2.776,-2.7675,-2.776,-2.7913,-2.7829,-2.8389,-2.8955,-2.8952,-2.9154,-2.8933,-2.9115,-2.9648,-2.9805,-2.9865,-2.9888,-2.9837,-2.9194,-2.8718,-2.8181,-2.7624,-2.7224,-2.7081,-2.6629,-2.6315,-2.6053,-2.5468,-2.5297,-2.5486,-2.3144,-2.3144,-2.3144,-2.3144,-2.3144,-2.3144,-2.3144,-2.3144,-2.3144,-2.3144,-2.3125,-2.2949,-2.3429,-2.4465,-2.5222,-2.5808,-2.6282,-2.5432,-2.5229,-2.5594,-2.5158,-2.5229,-2.5664,-2.6233,-2.6521,-2.6521,-2.6214,-2.5824,-2.5222,-2.4418,-2.3715,-2.3115,-2.2899,-2.2786,-2.2736,-2.2033,-2.1481,-2.1197,-2.0589,-2.015,-1.9823,-1.9597,-1.9334,-1.897,-1.8581,-1.8016,-1.7438,-1.7137,-1.6873,-1.6559,-1.6534,-1.6534,-1.6534,-1.6534,-1.6534,-1.6547,-1.714,-1.7596,-1.781,-1.8843,-1.957,-1.9824,-2.0741,-2.1528,-2.206,-2.277,-2.3221,-2.3266,-2.346,-2.3595,-2.3595,-2.3595,-2.3595,-2.3655,-2.394,-2.4209,-2.4223,-2.4759,-2.5458,-2.606,-2.6422,-2.6841,-2.7395,-2.756,-2.756,-2.756,-2.756,-2.756,-2.756,-2.756,-2.756,-2.766,-2.8027,-2.8255,-2.8352,-2.8352,-2.8496,-2.8826,-2.9042,-2.9271,-2.9713,-2.9729,-2.9554,-2.9308,-2.8984,-2.8527,-2.8025,-2.7801,-2.7625,-2.692,-2.6005,-2.5601,-2.5249,-2.495,-2.4894,-2.3144,-2.3144,-2.3144,-2.3144,-2.3144,-2.3144,-2.3144,-2.3144,-2.3144,-2.3144,-2.3144,-2.3144,-2.3961,-2.5311,-2.5667,-2.6042,-2.6227,-2.4999,-2.4464,-2.4515,-2.4337,-2.4409,-2.5004,-2.5734,-2.6094,-2.6176,-2.6383,-2.6151,-2.5536,-2.4519,-2.3778,-2.3401,-2.3213,-2.3125,-2.3075,-2.2585,-2.2121,-2.1694,-2.1041,-2.0451,-2.0075,-1.9886,-1.961,-1.9271,-1.9046,-1.8631,-1.7877,-1.7689,-1.735,-1.6798,-1.6748,-1.6685,-1.6534,-1.6672,-1.6823,-1.6986,-1.7753,-1.8195,-1.8208,-1.9078,-1.9656,-1.9935,-2.0879,-2.1513,-2.1839,-2.2746,-2.3304,-2.3348,-2.3508,-2.3595,-2.3595,-2.3595,-2.367,-2.3864,-2.4343,-2.4672,-2.4896,-2.5491,-2.6042,-2.6527,-2.6752,-2.7021,-2.744,-2.756,-2.756,-2.756,-2.756,-2.756,-2.756,-2.756,-2.756,-2.756,-2.7625,-2.761,-2.756,-2.771,-2.786,-2.8091,-2.8415,-2.8732,-2.9134,-2.9225,-2.921,-2.9064,-2.9178,-2.8886,-2.8077,-2.7936,-2.7837,-2.7121,-2.6262,-2.5515,-2.5383,-2.4983,-2.4733,-2.3144,-2.3144,-2.3144,-2.3144,-2.3144,-2.3144,-2.3144,-2.3144,-2.3144,-2.3144,-2.3144,-2.3144,-2.379,-2.4693,-2.4366,-2.4255,-2.429,-2.3383,-2.3188,-2.3475,-2.2627,-2.322,-2.4933,-2.5075,-2.5075,-2.5146,-2.5804,-2.6015,-2.5482,-2.448,-2.3991,-2.3916,-2.3401,-2.3125,-2.3002,-2.2623,-2.2309,-2.2133,-2.128,-2.0718,-2.0552,-2.0087,-1.9811,-1.9698,-1.9296,-1.9007,-1.8857,-1.8442,-1.7903,-1.7408,-1.7338,-1.7112,-1.666,-1.7061,-1.7564,-1.8003,-1.8176,-1.8213,-1.8264,-1.8814,-1.9361,-1.9917,-2.0566,-2.1094,-2.1586,-2.2289,-2.2725,-2.2754,-2.329,-2.3626,-2.3684,-2.3729,-2.3969,-2.4492,-2.4625,-2.4987,-2.5495,-2.6141,-2.6534,-2.6741,-2.7111,-2.7475,-2.7545,-2.756,-2.756,-2.756,-2.756,-2.756,-2.756,-2.756,-2.756,-2.756,-2.756,-2.756,-2.756,-2.756,-2.761,-2.781,-2.814,-2.8463,-2.8685,-2.8873,-2.8826,-2.8732,-2.8591,-2.8304,-2.7864,-2.7515,-2.7346,-2.6847,-2.6288,-2.5742,-2.5543,-2.5545,-2.5258,-2.3144,-2.3144,-2.3144,-2.3144,-2.3144,-2.3144,-2.3144,-2.3144,-2.3144,-2.3144,-2.3144,-2.3144,-2.3299,-2.3704,-2.3477,-2.3898,-2.4526,-2.3335,-2.2632,-2.251,-2.2178,-2.2403,-2.3073,-2.3745,-2.4047,-2.4108,-2.4397,-2.4637,-2.4619,-2.3905,-2.372,-2.3879,-2.3366,-2.3125,-2.304,-2.289,-2.2673,-2.2309,-2.1895,-2.1393,-2.0781,-2.0464,-2.0188,-1.9823,-1.9635,-1.9359,-1.9045,-1.8783,-1.848,-1.7928,-1.7915,-1.7827,-1.7652,-1.779,-1.799,-1.8216,-1.853,-1.8731,-1.8794,-1.9221,-1.9611,-1.9862,-2.0466,-2.0845,-2.1161,-2.1677,-2.2253,-2.2692,-2.3296,-2.3759,-2.4149,-2.4253,-2.4522,-2.5136,-2.5619,-2.5907,-2.6276,-2.6831,-2.7235,-2.7295,-2.7455,-2.756,-2.756,-2.756,-2.756,-2.756,-2.756,-2.756,-2.756,-2.756,-2.756,-2.756,-2.756,-2.756,-2.756,-2.756,-2.761,-2.761,-2.7795,-2.7894,-2.8076,-2.8125,-2.8125,-2.8174,-2.8042,-2.7993,-2.7595,-2.7565,-2.7275,-2.6856,-2.6288,-2.6123,-2.5674,-2.5899,-2.5495,-2.3144,-2.3144,-2.3144,-2.3144,-2.3144,-2.3144,-2.3144,-2.3144,-2.3144,-2.3144,-2.3144,-2.3144,-2.3144,-2.3144,-2.3144,-2.3408,-2.4047,-2.2943,-2.2172,-2.1753,-2.1589,-2.1745,-2.2103,-2.2713,-2.2999,-2.2999,-2.2999,-2.3335,-2.3851,-2.3269,-2.3179,-2.371,-2.3071,-2.2823,-2.3078,-2.3125,-2.2924,-2.2611,-2.241,-2.1857,-2.1083,-2.0806,-2.0388,-1.9899,-1.9798,-1.966,-1.9284,-1.9284,-1.902,-1.8568,-1.8468,-1.848,-1.8468,-1.8468,-1.8555,-1.8731,-1.907,-1.9221,-1.9309,-1.961,-1.9798,-1.9811,-2.0194,-2.0497,-2.0497,-2.1051,-2.1664,-2.2356,-2.3202,-2.3967,-2.4717,-2.5116,-2.545,-2.5884,-2.6339,-2.6717,-2.6871,-2.729,-2.7515,-2.753,-2.7545,-2.756,-2.756,-2.756,-2.756,-2.756,-2.756,-2.756,-2.756,-2.756,-2.756,-2.756,-2.756,-2.756,-2.756,-2.756,-2.756,-2.761,-2.761,-2.761,-2.756,-2.756,-2.756,-2.756,-2.756,-2.756,-2.756,-2.756,-2.732,-2.6961,-2.6916,-2.6826,-2.6542,-2.6363,-2.6004,-2.3144,-2.3144,-2.3144,-2.3144,-2.3144,-2.3144,-2.3144,-2.3144,-2.3144,-2.3144,-2.3144,-2.3144,-2.3144,-2.3144,-2.3144,-2.2987,-2.2745,-2.232,-2.1804,-2.1391,-2.0968,-2.1225,-2.1949,-2.1983,-2.2038,-2.2038,-2.2038,-2.2553,-2.3329,-2.2573,-2.2491,-2.2956,-2.2337,-2.2259,-2.3005,-2.2811,-2.2944,-2.2855,-2.2493,-2.2026,-2.1518,-2.0999,-2.0407,-1.9833,-1.977,-1.972,-1.9709,-1.9748,-1.951,-1.9095,-1.8983,-1.9032,-1.902,-1.9032,-1.9233,-1.9585,-1.9761,-1.9773,-1.9761,-1.9773,-1.9798,-1.9798,-1.985,-1.9901,-2.0003,-2.0511,-2.1123,-2.176,-2.2908,-2.4115,-2.5257,-2.5997,-2.6464,-2.6587,-2.6714,-2.6954,-2.7385,-2.7545,-2.756,-2.756,-2.756,-2.756,-2.756,-2.756,-2.756,-2.756,-2.7649,-2.7649,-2.7619,-2.7664,-2.7634,-2.756,-2.756,-2.756,-2.756,-2.756,-2.756,-2.761,-2.761,-2.756,-2.756,-2.756,-2.756,-2.756,-2.756,-2.756,-2.756,-2.756,-2.756,-2.7335,-2.7425,-2.7395,-2.7186,-2.6946,-2.6811,-2.3144,-2.3144,-2.3144,-2.3144,-2.3144,-2.3144,-2.3144,-2.3144,-2.3144,-2.3144,-2.3144,-2.3144,-2.3144,-2.3144,-2.3144,-2.3066,-2.292,-2.251,-2.209,-2.167,-2.123,-2.1164,-2.1332,-2.1151,-2.1001,-2.1001,-2.1011,-2.1517,-2.2222,-2.1773,-2.1832,-2.2173,-2.1729,-2.1369,-2.1451,-2.1404,-2.1616,-2.2163,-2.2104,-2.1993,-2.1981,-2.1272,-2.0507,-1.9776,-1.9546,-1.9377,-1.9069,-1.9527,-1.9723,-1.9547,-1.956,-1.956,-1.956,-1.9572,-1.9635,-1.9773,-1.9798,-1.9798,-1.9798,-1.9798,-1.9798,-1.9798,-1.9798,-1.9798,-1.9861,-2.0371,-2.1004,-2.1616,-2.2748,-2.4008,-2.5269,-2.6118,-2.6681,-2.7195,-2.7295,-2.7295,-2.755,-2.756,-2.756,-2.756,-2.756,-2.756,-2.756,-2.756,-2.756,-2.7619,-2.7934,-2.8128,-2.7754,-2.8023,-2.8023,-2.7709,-2.7649,-2.7754,-2.7925,-2.7874,-2.7769,-2.7709,-2.7664,-2.7575,-2.756,-2.756,-2.756,-2.756,-2.756,-2.756,-2.756,-2.756,-2.756,-2.756,-2.7515,-2.7515,-2.756,-2.7425,-2.725,-2.3144,-2.3144,-2.3144,-2.3144,-2.3144,-2.3144,-2.3144,-2.3144,-2.3144,-2.3144,-2.3144,-2.3144,-2.3144,-2.3144,-2.3144,-2.3144,-2.3105,-2.2852,-2.2607,-2.2236,-2.1523,-2.125,-2.1182,-2.0781,-2.0576,-2.0576,-2.0576,-2.0857,-2.142,-2.0992,-2.1053,-2.1501,-2.1032,-2.0775,-2.0783,-2.068,-2.091,-2.1365,-2.1416,-2.1357,-2.1236,-2.0817,-2.012,-1.9448,-1.9101,-1.9013,-1.897,-1.9271,-1.9527,-1.9747,-1.9798,-1.9798,-1.9798,-1.9786,-1.9798,-1.9798,-1.9798,-1.9798,-1.9798,-1.9798,-1.9798,-1.9798,-1.9798,-1.9924,-2.0112,-2.0567,-2.1008,-2.1854,-2.2811,-2.3849,-2.4872,-2.5678,-2.6375,-2.71,-2.7429,-2.756,-2.756,-2.756,-2.756,-2.756,-2.756,-2.756,-2.756,-2.756,-2.756,-2.7649,-2.8158,-2.8532,-2.8203,-2.8562,-2.8457,-2.8412,-2.8517,-2.8517,-2.8434,-2.8269,-2.8008,-2.7889,-2.7784,-2.7649,-2.756,-2.756,-2.756,-2.756,-2.756,-2.756,-2.756,-2.756,-2.756,-2.756,-2.756,-2.756,-2.756,-2.756,-2.741,-2.3144,-2.3144,-2.3144,-2.3144,-2.3144,-2.3144,-2.3144,-2.3144,-2.3144,-2.3144,-2.3144,-2.3144,-2.3144,-2.3144,-2.3144,-2.3144,-2.3135,-2.3115,-2.3066,-2.2715,-2.1851,-2.1289,-2.1074,-2.0732,-2.0576,-2.0576,-2.0576,-2.0644,-2.0769,-2.0348,-2.0287,-2.0938,-2.0344,-2.0196,-2.0586,-2.0565,-2.0322,-2.0462,-2.0526,-2.0281,-2.0003,-1.9794,-1.9476,-1.8917,-1.8611,-1.8611,-1.8881,-1.8868,-1.9097,-1.9695,-1.9798,-1.9798,-1.9798,-1.9798,-1.9798,-1.9798,-1.9798,-1.9798,-1.9798,-1.9798,-1.9798,-1.9798,-1.9823,-2.0037,-2.0489,-2.0781,-2.1222,-2.211,-2.2902,-2.3642,-2.4336,-2.4937,-2.5673,-2.6443,-2.7188,-2.756,-2.756,-2.756,-2.756,-2.756,-2.756,-2.756,-2.756,-2.756,-2.7604,-2.7829,-2.8308,-2.8637,-2.8786,-2.9071,-2.9445,-2.9385,-2.9101,-2.8846,-2.8577,-2.8472,-2.8218,-2.7814,-2.7739,-2.7664,-2.756,-2.756,-2.756,-2.756,-2.756,-2.756,-2.756,-2.756,-2.756,-2.756,-2.756,-2.756,-2.756,-2.756,-2.7545,-2.3144,-2.3144,-2.3144,-2.3144,-2.3144,-2.3144,-2.3144,-2.3144,-2.3144,-2.3144,-2.3144,-2.3144,-2.3144,-2.3144,-2.3144,-2.3144,-2.3144,-2.3144,-2.3144,-2.2988,-2.2178,-2.1338,-2.085,-2.0644,-2.0576,-2.0576,-2.0576,-2.0576,-2.0557,-2.043,-2.0367,-2.0183,-1.9803,-1.9414,-1.9302,-1.9022,-1.9065,-1.9562,-1.9628,-1.9901,-2.0156,-1.9663,-1.9201,-1.8711,-1.853,-1.8248,-1.7977,-1.8389,-1.9032,-1.9747,-1.9798,-1.9798,-1.9798,-1.9798,-1.9798,-1.9798,-1.9798,-1.9798,-1.9798,-1.9798,-1.9798,-1.9798,-1.9798,-2.0062,-2.0668,-2.1041,-2.1581,-2.2246,-2.2857,-2.3469,-2.415,-2.4523,-2.5175,-2.6336,-2.7034,-2.7509,-2.756,-2.756,-2.756,-2.756,-2.756,-2.756,-2.756,-2.7634,-2.7784,-2.8263,-2.8831,-2.9325,-2.9385,-2.9549,-2.9909,-2.949,-2.9175,-2.8936,-2.8727,-2.8652,-2.8368,-2.7814,-2.7649,-2.7619,-2.756,-2.756,-2.756,-2.756,-2.756,-2.756,-2.756,-2.756,-2.756,-2.756,-2.756,-2.756,-2.756,-2.756,-2.756,-2.3144,-2.3144,-2.3144,-2.3144,-2.3144,-2.3144,-2.3144,-2.3144,-2.3144,-2.3144,-2.3144,-2.3144,-2.3144,-2.3144,-2.3144,-2.3144,-2.3144,-2.3144,-2.3144,-2.2998,-2.2266,-2.1416,-2.0762,-2.0576,-2.0576,-2.0576,-2.0576,-2.0576,-2.0566,-2.0576,-2.042,-2.0203,-1.958,-1.916,-1.8978,-1.8311,-1.8212,-1.8654,-1.8787,-1.9044,-1.9431,-1.9044,-1.8665,-1.8314,-1.8161,-1.7883,-1.8013,-1.846,-1.8939,-1.9319,-1.9631,-1.9798,-1.9798,-1.9798,-1.9798,-1.9798,-1.9798,-1.9798,-1.9798,-1.9798,-1.9798,-1.9798,-1.9798,-2.0238,-2.0853,-2.1343,-2.1757,-2.2585,-2.2949,-2.3327,-2.3708,-2.406,-2.4681,-2.5398,-2.6215,-2.6916,-2.7458,-2.756,-2.756,-2.756,-2.756,-2.756,-2.759,-2.785,-2.8158,-2.8637,-2.94,-2.9759,-3.0013,-3.0178,-3.0298,-3.0058,-2.9909,-2.9819,-2.9475,-2.928,-2.8771,-2.8188,-2.7604,-2.7625,-2.756,-2.756,-2.756,-2.756,-2.756,-2.756,-2.756,-2.756,-2.756,-2.756,-2.756,-2.756,-2.756,-2.756,-2.756,-2.3144,-2.3144,-2.3144,-2.3144,-2.3144,-2.3144,-2.3144,-2.3144,-2.3144,-2.3144,-2.3144,-2.3144,-2.3144,-2.3144,-2.3144,-2.3144,-2.3144,-2.3144,-2.3018,-2.2754,-2.2168,-2.1416,-2.0644,-2.0576,-2.0576,-2.0576,-2.0576,-2.0576,-2.0576,-2.0576,-2.0576,-2.0312,-1.9687,-1.9326,-1.9053,-1.8437,-1.8047,-1.8066,-1.8134,-1.8202,-1.8337,-1.8202,-1.8162,-1.8026,-1.7737,-1.7907,-1.843,-1.8782,-1.8802,-1.8743,-1.9433,-1.9747,-1.9798,-1.9798,-1.9798,-1.9798,-1.9798,-1.9798,-1.9798,-1.9798,-1.9798,-1.9811,-1.9874,-2.0326,-2.1192,-2.1568,-2.2058,-2.2949,-2.3113,-2.3138,-2.3245,-2.3767,-2.4176,-2.4553,-2.5063,-2.5946,-2.6982,-2.7458,-2.7509,-2.756,-2.756,-2.756,-2.7739,-2.8128,-2.8622,-2.8951,-2.9714,-3.0253,-3.0477,-3.0597,-3.0881,-3.112,-3.1001,-3.0941,-3.0462,-2.9983,-2.9295,-2.8622,-2.7859,-2.7625,-2.7575,-2.756,-2.756,-2.756,-2.756,-2.756,-2.756,-2.756,-2.756,-2.756,-2.756,-2.756,-2.756,-2.756,-2.756,-2.3144,-2.3144,-2.3144,-2.3144,-2.3144,-2.3144,-2.3144,-2.3144,-2.3144,-2.3144,-2.3144,-2.3144,-2.3144,-2.3144,-2.3144,-2.3144,-2.3144,-2.3105,-2.2812,-2.2148,-2.2021,-2.1377,-2.0723,-2.0576,-2.0576,-2.0576,-2.0576,-2.0576,-2.0576,-2.0576,-2.0576,-2.0449,-1.9756,-1.9277,-1.916,-1.8467,-1.8008,-1.8008,-1.8008,-1.8008,-1.8008,-1.8008,-1.8008,-1.7969,-1.7598,-1.756,-1.7856,-1.8572,-1.8973,-1.9126,-1.9456,-1.9768,-1.9822,-1.9849,-1.9836,-1.9798,-1.9798,-1.9798,-1.9811,-1.9823,-1.9811,-1.9886,-2.0275,-2.0765,-2.1393,-2.1895,-2.2397,-2.2987,-2.3125,-2.3125,-2.3125,-2.3245,-2.3649,-2.4105,-2.4394,-2.4894,-2.5728,-2.639,-2.693,-2.7357,-2.7509,-2.756,-2.7604,-2.8248,-2.8786,-2.931,-2.9983,-3.0672,-3.0896,-3.1001,-3.121,-3.1437,-3.13,-3.1061,-3.0627,-3.0088,-2.946,-2.8861,-2.8188,-2.7655,-2.764,-2.756,-2.756,-2.756,-2.756,-2.756,-2.756,-2.756,-2.756,-2.756,-2.756,-2.756,-2.756,-2.756,-2.756,-2.3144,-2.3144,-2.3144,-2.3144,-2.3144,-2.3144,-2.3144,-2.3144,-2.3144,-2.3144,-2.3144,-2.3144,-2.3144,-2.3144,-2.3144,-2.3144,-2.3144,-2.3125,-2.2685,-2.207,-2.1855,-2.1396,-2.0723,-2.0576,-2.0576,-2.0576,-2.0576,-2.0576,-2.0576,-2.0576,-2.0576,-2.0488,-1.9717,-1.9316,-1.916,-1.8457,-1.8047,-1.8008,-1.8008,-1.8008,-1.8008,-1.8008,-1.8008,-1.793,-1.7703,-1.7573,-1.8369,-1.8322,-1.8818,-1.919,-1.9425,-1.9715,-2.0132,-2.02,-2.0087,-1.9849,-1.9798,-1.9798,-1.9811,-2.0049,-2.0225,-2.02,-2.0727,-2.128,-2.1732,-2.2171,-2.2548,-2.2975,-2.3125,-2.3125,-2.3125,-2.3125,-2.3424,-2.3603,-2.3767,-2.406,-2.4794,-2.5522,-2.6068,-2.6549,-2.6811,-2.6982,-2.7321,-2.8121,-2.8966,-2.9505,-3.0522,-3.118,-3.121,-3.13,-3.1258,-3.1362,-3.1183,-3.0971,-3.0597,-3.0088,-2.949,-2.8966,-2.8442,-2.7919,-2.77,-2.7604,-2.756,-2.756,-2.756,-2.756,-2.756,-2.756,-2.756,-2.756,-2.756,-2.756,-2.756,-2.756,-2.756,-2.3144,-2.3144,-2.3144,-2.3144,-2.3144,-2.3144,-2.3144,-2.3144,-2.3144,-2.3144,-2.3144,-2.3144,-2.3144,-2.3144,-2.3144,-2.3144,-2.3144,-2.3096,-2.2695,-2.1973,-2.1894,-2.1367,-2.0752,-2.0576,-2.0576,-2.0576,-2.0576,-2.0576,-2.0576,-2.0576,-2.0576,-2.043,-1.9814,-1.9404,-1.9131,-1.8555,-1.8096,-1.8037,-1.8008,-1.8008,-1.8008,-1.8008,-1.8008,-1.7939,-1.7754,-1.7922,-1.8543,-1.8531,-1.8584,-1.95,-1.9293,-1.9691,-2.0229,-2.059,-2.0366,-1.979,-1.9895,-1.9936,-1.9936,-2.0263,-2.0614,-2.0743,-2.128,-2.1769,-2.2171,-2.2422,-2.2723,-2.2949,-2.3125,-2.3125,-2.3125,-2.3125,-2.3125,-2.3185,-2.3125,-2.3424,-2.4002,-2.4738,-2.5007,-2.5563,-2.6054,-2.6336,-2.7113,-2.7935,-2.8847,-2.9719,-3.075,-3.1467,-3.1467,-3.1467,-3.1422,-3.1407,-3.1287,-3.1228,-3.0956,-3.0447,-2.9819,-2.94,-2.8876,-2.8353,-2.7949,-2.7949,-2.7919,-2.7619,-2.756,-2.756,-2.756,-2.756,-2.756,-2.756,-2.756,-2.756,-2.756,-2.756,-2.756,-2.3144,-2.3144,-2.3144,-2.3144,-2.3144,-2.3144,-2.3144,-2.3144,-2.3144,-2.3144,-2.3144,-2.3144,-2.3144,-2.3144,-2.3144,-2.3144,-2.3144,-2.3057,-2.2656,-2.1982,-2.1826,-2.1357,-2.0713,-2.0576,-2.0576,-2.0576,-2.0576,-2.0576,-2.0576,-2.0576,-2.0576,-2.0449,-2.0029,-1.9648,-1.9228,-1.8779,-1.8291,-1.8047,-1.8008,-1.8008,-1.8008,-1.8008,-1.8008,-1.8008,-1.7881,-1.8045,-1.8277,-1.8787,-1.9175,-1.9424,-2.0006,-2.0053,-1.9981,-2.0112,-1.9963,-1.9744,-2.006,-2.0204,-1.998,-2.0426,-2.0639,-2.0878,-2.1606,-2.2133,-2.2422,-2.2698,-2.2949,-2.3037,-2.3125,-2.3125,-2.3125,-2.3125,-2.3125,-2.3125,-2.3138,-2.3198,-2.3365,-2.3649,-2.415,-2.4894,-2.5384,-2.5756,-2.6451,-2.7374,-2.8367,-2.9219,-3.0186,-3.0924,-3.1204,-3.1278,-3.1409,-3.1452,-3.1437,-3.1422,-3.1405,-3.0866,-3.0328,-3.0058,-2.9549,-2.8921,-2.8592,-2.8487,-2.8323,-2.7799,-2.7575,-2.756,-2.756,-2.756,-2.756,-2.756,-2.756,-2.756,-2.756,-2.756,-2.756,-2.3144,-2.3144,-2.3144,-2.3144,-2.3144,-2.3144,-2.3144,-2.3144,-2.3144,-2.3144,-2.3144,-2.3144,-2.3144,-2.3144,-2.3144,-2.3144,-2.3096,-2.2871,-2.2461,-2.1953,-2.1631,-2.123,-2.0615,-2.0576,-2.0576,-2.0576,-2.0576,-2.0576,-2.0576,-2.0576,-2.0576,-2.0469,-2.0127,-1.9697,-1.9277,-1.8848,-1.8428,-1.8105,-1.8008,-1.8008,-1.8008,-1.8008,-1.8008,-1.8008,-1.8008,-1.8008,-1.8076,-1.8337,-1.8586,-1.8643,-1.8977,-1.9052,-1.9157,-1.9336,-1.9576,-1.9401,-1.9972,-2.0348,-2.0287,-2.089,-2.1531,-2.1619,-2.2284,-2.2686,-2.2786,-2.2962,-2.3125,-2.3125,-2.3125,-2.3125,-2.3125,-2.3125,-2.3125,-2.3125,-2.3125,-2.3125,-2.3125,-2.3125,-2.3636,-2.4323,-2.461,-2.4991,-2.541,-2.6456,-2.771,-2.8755,-2.9638,-3.0265,-3.0763,-3.1029,-3.1102,-3.1409,-3.1467,-3.1467,-3.1467,-3.1225,-3.0806,-3.0552,-3.0223,-2.9594,-2.8936,-2.8697,-2.8218,-2.773,-2.7625,-2.756,-2.756,-2.756,-2.756,-2.756,-2.756,-2.756,-2.756,-2.756,-2.756,-2.3144,-2.3144,-2.3144,-2.3144,-2.3144,-2.3144,-2.3144,-2.3144,-2.3144,-2.3144,-2.3144,-2.3144,-2.3144,-2.3144,-2.3125,-2.3096,-2.2998,-2.2646,-2.2246,-2.1728,-2.1416,-2.1006,-2.0684,-2.0576,-2.0576,-2.0576,-2.0576,-2.0576,-2.0576,-2.0576,-2.0576,-2.0498,-2.0185,-1.9766,-1.9316,-1.8984,-1.8516,-1.8144,-1.8008,-1.8008,-1.8008,-1.8008,-1.8008,-1.8008,-1.8008,-1.8008,-1.8008,-1.8076,-1.8144,-1.8066,-1.8134,-1.8066,-1.8134,-1.8654,-1.9007,-1.912,-1.9863,-2.0287,-2.0749,-2.1494,-2.2146,-2.2159,-2.2774,-2.305,-2.3113,-2.3075,-2.3125,-2.3125,-2.3125,-2.3125,-2.3125,-2.3125,-2.3125,-2.3125,-2.3125,-2.3125,-2.3125,-2.3125,-2.3125,-2.3531,-2.3826,-2.4261,-2.4761,-2.5537,-2.6787,-2.788,-2.8795,-2.9408,-2.9915,-3.0435,-3.0718,-3.1278,-3.1467,-3.1467,-3.1467,-3.1467,-3.1195,-3.0956,-3.0687,-3.0223,-2.943,-2.8727,-2.8278,-2.7934,-2.7625,-2.756,-2.756,-2.756,-2.756,-2.756,-2.756,-2.756,-2.756,-2.756,-2.756,-2.3144,-2.3144,-2.3144,-2.3144,-2.3144,-2.3144,-2.3144,-2.3144,-2.3144,-2.3144,-2.3144,-2.3144,-2.3144,-2.3144,-2.3144,-2.293,-2.2676,-2.2471,-2.206,-2.1445,-2.1221,-2.0947,-2.0615,-2.0576,-2.0576,-2.0576,-2.0576,-2.0576,-2.0576,-2.0576,-2.0576,-2.0527,-2.0439,-2.0117,-1.9424,-1.9199,-1.8789,-1.8164,-1.8018,-1.8008,-1.8008,-1.8008,-1.8008,-1.8008,-1.8008,-1.8008,-1.8008,-1.8008,-1.8008,-1.8008,-1.8008,-1.8008,-1.8008,-1.8076,-1.8576,-1.9296,-2.0195,-2.1043,-2.1358,-2.1993,-2.2422,-2.251,-2.2849,-2.3075,-2.3125,-2.3125,-2.3125,-2.3125,-2.3125,-2.3125,-2.3125,-2.3125,-2.3125,-2.3125,-2.3125,-2.3125,-2.3125,-2.3125,-2.3125,-2.3125,-2.3484,-2.3826,-2.4189,-2.4983,-2.5859,-2.6873,-2.7825,-2.8469,-2.919,-2.9761,-3.0329,-3.0911,-3.1467,-3.1467,-3.1467,-3.1467,-3.1392,-3.1213,-3.0884,-3.0657,-2.9953,-2.919,-2.8846,-2.8487,-2.8008,-2.759,-2.756,-2.756,-2.756,-2.756,-2.756,-2.756,-2.756,-2.756,-2.756,-2.3144,-2.3144,-2.3144,-2.3144,-2.3144,-2.3144,-2.3144,-2.3144,-2.3144,-2.3144,-2.3144,-2.3144,-2.3144,-2.3144,-2.3144,-2.29,-2.2529,-2.2266,-2.1846,-2.125,-2.0986,-2.0762,-2.0615,-2.0576,-2.0576,-2.0576,-2.0576,-2.0576,-2.0576,-2.0576,-2.0576,-2.0576,-2.0547,-2.0283,-1.9619,-1.9404,-1.8955,-1.8467,-1.8164,-1.8018,-1.8008,-1.8008,-1.8008,-1.8008,-1.8008,-1.8008,-1.8008,-1.8008,-1.8008,-1.8008,-1.8008,-1.8008,-1.8008,-1.8144,-1.8586,-1.9987,-2.0464,-2.1046,-2.1656,-2.234,-2.2652,-2.2786,-2.2987,-2.3113,-2.3125,-2.3125,-2.3125,-2.3125,-2.3125,-2.3125,-2.3125,-2.3125,-2.3125,-2.3125,-2.3125,-2.3125,-2.3125,-2.3125,-2.3125,-2.3125,-2.3125,-2.3471,-2.3767,-2.4341,-2.4859,-2.5458,-2.6444,-2.718,-2.8257,-2.9402,-2.9972,-3.0598,-3.1087,-3.1467,-3.1467,-3.1467,-3.1409,-3.12,-3.081,-3.0526,-3.0283,-2.9774,-2.934,-2.8727,-2.8053,-2.7754,-2.7634,-2.756,-2.756,-2.756,-2.756,-2.756,-2.756,-2.756,-2.756,-2.3144,-2.3144,-2.3144,-2.3144,-2.3144,-2.3144,-2.3144,-2.3144,-2.3144,-2.3144,-2.3144,-2.3144,-2.3144,-2.3096,-2.2998,-2.2705,-2.2314,-2.1914,-2.1484,-2.1064,-2.0762,-2.0615,-2.0576,-2.0576,-2.0576,-2.0576,-2.0576,-2.0576,-2.0576,-2.0576,-2.0576,-2.0576,-2.0576,-2.0303,-1.9941,-1.9609,-1.9209,-1.8603,-1.8203,-1.8027,-1.8008,-1.8008,-1.8008,-1.8008,-1.8008,-1.8008,-1.8008,-1.8008,-1.8008,-1.8008,-1.8008,-1.8008,-1.8008,-1.8076,-1.8654,-1.9683,-2.0138,-2.0767,-2.1673,-2.2542,-2.3005,-2.3125,-2.3125,-2.3125,-2.3125,-2.3125,-2.3125,-2.3125,-2.3125,-2.3125,-2.3125,-2.3125,-2.3125,-2.3125,-2.3125,-2.3125,-2.3125,-2.3125,-2.3125,-2.3125,-2.3125,-2.3125,-2.3424,-2.3708,-2.3983,-2.4202,-2.4898,-2.5957,-2.731,-2.8803,-2.9302,-2.9889,-3.0584,-3.0837,-3.0703,-3.0822,-3.0955,-3.1115,-3.0671,-3.0592,-3.0473,-3.0123,-2.9654,-2.8951,-2.8308,-2.8083,-2.8068,-2.7814,-2.756,-2.756,-2.756,-2.756,-2.756,-2.756,-2.756,-2.3144,-2.3144,-2.3144,-2.3144,-2.3144,-2.3144,-2.3144,-2.3144,-2.3144,-2.3144,-2.3144,-2.3144,-2.3144,-2.3057,-2.2764,-2.2393,-2.1934,-2.1475,-2.1094,-2.0791,-2.0576,-2.0576,-2.0576,-2.0576,-2.0576,-2.0576,-2.0576,-2.0576,-2.0576,-2.0576,-2.0576,-2.0576,-2.0576,-2.0293,-2.0049,-1.9844,-1.9336,-1.875,-1.8281,-1.8066,-1.8027,-1.8008,-1.8008,-1.8008,-1.8008,-1.8008,-1.8008,-1.8008,-1.8008,-1.8008,-1.8008,-1.8008,-1.8008,-1.8008,-1.8586,-1.9299,-1.9824,-2.0526,-2.1678,-2.2506,-2.2957,-2.3078,-2.3125,-2.3125,-2.3125,-2.3125,-2.3125,-2.3125,-2.3125,-2.3125,-2.3125,-2.3125,-2.3125,-2.3125,-2.3125,-2.3125,-2.3125,-2.3125,-2.3125,-2.3125,-2.3125,-2.3125,-2.3251,-2.3577,-2.3624,-2.3864,-2.457,-2.5563,-2.6792,-2.8036,-2.8424,-2.8989,-2.9813,-3.0011,-2.9442,-2.9628,-3.0208,-3.0329,-3.0098,-3.047,-3.0866,-3.0419,-2.9648,-2.952,-2.9015,-2.8725,-2.8427,-2.8128,-2.7859,-2.7649,-2.756,-2.756,-2.756,-2.756,-2.756,-2.3144,-2.3144,-2.3144,-2.3144,-2.3144,-2.3144,-2.3144,-2.3144,-2.3144,-2.3144,-2.3144,-2.3144,-2.3144,-2.3008,-2.2695,-2.2285,-2.1865,-2.1435,-2.0996,-2.0703,-2.0576,-2.0576,-2.0576,-2.0576,-2.0576,-2.0576,-2.0576,-2.0576,-2.0576,-2.0576,-2.0576,-2.0576,-2.0576,-2.0498,-2.0303,-2.0,-1.9443,-1.8867,-1.8477,-1.8301,-1.8027,-1.8008,-1.8008,-1.8008,-1.8008,-1.8008,-1.8008,-1.8008,-1.8008,-1.8008,-1.8008,-1.8008,-1.8008,-1.8008,-1.8395,-1.9177,-1.9562,-2.0526,-2.1491,-2.2199,-2.258,-2.3065,-2.3125,-2.3125,-2.3125,-2.3125,-2.3125,-2.3125,-2.3125,-2.3125,-2.3125,-2.3125,-2.3125,-2.3125,-2.3125,-2.3125,-2.3125,-2.3125,-2.3125,-2.3125,-2.3125,-2.3125,-2.3301,-2.3477,-2.3513,-2.3552,-2.4356,-2.529,-2.6514,-2.7364,-2.7736,-2.8168,-2.8939,-2.924,-2.8798,-2.9066,-2.9518,-2.9518,-2.9518,-2.9889,-3.0225,-3.0017,-2.9463,-2.9503,-2.9563,-2.9109,-2.8672,-2.839,-2.8083,-2.7724,-2.759,-2.756,-2.756,-2.756,-2.756,-2.3144,-2.3144,-2.3144,-2.3144,-2.3144,-2.3144,-2.3144,-2.3144,-2.3144,-2.3144,-2.3125,-2.3037,-2.2959,-2.2812,-2.2344,-2.1982,-2.1582,-2.1211,-2.0869,-2.0664,-2.0576,-2.0576,-2.0576,-2.0576,-2.0576,-2.0576,-2.0576,-2.0576,-2.0576,-2.0576,-2.0576,-2.0576,-2.0566,-2.0547,-2.0449,-2.0117,-1.96,-1.915,-1.8691,-1.8475,-1.8223,-1.8066,-1.8008,-1.8008,-1.8008,-1.8008,-1.8008,-1.8008,-1.8008,-1.8008,-1.8008,-1.8008,-1.8008,-1.8076,-1.8327,-1.8911,-1.9497,-2.0268,-2.0985,-2.2013,-2.2457,-2.3005,-2.3125,-2.3125,-2.3125,-2.3125,-2.3125,-2.3125,-2.3125,-2.3125,-2.3125,-2.3125,-2.3125,-2.3125,-2.3125,-2.3125,-2.3125,-2.3125,-2.3125,-2.3125,-2.3138,-2.309,-2.3351,-2.3615,-2.413,-2.4217,-2.4782,-2.5564,-2.6278,-2.6905,-2.7162,-2.7537,-2.8051,-2.8247,-2.8233,-2.8427,-2.8634,-2.862,-2.8684,-2.8939,-2.9101,-2.9017,-2.9385,-2.9754,-2.9637,-2.9289,-2.8941,-2.8571,-2.8152,-2.7694,-2.7619,-2.756,-2.756,-2.756,-2.756,-2.3144,-2.3144,-2.3144,-2.3144,-2.3144,-2.3144,-2.3144,-2.3144,-2.3144,-2.3115,-2.3037,-2.2734,-2.2539,-2.2363,-2.1777,-2.1455,-2.1279,-2.0879,-2.0605,-2.0586,-2.0576,-2.0576,-2.0576,-2.0576,-2.0576,-2.0576,-2.0576,-2.0576,-2.0576,-2.0576,-2.0576,-2.0576,-2.0576,-2.0566,-2.0527,-2.0146,-1.9912,-1.9756,-1.9043,-1.8779,-1.8496,-1.8242,-1.8125,-1.8008,-1.8008,-1.8008,-1.8008,-1.8008,-1.8008,-1.8008,-1.8008,-1.8008,-1.8008,-1.8008,-1.8066,-1.8202,-1.8327,-1.8777,-1.9486,-2.1729,-2.2763,-2.3065,-2.3125,-2.3125,-2.3125,-2.3125,-2.3125,-2.3125,-2.3125,-2.3125,-2.3125,-2.3125,-2.3125,-2.3125,-2.3125,-2.3125,-2.3125,-2.3125,-2.3125,-2.3125,-2.3078,-2.3128,-2.3389,-2.3766,-2.4594,-2.5046,-2.5423,-2.5862,-2.6382,-2.6577,-2.6837,-2.6973,-2.743,-2.7417,-2.7484,-2.7617,-2.7736,-2.7736,-2.7789,-2.7986,-2.8363,-2.857,-2.9094,-2.9718,-2.9571,-2.8984,-2.8871,-2.87,-2.8213,-2.7794,-2.7649,-2.756,-2.756,-2.756,-2.756,-2.3144,-2.3144,-2.3144,-2.3144,-2.3144,-2.3144,-2.3135,-2.3144,-2.3115,-2.2988,-2.2744,-2.2539,-2.2324,-2.1973,-2.1562,-2.1201,-2.1133,-2.0791,-2.0576,-2.0576,-2.0576,-2.0576,-2.0576,-2.0576,-2.0576,-2.0576,-2.0576,-2.0576,-2.0576,-2.0576,-2.0576,-2.0576,-2.0576,-2.0576,-2.0547,-2.0361,-2.0244,-1.9941,-1.9561,-1.9248,-1.8711,-1.8477,-1.8281,-1.8037,-1.8008,-1.8008,-1.8008,-1.8008,-1.8008,-1.8008,-1.8008,-1.8008,-1.8008,-1.8008,-1.8008,-1.8134,-1.8395,-1.9233,-2.0139,-2.1616,-2.2494,-2.2823,-2.3065,-2.3065,-2.3125,-2.3125,-2.3125,-2.3125,-2.3125,-2.3125,-2.3125,-2.3125,-2.3125,-2.3125,-2.3125,-2.3125,-2.3125,-2.3125,-2.3125,-2.3125,-2.3078,-2.3616,-2.4017,-2.428,-2.4983,-2.5473,-2.5799,-2.5988,-2.6433,-2.6508,-2.6577,-2.6589,-2.6794,-2.6726,-2.6726,-2.704,-2.7095,-2.7095,-2.704,-2.6973,-2.7351,-2.792,-2.822,-2.8666,-2.8691,-2.8671,-2.838,-2.814,-2.8119,-2.7883,-2.7602,-2.7554,-2.756,-2.756,-2.756,-2.2705,-2.2705,-2.2705,-2.2705,-2.2754,-2.3018,-2.3066,-2.2949,-2.291,-2.2685,-2.2334,-2.2148,-2.1924,-2.1582,-2.123,-2.1006,-2.0967,-2.0723,-2.0576,-2.0576,-2.0576,-2.0576,-2.0576,-2.0576,-2.0576,-2.0576,-2.0576,-2.0576,-2.0576,-2.0576,-2.0576,-2.0576,-2.0576,-2.0576,-2.0557,-2.0498,-2.043,-2.0156,-1.9912,-1.9521,-1.9033,-1.8682,-1.8408,-1.8135,-1.8008,-1.8008,-1.8008,-1.8008,-1.8008,-1.8008,-1.8008,-1.8008,-1.8008,-1.8008,-1.8008,-1.8202,-1.8462,-1.9243,-2.0009,-2.0846,-2.1729,-2.2506,-2.2884,-2.3078,-2.3125,-2.3125,-2.3125,-2.3125,-2.3125,-2.3125,-2.3125,-2.3125,-2.3125,-2.3125,-2.3125,-2.3125,-2.3125,-2.3125,-2.3125,-2.3125,-2.3263,-2.3841,-2.4594,-2.5008,-2.5423,-2.5799,-2.6151,-2.6276,-2.6377,-2.6414,-2.6521,-2.6521,-2.6533,-2.6533,-2.6521,-2.6589,-2.6645,-2.6521,-2.6521,-2.6533,-2.6658,-2.7149,-2.7351,-2.7537,-2.7617,-2.7691,-2.7631,-2.7474,-2.7584,-2.7549,-2.7334,-2.7351,-2.7539,-2.756,-2.756,-2.1894,-2.1885,-2.1894,-2.1934,-2.2041,-2.2715,-2.2822,-2.25,-2.249,-2.2266,-2.1855,-2.1475,-2.1309,-2.1162,-2.0771,-2.0625,-2.0644,-2.0576,-2.0576,-2.0576,-2.0576,-2.0576,-2.0576,-2.0576,-2.0576,-2.0576,-2.0576,-2.0576,-2.0576,-2.0576,-2.0576,-2.0576,-2.0576,-2.0576,-2.0576,-2.0557,-2.0527,-2.0381,-2.0068,-1.9717,-1.9316,-1.8848,-1.8496,-1.8213,-1.8066,-1.8018,-1.8008,-1.8008,-1.8008,-1.8008,-1.8008,-1.8008,-1.8008,-1.8008,-1.8008,-1.8008,-1.8076,-1.8586,-1.9233,-2.0074,-2.0782,-2.1553,-2.2372,-2.2811,-2.3125,-2.3125,-2.3125,-2.3125,-2.3125,-2.3125,-2.3125,-2.3125,-2.3125,-2.3125,-2.3125,-2.3125,-2.3125,-2.3125,-2.3125,-2.3163,-2.3251,-2.3778,-2.4619,-2.5172,-2.5674,-2.6038,-2.6302,-2.6339,-2.6427,-2.6427,-2.6521,-2.6521,-2.6521,-2.6521,-2.6521,-2.6521,-2.6521,-2.6521,-2.6521,-2.6521,-2.6521,-2.6589,-2.6905,-2.704,-2.6782,-2.6876,-2.7245,-2.7319,-2.7131,-2.7089,-2.6963,-2.7181,-2.7342,-2.756,-2.756,-2.1172,-2.1885,-2.1894,-2.1894,-2.1924,-2.2139,-2.2178,-2.207,-2.206,-2.1826,-2.1416,-2.1299,-2.1055,-2.0752,-2.0625,-2.0586,-2.0576,-2.0576,-2.0576,-2.0576,-2.0576,-2.0576,-2.0576,-2.0576,-2.0576,-2.0576,-2.0576,-2.0576,-2.0576,-2.0576,-2.0576,-2.0576,-2.0576,-2.0576,-2.0576,-2.0576,-2.0576,-2.0478,-2.0156,-1.9873,-1.9512,-1.9014,-1.8643,-1.8369,-1.8105,-1.8037,-1.8008,-1.8008,-1.8008,-1.8008,-1.8008,-1.8008,-1.8008,-1.8008,-1.8008,-1.8008,-1.8008,-1.8202,-1.8462,-1.9166,-1.9879,-2.0333,-2.1037,-2.2051,-2.2628,-2.2944,-2.2944,-2.2884,-2.2811,-2.2689,-2.2884,-2.3005,-2.3065,-2.3065,-2.3053,-2.2955,-2.298,-2.308,-2.3092,-2.3376,-2.3464,-2.4029,-2.4833,-2.5372,-2.585,-2.6239,-2.6521,-2.6521,-2.6521,-2.6521,-2.6521,-2.6521,-2.6521,-2.6521,-2.6521,-2.6521,-2.6521,-2.6521,-2.6521,-2.6521,-2.6521,-2.6589,-2.6658,-2.6658,-2.6589,-2.6934,-2.7446,-2.713,-2.6425,-2.6651,-2.6624,-2.6856,-2.7086,-2.7188,-2.7357,-2.0099,-2.078,-2.1196,-2.1367,-2.1367,-2.1357,-2.1196,-2.089,-2.138,-2.1387,-2.0996,-2.0957,-2.081,-2.0625,-2.0576,-2.0576,-2.0576,-2.0576,-2.0576,-2.0576,-2.0576,-2.0576,-2.0576,-2.0566,-2.0576,-2.0566,-2.0566,-2.0576,-2.0576,-2.0576,-2.0576,-2.0576,-2.0576,-2.0576,-2.0576,-2.0576,-2.0576,-2.0488,-2.0303,-2.0,-1.957,-1.9141,-1.8828,-1.8408,-1.8115,-1.8047,-1.8008,-1.8008,-1.8008,-1.8008,-1.8008,-1.8008,-1.8008,-1.8008,-1.8008,-1.8008,-1.8008,-1.8008,-1.8269,-1.8911,-1.9166,-1.9497,-2.0074,-2.0974,-2.1542,-2.1854,-2.2187,-2.2372,-2.2249,-2.2237,-2.2555,-2.2884,-2.3005,-2.3078,-2.2942,-2.276,-2.2871,-2.296,-2.3243,-2.3553,-2.4004,-2.4519,-2.5071,-2.5573,-2.5988,-2.6302,-2.6521,-2.6521,-2.6521,-2.6521,-2.6521,-2.6521,-2.6521,-2.6521,-2.6521,-2.6521,-2.6521,-2.6521,-2.6521,-2.6521,-2.6521,-2.6521,-2.6589,-2.6589,-2.6521,-2.6867,-2.7152,-2.6194,-2.5605,-2.5841,-2.5972,-2.5911,-2.6068,-2.6322,-2.6602,-1.8807,-1.8984,-1.9913,-2.0312,-2.042,-2.0303,-1.9813,-1.9161,-2.0278,-2.0719,-2.0479,-2.0576,-2.0596,-2.0576,-2.0576,-2.0576,-2.0576,-2.0576,-2.0576,-2.0566,-2.0576,-2.0576,-2.0566,-2.0489,-2.0401,-2.0489,-2.0479,-2.0245,-2.0566,-2.0576,-2.0576,-2.0576,-2.0576,-2.0576,-2.0576,-2.0576,-2.0576,-2.0547,-2.043,-2.0195,-1.9561,-1.918,-1.8857,-1.8262,-1.8057,-1.8008,-1.8008,-1.8008,-1.8008,-1.8008,-1.8008,-1.8008,-1.8008,-1.8008,-1.8008,-1.8008,-1.8008,-1.8008,-1.8134,-1.8586,-1.8911,-1.9299,-1.9879,-2.0139,-2.0333,-2.0974,-2.1416,-2.1616,-2.1479,-2.1604,-2.1928,-2.1928,-2.199,-2.2237,-2.2262,-2.2372,-2.2567,-2.2825,-2.3331,-2.3804,-2.4418,-2.4908,-2.5222,-2.5724,-2.6163,-2.6402,-2.6521,-2.6521,-2.6521,-2.6521,-2.6521,-2.6521,-2.6521,-2.6521,-2.6521,-2.6521,-2.6521,-2.6521,-2.6521,-2.6521,-2.6521,-2.6521,-2.6521,-2.6521,-2.6521,-2.6521,-2.6455,-2.5775,-2.5384,-2.5327,-2.5321,-2.4887,-2.5005,-2.53,-2.5728,-1.7009,-1.7738,-1.798,-1.855,-1.9204,-1.847,-1.847,-1.8877,-1.8397,-1.8736,-1.9371,-2.0157,-2.0576,-2.0576,-2.0576,-2.0566,-2.0489,-2.0333,-2.0566,-2.0411,-2.0323,-2.0079,-2.0245,-1.9678,-1.9844,-2.0079,-2.0079,-1.9678,-2.0079,-2.0323,-2.0489,-2.0489,-2.0489,-2.0411,-2.0323,-2.0323,-2.0566,-2.0411,-2.0449,-2.0225,-1.9697,-1.8838,-1.8232,-1.8223,-1.8252,-1.8037,-1.8008,-1.8008,-1.8008,-1.8008,-1.8008,-1.8008,-1.8008,-1.8008,-1.8008,-1.8008,-1.8008,-1.8008,-1.8076,-1.8259,-1.8395,-1.8395,-1.8586,-1.8596,-1.8988,-2.002,-2.059,-2.0719,-2.0782,-2.091,-2.1101,-2.1037,-2.1037,-2.1342,-2.1643,-2.1916,-2.2199,-2.28,-2.3406,-2.4053,-2.4743,-2.5172,-2.546,-2.5837,-2.6276,-2.6521,-2.6521,-2.6521,-2.6521,-2.6521,-2.6521,-2.6521,-2.6521,-2.6521,-2.6521,-2.6521,-2.6521,-2.6521,-2.6521,-2.6521,-2.6521,-2.6521,-2.6521,-2.6521,-2.6521,-2.6521,-2.6314,-2.5942,-2.5532,-2.5282,-2.4857,-2.4463,-2.4158,-2.4403,-2.4808,-1.6026,-1.6601,-1.709,-1.7658,-1.8069,-1.7585,-1.7423,-1.7488,-1.7334,-1.7342,-1.7819,-1.9107,-2.0089,-2.0489,-2.0576,-2.0167,-2.0001,-1.9844,-1.9353,-1.9195,-1.9274,-1.9027,-1.8789,-1.863,-1.855,-1.8789,-1.863,-1.855,-1.9265,-1.9107,-1.9036,-1.9353,-1.952,-1.9678,-1.952,-1.9923,-2.0323,-1.9923,-2.0188,-2.0098,-1.9727,-1.8994,-1.8369,-1.8428,-1.8164,-1.8008,-1.8008,-1.8008,-1.8008,-1.8008,-1.8008,-1.8008,-1.8008,-1.8008,-1.8008,-1.8008,-1.8008,-1.8008,-1.8008,-1.8008,-1.8008,-1.8008,-1.8008,-1.8269,-1.8279,-1.911,-1.9497,-1.9617,-1.9299,-1.9365,-2.0268,-2.0526,-2.059,-2.0771,-2.1055,-2.1283,-2.1792,-2.2452,-2.3067,-2.3733,-2.4526,-2.536,-2.5661,-2.6013,-2.6445,-2.6521,-2.6521,-2.6521,-2.6521,-2.6521,-2.6521,-2.6521,-2.6521,-2.6521,-2.6521,-2.6521,-2.6521,-2.6521,-2.6521,-2.6521,-2.6521,-2.6521,-2.6521,-2.6521,-2.6521,-2.6521,-2.6251,-2.5963,-2.546,-2.5025,-2.4583,-2.4113,-2.3847,-2.3752,-2.4131,-1.5455,-1.5621,-1.6445,-1.6927,-1.7098,-1.6935,-1.6437,-1.5951,-1.6519,-1.6437,-1.6191,-1.7811,-1.9116,-1.9844,-2.0167,-1.952,-1.9036,-1.8789,-1.8141,-1.7747,-1.7585,-1.7819,-1.7738,-1.7253,-1.7253,-1.7415,-1.7415,-1.7415,-1.7738,-1.7738,-1.7827,-1.7585,-1.7908,-1.839,-1.839,-1.9036,-2.0001,-1.9856,-1.9899,-1.9798,-1.9541,-1.9228,-1.8682,-1.8262,-1.8008,-1.8008,-1.8008,-1.8008,-1.8008,-1.8008,-1.8008,-1.8008,-1.8008,-1.8008,-1.8008,-1.8008,-1.8008,-1.8008,-1.8008,-1.8008,-1.8008,-1.8008,-1.8008,-1.8008,-1.8018,-1.8202,-1.8586,-1.8586,-1.8269,-1.8462,-1.9365,-1.9824,-1.9944,-2.0063,-2.0278,-2.073,-2.1415,-2.2062,-2.2686,-2.3321,-2.4341,-2.5244,-2.5912,-2.6319,-2.6433,-2.6496,-2.6521,-2.6521,-2.6521,-2.6521,-2.6521,-2.6521,-2.6521,-2.6521,-2.6521,-2.6521,-2.6521,-2.6521,-2.6521,-2.6521,-2.6521,-2.6521,-2.6521,-2.6521,-2.6521,-2.6521,-2.6352,-2.6126,-2.5573,-2.5059,-2.4845,-2.4582,-2.4217,-2.4078,-2.384,-1.4405,-1.4412,-1.4657,-1.5228,-1.5786,-1.5144,-1.5054,-1.5538,-1.4977,-1.4977,-1.5621,-1.5944,-1.6919,-1.79,-1.79,-1.7747,-1.7747,-1.7577,-1.7577,-1.7342,-1.6854,-1.7098,-1.6935,-1.6198,-1.6034,-1.6198,-1.6609,-1.7172,-1.669,-1.6935,-1.7261,-1.718,-1.7253,-1.79,-1.8718,-1.9195,-1.9423,-1.9376,-1.9722,-1.9765,-1.9425,-1.8991,-1.8535,-1.8193,-1.8008,-1.8008,-1.8008,-1.8008,-1.8008,-1.8008,-1.8008,-1.8008,-1.8008,-1.8008,-1.8008,-1.8008,-1.8008,-1.8008,-1.8008,-1.8008,-1.8008,-1.8008,-1.8008,-1.8008,-1.8008,-1.8008,-1.8269,-1.8269,-1.8076,-1.8076,-1.8654,-1.8654,-1.8721,-1.8977,-1.9212,-2.0182,-2.0986,-2.143,-2.1955,-2.2942,-2.4094,-2.5197,-2.6226,-2.6471,-2.6471,-2.6521,-2.6521,-2.6521,-2.6521,-2.6521,-2.6521,-2.6521,-2.6521,-2.6521,-2.6521,-2.6521,-2.6521,-2.6521,-2.6521,-2.6521,-2.6521,-2.6521,-2.6521,-2.6521,-2.6521,-2.6521,-2.6327,-2.6251,-2.5925,-2.5511,-2.5485,-2.5247,-2.482,-2.4305,-2.3941]}]]